Date StartTime U_cm/s V_cm/s W_cm/s Ustd_cm/s Vstd_cm/s Wstd_cm/s Uvar_(cm/s)^2 Vvar_(cm/s)^2 Wvar_(cm/s)^2 KE_(m/s)^2 TurbulentKE_(m/s)^2 HorizWindSpeed_cm/s FrictionSpeec_cm/s DragCoef SpeedOfSound_m/s SonicTemperature_C Pressure_mb 
09/11/2014  00:00:00     -138.308      -94.350       -0.234       67.256       54.992       32.302     4523.403     3024.115     1043.439        1.831        0.430      167.425       39.323        0.055      342.089       17.253      862.668
09/11/2014  00:01:00     -151.861     -106.329      -15.419       37.854       38.851       26.880     1432.927     1509.416      722.532        1.913        0.183      185.385       17.938        0.009      342.131       17.324      862.667
09/11/2014  00:02:00     -167.729      -79.274      -10.494       45.086       39.028       24.120     2032.774     1523.186      581.780        1.933        0.207      185.519       22.047        0.014      342.187       17.418      862.675
09/11/2014  00:03:00      -98.035      -52.187       -1.820       42.718       35.184       25.738     1824.860     1237.935      662.450        0.803        0.186      111.060       25.770        0.054      342.180       17.410      862.671
09/11/2014  00:04:00     -102.506      -85.919       -0.436       33.766       29.935       21.595     1140.164      896.101      466.354        1.020        0.125      133.752       14.642        0.012      342.112       17.295      862.670
09/11/2014  00:05:00     -128.686      -62.023       -8.073       19.993       23.933       16.408      399.706      572.792      269.210        1.086        0.062      142.853       10.490        0.005      342.119       17.305      862.679
09/11/2014  00:06:00      -70.367      -54.185        6.778       38.318       28.037       18.305     1468.307      786.093      335.069        0.526        0.129       88.812       15.994        0.032      342.052       17.192      862.679
09/11/2014  00:07:00      -83.069      -58.961       10.510       64.269       31.281       24.955     4130.505      978.492      622.767        0.811        0.287      101.867       35.162        0.119      342.070       17.221      862.679
09/11/2014  00:08:00     -100.020      -63.164        0.342       64.136       31.675       22.465     4113.478     1003.294      504.673        0.981        0.281      118.295       26.715        0.051      342.040       17.170      862.687
09/11/2014  00:09:00     -106.955      -54.096       -1.715       44.450       29.752       23.994     1975.759      885.178      575.734        0.890        0.172      119.857       25.086        0.044      341.973       17.059      862.687
09/11/2014  00:10:00     -124.811      -56.734      -10.229       21.942       33.931       18.739      481.430     1151.320      351.136        1.044        0.099      137.101        9.063        0.004      341.958       17.031      862.688
09/11/2014  00:11:00     -130.847      -41.555       -4.208       30.536       31.360       19.546      932.466      983.462      382.065        1.058        0.115      137.287       13.349        0.009      341.914       16.958      862.700
09/11/2014  00:12:00     -134.733      -78.047      -13.726       42.440       35.102       21.610     1801.148     1232.140      466.974        1.397        0.175      155.706       24.020        0.024      341.952       17.023      862.690
09/11/2014  00:13:00     -139.384      -55.920       -8.371       34.396       24.094       17.889     1183.087      580.518      320.015        1.235        0.104      150.183        8.926        0.004      341.863       16.870      862.686
09/11/2014  00:14:00     -148.110      -42.897       -6.408       31.358       31.670       17.559      983.315     1002.971      308.330        1.306        0.115      154.197       15.728        0.010      341.794       16.754      862.683
09/11/2014  00:15:00     -147.331      -50.682       -8.879       32.609       35.383       18.929     1063.376     1251.941      358.303        1.351        0.134      155.804       17.020        0.012      341.717       16.624      862.671
09/11/2014  00:16:00     -132.037      -40.409        1.000       41.499       34.836       21.971     1722.187     1213.539      482.734        1.124        0.171      138.082       21.534        0.024      341.662       16.530      862.671
09/11/2014  00:17:00     -145.575      -47.290       -5.387       52.914       32.615       20.930     2799.861     1063.732      438.054        1.388        0.215      153.064       22.536        0.022      341.804       16.769      862.670
09/11/2014  00:18:00     -159.174      -75.652        0.822       36.697       28.199       20.433     1346.669      795.156      417.512        1.681        0.128      176.237       16.790        0.009      341.842       16.835      862.662
09/11/2014  00:19:00     -105.513      -47.431        5.141       56.495       38.387       25.082     3191.678     1473.595      629.109        0.935        0.265      115.683       25.963        0.050      341.746       16.674      862.665
09/11/2014  00:20:00     -135.373      -64.465      -15.604       22.296       30.725       17.024      497.120      944.050      289.833        1.223        0.087      149.938        8.232        0.003      341.844       16.839      862.677
09/11/2014  00:21:00     -106.484      -69.432       -9.536       22.573       30.917       17.955      509.549      955.855      322.371        0.902        0.089      127.121       13.174        0.011      341.820       16.797      862.665
09/11/2014  00:22:00     -117.928      -57.042       -0.399       33.719       28.106       20.553     1136.961      789.934      422.443        0.975        0.117      130.999       21.514        0.027      341.770       16.714      862.673
09/11/2014  00:23:00     -123.613      -40.702       -2.545       30.193       27.531       18.063      911.630      757.962      326.280        0.947        0.100      130.141       10.211        0.006      341.730       16.646      862.684
09/11/2014  00:24:00     -116.974      -37.659      -12.179       26.661       27.509       15.523      710.788      756.723      240.969        0.848        0.085      122.886       11.381        0.009      341.568       16.371      862.686
09/11/2014  00:25:00     -106.012       -4.889       -4.199       38.076       25.499       21.592     1449.792      650.186      466.194        0.692        0.128      106.125       20.615        0.038      341.521       16.290      862.676
09/11/2014  00:26:00     -101.975      -27.761       -1.228       32.414       18.581       14.534     1050.685      345.267      211.233        0.639        0.080      105.686       14.446        0.019      341.509       16.270      862.680
09/11/2014  00:27:00     -129.996      -56.901       -1.920       19.561       22.383       15.810      382.618      500.977      249.955        1.064        0.057      141.904       11.348        0.006      341.609       16.442      862.681
09/11/2014  00:28:00     -156.369      -57.241      -11.968       20.977       23.581       15.946      440.030      556.045      254.265        1.456        0.063      166.516       12.050        0.005      341.621       16.460      862.684
09/11/2014  00:29:00     -120.416      -54.989       -5.391       31.615       39.207       19.310      999.522     1537.150      372.883        1.023        0.145      132.377       16.773        0.016      341.538       16.322      862.689
09/11/2014  00:30:00     -103.523      -36.642       -3.511       24.005       19.777       14.058      576.235      391.118      197.623        0.662        0.058      109.817       11.041        0.010      341.462       16.191      862.679
09/11/2014  00:31:00      -93.531      -60.681       -7.801       26.607       22.273       14.838      707.949      496.073      220.171        0.696        0.071      111.491       10.592        0.009      341.561       16.359      862.678
09/11/2014  00:32:00      -81.462      -48.235        6.028       42.783       26.590       21.614     1830.425      707.005      467.164        0.600        0.150       94.671       19.354        0.042      341.544       16.329      862.693
09/11/2014  00:33:00      -46.957      -34.793        3.558       52.905       28.665       17.144     2798.959      821.672      293.909        0.367        0.196       58.442       19.640        0.113      341.527       16.301      862.691
09/11/2014  00:34:00      -59.638      -45.417        6.059       43.090       26.653       18.751     1856.767      710.392      351.600        0.429        0.146       74.963       18.331        0.060      341.487       16.232      862.694
09/11/2014  00:35:00      -58.165      -29.006        1.703       48.781       37.369       22.748     2379.577     1396.410      517.450        0.426        0.215       64.996       28.313        0.190      341.527       16.301      862.704
09/11/2014  00:36:00      -64.771      -59.262       -0.032       36.879       26.598       19.743     1360.052      707.449      389.767        0.508        0.123       87.791       16.909        0.037      341.645       16.502      862.706
09/11/2014  00:37:00      -83.021      -48.592       -1.196       27.052       16.652       12.950      731.835      277.282      167.694        0.522        0.059       96.196       10.502        0.012      341.612       16.447      862.709
09/11/2014  00:38:00      -60.221      -46.905       -1.176       33.021       24.989       23.830     1090.371      624.459      567.846        0.405        0.114       76.332       17.772        0.054      341.585       16.400      862.720
09/11/2014  00:39:00      -62.109      -48.669        1.219       42.354       29.183       17.856     1793.860      851.649      318.835        0.460        0.148       78.907       20.900        0.070      341.527       16.302      862.728
09/11/2014  00:40:00      -71.116      -41.092        4.714       40.384       26.812       19.336     1630.892      718.887      373.868        0.475        0.136       82.134       17.632        0.046      341.511       16.273      862.733
09/11/2014  00:41:00     -107.586      -42.087        2.802       33.037       29.011       18.166     1091.415      841.623      330.012        0.781        0.113      115.525       14.839        0.016      341.548       16.337      862.734
09/11/2014  00:42:00      -93.069      -40.062        2.446       32.780       28.483       15.748     1074.521      811.259      247.999        0.620        0.107      101.326       14.653        0.021      341.604       16.432      862.747
09/11/2014  00:43:00     -121.916      -61.339        2.277       22.497       22.214       14.922      506.099      493.468      222.652        0.993        0.061      136.477       10.834        0.006      341.691       16.579      862.743
09/11/2014  00:44:00      -17.995      -21.304       18.536       43.686       22.269       17.348     1908.487      495.925      300.937        0.191        0.135       27.887       20.968        0.565      341.549       16.339      862.751
09/11/2014  00:45:00      -44.825      -51.945        4.427       47.535       38.592       20.924     2259.615     1489.348      437.801        0.446        0.209       68.611       17.547        0.065      341.578       16.387      862.772
09/11/2014  00:46:00      -75.540      -81.019        3.823       41.297       43.072       25.682     1705.414     1855.231      659.577        0.825        0.211      110.771       30.003        0.073      341.631       16.478      862.774
09/11/2014  00:47:00     -108.752      -93.502       -6.490       40.170       37.732       24.993     1613.629     1423.717      624.632        1.214        0.183      143.421       18.212        0.016      341.639       16.490      862.778
09/11/2014  00:48:00     -115.411     -105.559       -9.182       31.133       32.466       21.401      969.281     1054.017      458.010        1.351        0.124      156.404       18.286        0.014      341.617       16.454      862.790
09/11/2014  00:49:00     -108.235      -75.317       -1.657       49.737       43.036       27.168     2473.729     1852.120      738.074        1.123        0.253      131.861       25.791        0.038      341.573       16.379      862.787
09/11/2014  00:50:00     -135.517      -79.276       -3.884       35.030       37.600       20.157     1227.077     1413.792      406.296        1.386        0.152      157.002       13.730        0.008      341.563       16.362      862.782
09/11/2014  00:51:00     -131.150      -65.449       -9.001       27.417       29.722       16.650      751.682      883.384      277.210        1.174        0.096      146.574        9.417        0.004      341.550       16.339      862.776
09/11/2014  00:52:00     -120.509      -35.731       -2.193       27.486       26.288       19.356      755.493      691.077      374.670        0.881        0.091      125.695       14.423        0.013      341.560       16.357      862.777
09/11/2014  00:53:00     -117.686      -53.895        1.748       40.415       29.278       20.611     1633.351      857.181      424.817        0.984        0.146      129.440       22.272        0.030      341.512       16.278      862.774
09/11/2014  00:54:00     -102.155       -6.025       -6.039       33.162       28.133       20.347     1099.747      791.450      413.999        0.641        0.115      102.332       18.767        0.034      341.364       16.025      862.764
09/11/2014  00:55:00     -105.995       -6.427       -4.206       45.325       35.624       26.036     2054.358     1269.054      677.849        0.765        0.200      106.190       26.584        0.063      341.247       15.827      862.764
09/11/2014  00:56:00      -68.068      -22.588        0.822       41.044       32.857       19.039     1684.571     1079.613      362.472        0.413        0.156       71.718       16.952        0.056      341.189       15.731      862.785
09/11/2014  00:57:00      -98.472      -29.820       -1.243       35.201       25.849       17.034     1239.085      668.175      290.142        0.639        0.110      102.888       18.218        0.031      341.247       15.828      862.789
09/11/2014  00:58:00     -124.129      -40.209      -14.029       11.840       12.257        9.280      140.191      150.237       86.122        0.880        0.019      130.479        7.164        0.003      341.292       15.904      862.788
09/11/2014  00:59:00     -114.955      -46.461       -9.523        9.861       13.238        9.499       97.248      175.239       90.225        0.791        0.018      123.989        4.505        0.001      341.375       16.044      862.808
09/11/2014  01:00:00      -70.109      -42.616       -2.067       28.256       13.340       10.437      798.420      177.962      108.925        0.391        0.054       82.045       12.300        0.022      341.351       16.004      862.819
09/11/2014  01:01:00      -81.743      -30.152       -8.001       13.078       16.719        8.632      171.029      279.518       74.504        0.409        0.026       87.127        6.506        0.006      341.336       15.979      862.825
09/11/2014  01:02:00      -88.895      -30.625       -8.094       16.119       19.157       13.544      259.818      366.973      183.427        0.486        0.041       94.023        9.194        0.010      341.409       16.102      862.831
09/11/2014  01:03:00      -94.505      -46.302        1.272       30.759       25.736       13.962      946.146      662.326      194.948        0.644        0.090      105.239       16.403        0.024      341.387       16.065      862.847
09/11/2014  01:04:00      -77.905      -58.181        1.072       30.555       24.279       17.030      933.593      589.472      290.036        0.563        0.091       97.233       10.578        0.012      341.410       16.103      862.867
09/11/2014  01:05:00      -50.153      -34.356        4.797       36.143       33.777       19.402     1306.316     1140.918      376.444        0.327        0.141       60.792       18.077        0.088      341.422       16.124      862.882
09/11/2014  01:06:00      -81.505      -38.291       -0.664       35.811       17.070       14.866     1282.423      291.394      221.005        0.495        0.090       90.051       11.292        0.016      341.308       15.931      862.894
09/11/2014  01:07:00      -54.310      -42.795        6.094       44.049       24.512       17.882     1940.282      600.856      319.777        0.384        0.143       69.145       20.435        0.087      341.234       15.806      862.911
09/11/2014  01:08:00      -11.120      -23.845       15.695       33.507       21.475       20.337     1122.751      461.165      413.580        0.147        0.100       26.310       21.645        0.677      341.242       15.820      862.920
09/11/2014  01:09:00      -70.130      -49.581        3.612       36.868       31.382       18.133     1359.218      984.809      328.792        0.503        0.134       85.886       20.590        0.057      341.302       15.920      862.921
09/11/2014  01:10:00      -86.111      -58.273       -5.048       29.967       17.750       14.549      898.020      315.052      211.679        0.613        0.071      103.975        8.095        0.006      341.341       15.985      862.929
09/11/2014  01:11:00      -87.515      -63.584        2.543       38.636       25.445       16.891     1492.716      647.457      285.300        0.707        0.121      108.174       13.931        0.017      341.328       15.963      862.944
09/11/2014  01:12:00      -83.237      -28.175       -3.046       23.624       16.253       14.747      558.087      264.158      217.487        0.439        0.052       87.876       12.854        0.021      341.323       15.956      862.939
09/11/2014  01:13:00      -44.374      -32.883        4.429       42.409       16.340       15.872     1798.508      267.004      251.934        0.269        0.116       55.230       21.289        0.149      341.379       16.051      862.933
09/11/2014  01:14:00      -16.968      -27.268        5.648       21.496       16.461       15.858      462.063      270.958      251.465        0.102        0.049       32.116       10.987        0.117      341.368       16.033      862.937
09/11/2014  01:15:00      -54.355      -24.439       -4.131       18.400       11.678       10.189      338.552      136.365      103.823        0.207        0.029       59.596       10.386        0.030      341.395       16.076      862.931
09/11/2014  01:16:00      -85.837      -17.734      -13.037        9.892       10.698        9.692       97.857      114.442       93.927        0.408        0.015       87.650        5.979        0.005      341.355       16.011      862.912
09/11/2014  01:17:00      -67.239      -28.297       -6.518       11.994       16.457        7.988      143.862      270.823       63.801        0.292        0.024       72.951        4.244        0.003      341.367       16.027      862.910
09/11/2014  01:18:00      -51.787      -18.087       -6.649        8.875        9.452        5.648       78.763       89.344       31.903        0.163        0.010       54.855        3.282        0.004      341.364       16.025      862.913
09/11/2014  01:19:00      -71.515      -28.737       -3.329       19.280       11.218        7.668      371.709      125.838       58.793        0.325        0.028       77.073        7.368        0.009      341.295       15.907      862.912
09/11/2014  01:20:00      -78.014      -32.089       -4.352       15.593       14.091        6.691      243.140      198.552       44.773        0.381        0.024       84.356        9.312        0.012      341.234       15.806      862.920
09/11/2014  01:21:00      -34.037      -12.693       -2.112       17.797        7.551        3.701      316.717       57.024       13.694        0.086        0.019       36.327        3.054        0.007      341.328       15.965      862.916
09/11/2014  01:22:00      -29.079      -13.980       -2.706       20.793       11.273        6.546      432.358      127.085       42.844        0.083        0.030       32.265        7.433        0.053      341.279       15.881      862.923
09/11/2014  01:23:00      -70.487      -16.524       -5.941        7.079        9.361        6.700       50.108       87.634       44.887        0.273        0.009       72.398        2.453        0.001      341.200       15.748      862.921
09/11/2014  01:24:00      -61.776      -26.221       -4.625        6.670        7.600        5.730       44.484       57.761       32.837        0.233        0.007       67.110        1.167        0.000      341.149       15.662      862.919
09/11/2014  01:25:00      -61.976      -11.412       -8.630        7.862        7.012        7.923       61.808       49.171       62.767        0.211        0.009       63.018        2.973        0.002      341.148       15.659      862.916
09/11/2014  01:26:00      -66.246       -2.865      -11.208        8.262        6.442        6.225       68.263       41.493       38.747        0.234        0.007       66.308        3.440        0.003      341.139       15.644      862.916
09/11/2014  01:27:00      -51.194       -9.679       -7.276        8.428        7.800        5.425       71.034       60.841       29.431        0.146        0.008       52.101        3.126        0.004      341.233       15.802      862.904
09/11/2014  01:28:00      -43.996      -13.355       -6.606        9.383       10.597        7.105       88.042      112.298       50.485        0.120        0.013       45.978        3.702        0.006      341.348       16.000      862.886
09/11/2014  01:29:00      -52.162      -21.074      -13.328        9.419        9.656        6.693       88.718       93.240       44.802        0.178        0.011       56.259        3.315        0.003      341.317       15.947      862.868
09/11/2014  01:30:00      -59.675      -23.737      -13.397        9.662        9.893        8.158       93.363       97.869       66.558        0.228        0.013       64.223        5.367        0.007      341.070       15.527      862.864
09/11/2014  01:31:00      -66.351      -14.488       -6.864       17.530       11.745        8.098      307.307      137.935       65.584        0.259        0.026       67.914        5.775        0.007      340.917       15.269      862.862
09/11/2014  01:32:00      -63.370      -14.646      -15.104       10.805       10.559        8.340      116.747      111.487       69.557        0.238        0.015       65.040        5.593        0.007      341.044       15.485      862.865
09/11/2014  01:33:00      -60.515      -16.628      -11.838        6.454       13.677        7.584       41.648      187.069       57.524        0.218        0.014       62.758        3.568        0.003      340.986       15.385      862.860
09/11/2014  01:34:00      -54.133      -29.125       -8.608       11.029       11.375       10.763      121.634      129.386      115.842        0.211        0.018       61.471        6.682        0.012      340.873       15.193      862.863
09/11/2014  01:35:00      -69.378      -28.139       -7.502        7.556        6.968        5.698       57.091       48.553       32.471        0.290        0.007       74.867        3.491        0.002      340.969       15.358      862.861
09/11/2014  01:36:00      -75.337      -30.073       -9.661       13.618        9.884        7.488      185.458       97.700       56.074        0.351        0.017       81.118        3.511        0.002      341.135       15.638      862.868
09/11/2014  01:37:00      -59.170      -23.744       -9.981       10.376       10.757        8.080      107.658      115.713       65.280        0.223        0.014       63.756        6.627        0.011      341.149       15.661      862.866
09/11/2014  01:38:00      -42.754      -11.175       -7.773       13.213        8.058        6.049      174.571       64.935       36.589        0.114        0.014       44.190        5.616        0.016      341.225       15.791      862.856
09/11/2014  01:39:00      -36.978      -13.113       -6.740        6.360        6.592        5.644       40.452       43.456       31.851        0.085        0.006       39.234        3.312        0.007      341.194       15.735      862.851
09/11/2014  01:40:00      -50.086      -17.922       -8.762        9.800        8.881        7.091       96.033       78.867       50.284        0.157        0.011       53.195        2.383        0.002      341.113       15.599      862.855
09/11/2014  01:41:00      -61.377       -8.814      -13.208        9.224       11.367        9.627       85.078      129.211       92.677        0.216        0.015       62.007        3.657        0.003      340.973       15.364      862.863
09/11/2014  01:42:00      -54.517       -4.559      -10.900       13.362       10.442        9.320      178.537      109.033       86.861        0.174        0.019       54.707        4.156        0.006      340.946       15.320      862.878
09/11/2014  01:43:00      -38.576       -7.189      -11.272        9.239       11.607        9.858       85.358      134.713       97.175        0.099        0.016       39.240        6.720        0.029      340.970       15.357      862.880
09/11/2014  01:44:00      -24.920      -16.203       -4.422        9.275        7.426        6.802       86.025       55.150       46.272        0.055        0.009       29.725        5.104        0.029      341.152       15.666      862.878
09/11/2014  01:45:00      -23.187      -13.681       -3.330       11.384        9.615        6.927      129.595       92.447       47.981        0.050        0.014       26.922        3.550        0.017      341.151       15.665      862.872
09/11/2014  01:46:00       -5.899       -8.001       -3.767        9.618        8.704        5.720       92.512       75.764       32.715        0.016        0.010        9.941        4.736        0.227      341.343       15.989      862.864
09/11/2014  01:47:00      -11.226       11.562       -3.133        7.286        6.576        6.089       53.090       43.242       37.077        0.020        0.007       16.115        2.703        0.028      341.331       15.971      862.857
09/11/2014  01:48:00       -9.511       32.763       -0.201       14.722       18.024        9.425      216.737      324.877       88.837        0.090        0.032       34.116       10.161        0.089      341.373       16.040      862.858
09/11/2014  01:49:00      -21.165       39.491       -3.634       12.902        8.157        4.347      166.458       66.542       18.897        0.114        0.013       44.805        3.291        0.005      341.516       16.283      862.860
09/11/2014  01:50:00      -23.721        4.493       -3.970       10.474       18.804        6.232      109.696      353.586       38.832        0.055        0.025       24.143        6.720        0.077      341.247       15.826      862.866
09/11/2014  01:51:00      -19.764      -20.613       -2.460       16.586       10.181       14.983      275.100      103.643      224.478        0.071        0.030       28.557       12.857        0.203      340.874       15.197      862.871
09/11/2014  01:52:00      -42.454      -27.184       -8.606       13.843        9.811        7.699      191.640       96.252       59.273        0.148        0.017       50.412        4.517        0.008      340.902       15.242      862.880
09/11/2014  01:53:00      -46.892      -21.935       -4.798       11.377       12.230        6.225      129.430      149.570       38.746        0.151        0.016       51.769        6.104        0.014      340.929       15.288      862.897
09/11/2014  01:54:00      -41.046       -8.160       -7.494        8.256        6.453        5.210       68.155       41.638       27.146        0.097        0.007       41.850        4.279        0.010      341.009       15.426      862.910
09/11/2014  01:55:00      -50.876      -19.945       -3.746        8.699        9.697        8.816       75.673       94.026       77.723        0.162        0.012       54.646        4.339        0.006      341.008       15.423      862.917
09/11/2014  01:56:00      -66.757      -17.234       -5.799       11.085        8.961        5.955      122.867       80.302       35.460        0.251        0.012       68.946        3.288        0.002      340.945       15.315      862.919
09/11/2014  01:57:00      -66.461      -17.891       -9.243        8.811        7.631        6.325       77.630       58.225       40.011        0.250        0.009       68.827        3.545        0.003      340.912       15.260      862.922
09/11/2014  01:58:00      -53.117      -20.614       -9.332        6.829        7.218        5.249       46.639       52.099       27.554        0.173        0.006       56.977        2.991        0.003      340.954       15.331      862.931
09/11/2014  01:59:00      -46.582      -24.692       -6.079        6.700        8.140        5.282       44.892       66.263       27.895        0.148        0.007       52.722        2.722        0.003      341.010       15.427      862.929
09/11/2014  02:00:00      -57.065      -17.298       -7.586       17.522        8.556        4.874      307.029       73.208       23.755        0.201        0.020       59.629        4.756        0.006      341.012       15.431      862.931
09/11/2014  02:01:00      -67.258      -22.270      -11.672       12.912       10.023        7.570      166.708      100.458       57.310        0.274        0.016       70.849        4.648        0.004      340.936       15.300      862.931
09/11/2014  02:02:00      -39.837      -19.187       -9.696       11.412       10.527        7.083      130.238      110.823       50.172        0.117        0.015       44.217        8.669        0.038      340.986       15.385      862.937
09/11/2014  02:03:00      -50.034      -38.167      -10.231       17.513       11.394        6.099      306.706      129.825       37.193        0.227        0.024       62.930        6.492        0.011      341.164       15.686      862.938
09/11/2014  02:04:00      -37.552      -42.072       -8.111       11.254       10.375        8.207      126.649      107.632       67.357        0.177        0.015       56.393        3.919        0.005      341.157       15.673      862.942
09/11/2014  02:05:00      -61.152      -23.429      -15.093       10.164       10.837       10.729      103.316      117.449      115.108        0.243        0.017       65.486        6.220        0.009      341.212       15.770      862.949
09/11/2014  02:06:00      -62.206      -16.233       -9.436        7.763        6.934        5.199       60.266       48.078       27.026        0.218        0.007       64.290        3.078        0.002      341.038       15.474      862.947
09/11/2014  02:07:00      -53.702      -11.746       -8.651        7.871        8.701        5.752       61.957       75.711       33.088        0.163        0.009       54.972        3.286        0.004      341.132       15.632      862.937
09/11/2014  02:08:00      -61.553       -2.271       -4.244        8.736        7.957        4.514       76.317       63.307       20.378        0.199        0.008       61.595        4.820        0.006      341.089       15.562      862.942
09/11/2014  02:09:00      -37.326      -23.760       -7.859        8.258        7.130        4.704       68.189       50.842       22.128        0.108        0.007       44.246        2.926        0.004      341.041       15.479      862.949
09/11/2014  02:10:00      -45.769      -18.299      -11.326        6.644        6.565        3.648       44.141       43.095       13.308        0.133        0.005       49.291        2.824        0.003      341.345       15.991      862.947
09/11/2014  02:11:00      -43.942       -3.432       -8.469        6.047        4.045        4.887       36.570       16.362       23.879        0.105        0.004       44.075        1.369        0.001      341.496       16.248      862.943
09/11/2014  02:12:00      -32.659       -7.011       -6.357        4.503        5.543        3.415       20.275       30.722       11.660        0.061        0.003       33.403        2.695        0.007      341.381       16.054      862.938
09/11/2014  02:13:00      -39.711      -11.354      -13.132        4.438        4.153        8.405       19.699       17.248       70.644        0.099        0.005       41.302        2.483        0.004      341.459       16.183      862.934
09/11/2014  02:14:00      -47.279      -13.252       -8.182        6.855        9.655        5.756       46.990       93.219       33.128        0.133        0.009       49.101        4.822        0.010      341.348       15.996      862.933
09/11/2014  02:15:00      -47.963      -36.041      -16.984       10.659       12.687        5.889      113.614      160.972       34.676        0.210        0.015       59.995        4.612        0.006      341.091       15.564      862.942
09/11/2014  02:16:00      -56.429      -32.487      -14.589       10.925       11.292        8.730      119.354      127.502       76.208        0.239        0.016       65.113        5.206        0.006      340.891       15.223      862.940
09/11/2014  02:17:00      -82.097      -37.026      -12.534       17.094       12.406        9.168      292.194      153.913       84.057        0.440        0.027       90.060        6.628        0.005      340.615       14.760      862.930
09/11/2014  02:18:00     -100.187      -19.526      -16.708       11.140       17.791        8.544      124.091      316.515       73.002        0.561        0.026      102.072        9.535        0.009      340.594       14.722      862.915
09/11/2014  02:19:00     -105.840      -17.862      -14.586       24.198       19.657       16.747      585.566      386.388      280.457        0.649        0.063      107.337       14.971        0.019      340.508       14.576      862.907
09/11/2014  02:20:00     -129.221       -4.502      -15.291       28.456       15.756       18.375      809.716      248.240      337.651        0.917        0.070      129.299       17.353        0.018      340.563       14.671      862.905
09/11/2014  02:21:00     -101.698      -17.238      -10.458       20.312       24.422       16.321      412.572      596.453      266.362        0.601        0.064      103.149       13.570        0.017      340.537       14.626      862.898
09/11/2014  02:22:00     -115.021      -20.497      -18.408       21.661       19.045       15.572      469.183      362.700      242.481        0.753        0.054      116.833       13.086        0.013      340.450       14.478      862.896
09/11/2014  02:23:00      -98.187      -65.321      -12.771       35.577       25.667       22.019     1265.750      658.783      484.824        0.824        0.120      117.930       21.229        0.032      340.433       14.451      862.893
09/11/2014  02:24:00      -93.333      -39.667       -3.323       47.848       37.833       27.741     2289.385     1431.337      769.552        0.739        0.225      101.413       26.009        0.066      340.421       14.429      862.896
09/11/2014  02:25:00      -39.091       -5.747        1.639       46.491       34.601       22.009     2161.368     1197.245      484.405        0.270        0.192       39.511       16.484        0.174      340.396       14.387      862.894
09/11/2014  02:26:00      -72.420       -6.158      -11.713       55.028       34.145       27.793     3028.104     1165.862      772.460        0.519        0.248       72.682       32.512        0.200      340.613       14.754      862.883
09/11/2014  02:27:00     -114.555      -16.759      -14.498       30.270       35.871       19.792      916.267     1286.748      391.711        0.810        0.130      115.774       13.898        0.014      340.631       14.786      862.880
09/11/2014  02:28:00     -102.747      -41.647       -5.643       24.823       30.706       16.086      616.190      942.879      258.767        0.707        0.091      110.867       10.343        0.009      340.535       14.624      862.887
09/11/2014  02:29:00     -112.902      -36.252       -4.724       41.469       32.765       20.215     1719.717     1073.545      408.633        0.864        0.160      118.579       20.224        0.029      340.478       14.526      862.874
09/11/2014  02:30:00      -92.157      -19.293       -6.203       30.742       30.329       17.088      945.085      919.877      291.998        0.553        0.108       94.155       13.006        0.019      340.485       14.538      862.869
09/11/2014  02:31:00      -59.812        1.186       -1.373       39.739       23.350       21.034     1579.213      545.239      442.434        0.307        0.128       59.823       19.692        0.108      340.540       14.631      862.870
09/11/2014  02:32:00     -101.890       40.805       -8.519       51.961       32.899       25.077     2699.928     1082.356      628.850        0.826        0.221      109.757       20.841        0.036      340.636       14.792      862.872
09/11/2014  02:33:00     -135.245       23.442      -12.327       47.648       33.213       19.623     2270.351     1103.092      385.070        1.138        0.188      137.262       11.600        0.007      340.695       14.892      862.865
09/11/2014  02:34:00     -169.734       29.434      -14.812       41.177       39.251       23.731     1695.562     1540.621      563.150        1.685        0.190      172.267       15.682        0.008      340.705       14.911      862.861
09/11/2014  02:35:00     -157.276       32.770      -12.209       45.619       38.266       29.982     2081.075     1464.257      898.908        1.520        0.222      160.654       17.765        0.012      340.629       14.781      862.869
09/11/2014  02:36:00     -131.435       -2.974      -19.324       29.426       46.697       24.121      865.890     2180.654      581.832        1.064        0.181      131.469       15.522        0.014      340.564       14.671      862.860
09/11/2014  02:37:00      -98.352      -31.874       -0.750       30.011       35.154       23.408      900.637     1235.790      547.917        0.669        0.134      103.388       16.825        0.026      340.426       14.439      862.869
09/11/2014  02:38:00      -64.985      -42.825       -5.311       57.594       25.487       19.777     3317.027      649.564      391.123        0.522        0.218       77.827       25.176        0.105      340.381       14.362      862.877
09/11/2014  02:39:00      -15.279      -19.286       10.580       22.228       22.496       18.258      494.069      506.048      333.365        0.103        0.067       24.605       13.228        0.289      340.385       14.369      862.871
09/11/2014  02:40:00      -70.269      -47.536       -5.251       37.127       30.450       20.229     1378.448      927.185      409.201        0.497        0.136       84.838       14.709        0.030      340.367       14.338      862.890
09/11/2014  02:41:00       -4.167      -27.646       13.117       24.741       19.926       19.029      612.122      397.045      362.107        0.116        0.069       27.959       16.880        0.364      340.367       14.340      862.893
09/11/2014  02:42:00      -54.352      -36.844        2.957       45.156       21.760       18.505     2039.080      473.485      342.426        0.359        0.143       65.663       22.758        0.120      340.426       14.438      862.890
09/11/2014  02:43:00     -114.892      -61.794       -2.568       35.564       21.582       18.569     1264.814      465.801      344.790        0.955        0.104      130.456       16.075        0.015      340.395       14.385      862.901
09/11/2014  02:44:00     -117.162      -61.702       -1.196       41.428       22.795       18.135     1716.257      519.633      328.891        1.005        0.128      132.417       11.983        0.008      340.475       14.520      862.911
09/11/2014  02:45:00      -59.291      -51.341        0.770       44.114       19.903       18.629     1946.009      396.116      347.027        0.442        0.134       78.431       13.424        0.029      340.546       14.642      862.912
09/11/2014  02:46:00      -62.785      -41.663       -2.019       24.111       16.015       14.734      581.359      256.469      217.105        0.337        0.053       75.351        3.212        0.002      340.565       14.672      862.931
09/11/2014  02:47:00      -54.040      -42.125       -4.215       40.703       28.210       19.844     1656.732      795.785      393.776        0.378        0.142       68.519       19.266        0.079      340.502       14.566      862.926
09/11/2014  02:48:00      -81.369      -35.162       -4.315       29.182       25.298       16.846      851.610      639.985      283.792        0.483        0.089       88.642       12.116        0.019      340.438       14.459      862.924
09/11/2014  02:49:00     -114.509      -38.423       -0.948       23.268       16.497       11.983      541.386      272.147      143.594        0.777        0.048      120.784       12.116        0.010      340.364       14.333      862.932
09/11/2014  02:50:00     -116.299      -60.462       -5.756       20.845       18.575       14.379      434.532      345.047      206.751        0.910        0.049      131.076        5.250        0.002      340.330       14.275      862.921
09/11/2014  02:51:00     -108.409      -67.947       -2.853       25.052       21.387       16.363      627.588      457.396      267.746        0.886        0.068      127.942       13.943        0.012      340.289       14.205      862.908
09/11/2014  02:52:00      -87.684      -57.732        3.100       43.614       26.579       20.106     1902.171      706.420      404.244        0.702        0.151      104.983       22.275        0.045      340.380       14.360      862.902
09/11/2014  02:53:00     -108.216      -59.236        6.685       34.222       29.937       21.577     1171.141      896.203      465.550        0.890        0.127      123.368       18.161        0.022      340.392       14.381      862.888
09/11/2014  02:54:00      -99.390      -63.176        5.370       42.973       29.125       25.309     1846.667      848.269      640.550        0.862        0.167      117.769       24.130        0.042      340.497       14.558      862.882
09/11/2014  02:55:00      -97.892      -53.793        2.894       38.961       25.780       20.863     1517.966      664.621      435.271        0.755        0.131      111.699       23.696        0.045      340.550       14.647      862.888
09/11/2014  02:56:00     -112.699      -47.595        0.808       30.528       20.294       16.146      931.929      411.865      260.705        0.829        0.080      122.337       12.510        0.010      340.441       14.462      862.883
09/11/2014  02:57:00      -74.977      -23.485        2.558       32.386       34.172       18.035     1048.830     1167.710      325.266        0.436        0.127       78.569       15.382        0.038      340.338       14.289      862.886
09/11/2014  02:58:00      -78.841      -10.920        2.021       31.300       26.914       18.362      979.711      724.339      337.162        0.419        0.102       79.594       18.257        0.053      340.304       14.232      862.899
09/11/2014  02:59:00      -63.641      -13.154        6.607       39.327       22.834       18.999     1546.629      521.372      360.977        0.335        0.121       64.986       20.941        0.104      340.181       14.024      862.910
09/11/2014  03:00:00      -66.733       -9.877        5.465       33.851       27.206       19.476     1145.920      740.183      379.306        0.342        0.113       67.460       18.027        0.071      340.162       13.993      862.917
09/11/2014  03:01:00      -79.930      -14.219        3.087       41.563       25.365       19.168     1727.462      643.369      367.416        0.467        0.137       81.184       21.668        0.071      340.216       14.083      862.917
09/11/2014  03:02:00      -95.223      -15.862       -1.438       41.522       27.169       19.667     1724.058      738.151      386.779        0.608        0.142       96.535       19.237        0.040      340.242       14.127      862.924
09/11/2014  03:03:00      -96.838      -29.387       -0.821       36.076       22.231       17.216     1301.499      494.237      296.402        0.617        0.105      101.199       18.879        0.035      340.200       14.055      862.914
09/11/2014  03:04:00     -115.741      -40.104      -10.838       25.144       18.504       14.710      632.246      342.380      216.371        0.816        0.060      122.492       10.202        0.007      340.182       14.026      862.906
09/11/2014  03:05:00     -127.751      -66.409       -9.831       21.353       24.432       17.166      455.951      596.946      294.661        1.109        0.067      143.981       10.682        0.006      340.108       13.901      862.907
09/11/2014  03:06:00     -141.509      -71.155       -2.249       36.659       26.524       19.521     1343.903      703.528      381.083        1.376        0.121      158.391       17.929        0.013      340.038       13.783      862.911
09/11/2014  03:07:00     -135.458      -62.888       -5.051       29.926       26.438       19.887      895.542      698.994      395.510        1.216        0.100      149.344       18.106        0.015      340.177       14.018      862.907
09/11/2014  03:08:00     -127.582      -51.236      -10.825       29.205       35.171       19.051      852.928     1236.986      362.934        1.074        0.123      137.485       15.948        0.013      340.105       13.896      862.903
09/11/2014  03:09:00     -152.106      -70.932       -6.685       18.347       22.713       15.563      336.615      515.885      242.198        1.465        0.055      167.832        8.710        0.003      340.067       13.832      862.912
09/11/2014  03:10:00     -136.674      -56.213       -6.020       24.669       18.456       16.726      608.548      340.612      279.747        1.155        0.061      147.783       13.569        0.008      340.060       13.819      862.910
09/11/2014  03:11:00      -73.011       -8.321       -6.645       36.666       26.286       19.290     1344.376      690.939      372.102        0.393        0.120       73.484       19.217        0.068      340.012       13.739      862.896
09/11/2014  03:12:00     -102.448      -11.528       -1.864       34.473       23.202       16.437     1188.418      538.317      270.181        0.631        0.100      103.095       16.855        0.027      340.121       13.924      862.893
09/11/2014  03:13:00      -94.160      -20.518       -7.478       30.826       22.378       19.472      950.221      500.781      379.151        0.559        0.092       96.370       18.692        0.038      340.086       13.864      862.896
09/11/2014  03:14:00     -111.730      -59.266       -9.355       18.719       23.121       14.381      350.406      534.585      206.800        0.859        0.055      126.475       11.861        0.009      340.078       13.851      862.890
09/11/2014  03:15:00     -123.154      -51.121       -7.867       28.595       23.220       15.100      817.697      539.174      228.017        0.971        0.079      133.342        9.323        0.005      340.049       13.802      862.890
09/11/2014  03:16:00      -60.906      -30.939       -1.485       37.867       29.297       17.011     1433.936      858.307      289.376        0.362        0.129       68.313       20.152        0.087      340.028       13.765      862.899
09/11/2014  03:17:00      -97.128      -11.632       -8.124       39.458       32.295       22.089     1556.935     1042.986      487.936        0.636        0.154       97.822       22.753        0.054      340.045       13.795      862.917
09/11/2014  03:18:00     -102.529      -38.558       -7.950       31.531       39.386       19.968      994.183     1551.267      398.715        0.750        0.147      109.540       18.470        0.028      339.993       13.707      862.923
09/11/2014  03:19:00      -64.297       -5.449       -5.034       38.394       26.125       17.827     1474.100      682.494      317.805        0.333        0.124       64.528       16.291        0.064      339.998       13.716      862.922
09/11/2014  03:20:00      -64.252      -33.880       -4.897       38.445       22.883       26.077     1478.019      523.653      680.035        0.399        0.134       72.638       16.501        0.052      340.113       13.910      862.927
09/11/2014  03:21:00      -93.500      -43.445       -0.398       34.213       28.374       24.531     1170.558      805.100      601.761        0.660        0.129      103.100       17.128        0.028      340.039       13.784      862.915
09/11/2014  03:22:00      -75.545      -29.274       -7.419       22.162       27.258       15.385      491.174      743.011      236.700        0.404        0.074       81.019       10.856        0.018      340.065       13.828      862.896
09/11/2014  03:23:00      -60.833      -30.738       -4.239       35.297       21.530       21.063     1245.858      463.551      443.635        0.341        0.108       68.158       15.765        0.054      340.050       13.803      862.895
09/11/2014  03:24:00       -7.858       13.920       11.611       15.870       12.973       12.260      251.843      168.288      150.302        0.048        0.029       15.985        6.843        0.183      339.999       13.718      862.905
09/11/2014  03:25:00      -19.347      -21.236        0.616       26.822       25.160       20.840      719.437      633.007      434.322        0.131        0.089       28.728       20.117        0.490      339.955       13.642      862.897
09/11/2014  03:26:00      -81.072      -47.988      -10.788       29.135       19.878       15.855      848.845      395.118      251.373        0.524        0.075       94.210       13.755        0.021      340.014       13.744      862.885
09/11/2014  03:27:00      -71.572      -40.320       -1.019       29.001       27.941       15.067      841.032      780.688      227.020        0.430        0.092       82.148        9.580        0.014      339.932       13.605      862.886
09/11/2014  03:28:00      -87.246      -33.922       -9.190       37.961       26.633       15.761     1441.024      709.322      248.417        0.562        0.120       93.609       17.839        0.036      340.011       13.737      862.886
09/11/2014  03:29:00      -58.254      -44.608       -4.449       62.511       24.306       24.438     3907.592      590.761      597.225        0.525        0.255       73.371       26.517        0.131      340.022       13.756      862.882
09/11/2014  03:30:00      -53.138      -46.887       -8.234       32.290       14.322       10.320     1042.668      205.128      106.508        0.322        0.068       70.867        7.875        0.012      340.130       13.939      862.885
09/11/2014  03:31:00      -47.652      -45.239       -5.430       23.364       18.779       14.972      545.870      352.664      224.167        0.273        0.056       65.706       14.108        0.046      340.196       14.049      862.890
09/11/2014  03:32:00      -98.075      -48.905       -9.087       29.951       24.123       13.346      897.076      581.933      178.119        0.687        0.083      109.592       11.105        0.010      340.219       14.088      862.890
09/11/2014  03:33:00      -67.513      -43.045       -4.779       15.934       13.244       10.199      253.877      175.394      104.029        0.348        0.027       80.067        9.852        0.015      340.339       14.291      862.890
09/11/2014  03:34:00      -69.438      -56.441       -2.737       43.093       35.901       21.664     1856.994     1288.894      469.340        0.581        0.181       89.483       23.289        0.068      340.157       13.983      862.900
09/11/2014  03:35:00     -122.863      -58.008       -0.573       23.650       18.699       15.749      559.319      349.670      248.035        0.981        0.058      135.868       14.333        0.011      340.078       13.851      862.904
09/11/2014  03:36:00      -74.507      -43.313        0.184       34.787       27.432       18.686     1210.128      752.523      349.163        0.487        0.116       86.181       17.127        0.039      339.995       13.710      862.907
09/11/2014  03:37:00      -55.619      -46.555        3.669       38.677       23.104       18.924     1495.908      533.801      358.121        0.383        0.119       72.532       19.766        0.074      340.003       13.725      862.907
09/11/2014  03:38:00      -77.880      -63.326       -1.439       37.381       37.045       21.888     1397.372     1372.344      479.102        0.666        0.162      100.376       21.107        0.044      340.015       13.744      862.915
09/11/2014  03:39:00      -95.172      -50.906       -5.238       23.849       22.536       14.359      568.794      507.857      206.186        0.648        0.064      107.931       11.266        0.011      340.144       13.962      862.918
09/11/2014  03:40:00     -106.083      -45.951        0.686       27.607       31.788       19.402      762.163     1010.500      376.435        0.776        0.107      115.607       15.550        0.018      340.275       14.183      862.914
09/11/2014  03:41:00     -108.376      -35.376      -11.170       23.137       20.747       14.727      535.342      430.456      216.872        0.715        0.059      114.004        9.231        0.007      340.325       14.268      862.915
09/11/2014  03:42:00     -105.757      -33.649       -8.090       15.682       18.849       13.801      245.926      355.275      190.474        0.659        0.040      110.981        9.282        0.007      340.385       14.369      862.927
09/11/2014  03:43:00     -110.386      -23.927       -5.629       16.911       14.490       15.294      285.980      209.970      233.892        0.676        0.036      112.949       11.784        0.011      340.350       14.310      862.936
09/11/2014  03:44:00     -101.418      -30.900       -3.154       11.546       17.382       13.152      133.307      302.135      172.988        0.593        0.030      106.020        8.989        0.007      340.425       14.437      862.932
09/11/2014  03:45:00     -107.040      -10.422      -10.017       16.946       17.425       11.627      287.164      303.624      135.178        0.620        0.036      107.546        7.046        0.004      340.410       14.411      862.931
09/11/2014  03:46:00      -69.908       -9.002       -3.227       26.391       23.773       16.777      696.480      565.152      281.453        0.326        0.077       70.485       16.001        0.052      340.306       14.236      862.944
09/11/2014  03:47:00      -83.270      -22.101       -1.498       23.449       23.543       13.684      549.855      554.267      187.242        0.436        0.065       86.153        9.878        0.013      340.107       13.899      862.957
09/11/2014  03:48:00     -119.460      -53.853      -10.326       19.520       25.438       13.063      381.021      647.082      170.654        0.924        0.060      131.038        8.474        0.004      340.200       14.056      862.961
09/11/2014  03:49:00     -127.621      -46.576       -8.537       20.364       20.451       11.027      414.697      418.254      121.587        0.974        0.048      135.854        6.441        0.002      340.137       13.951      862.959
09/11/2014  03:50:00     -127.744      -23.352      -12.938       23.371       21.588       16.220      546.204      466.037      263.098        0.915        0.064      129.861       13.468        0.011      340.101       13.890      862.970
09/11/2014  03:51:00      -66.746       -6.934       -0.391       38.245       28.513       22.834     1462.690      812.970      521.401        0.365        0.140       67.105       20.865        0.097      340.016       13.745      862.990
09/11/2014  03:52:00      -70.136        1.999       -0.309       42.493       29.804       18.837     1805.625      888.260      354.850        0.399        0.152       70.164       21.615        0.095      339.942       13.621      862.989
09/11/2014  03:53:00      -87.992      -38.963        2.661       27.381       22.164       15.643      749.733      491.229      244.699        0.538        0.074       96.233        7.211        0.006      339.888       13.530      862.982
09/11/2014  03:54:00      -73.468      -26.506      -10.160       31.460       31.528       19.894      989.721      993.999      395.758        0.429        0.119       78.103       20.459        0.069      339.901       13.552      862.970
09/11/2014  03:55:00      -90.182      -43.571      -13.637       41.557       27.046       21.612     1726.949      731.465      467.089        0.657        0.146      100.155       15.020        0.022      339.913       13.572      862.958
09/11/2014  03:56:00     -114.070      -59.478      -15.998       22.945       28.685       17.521      526.481      822.819      306.979        0.923        0.083      128.645       13.013        0.010      339.840       13.450      862.959
09/11/2014  03:57:00     -120.725      -24.289      -16.368       18.388       23.782       17.510      338.114      565.560      306.591        0.832        0.061      123.144        8.591        0.005      339.830       13.432      862.969
09/11/2014  03:58:00     -119.892      -36.590       -7.736       30.643       23.853       15.741      938.974      568.955      247.785        0.876        0.088      125.351        9.359        0.006      339.820       13.415      862.968
09/11/2014  03:59:00     -127.270      -56.963       -9.958       32.006       37.007       24.272     1024.380     1369.542      589.142        1.126        0.149      139.436       19.126        0.019      339.733       13.269      862.963
09/11/2014  04:00:00     -148.668      -49.813      -15.372       37.759       42.016       21.975     1425.709     1765.343      482.896        1.425        0.184      156.792       18.161        0.013      339.724       13.254      862.970
09/11/2014  04:01:00     -120.015      -37.932        3.104       37.617       35.954       22.880     1415.040     1292.678      523.477        0.954        0.162      125.867       17.571        0.019      339.743       13.286      862.988
09/11/2014  04:02:00     -111.790      -49.149       -4.499       27.384       27.389       19.161      749.878      750.148      367.130        0.840        0.093      122.117       12.333        0.010      339.715       13.240      862.980
09/11/2014  04:03:00     -100.412       -4.248      -11.336       37.080       39.961       23.717     1374.951     1596.879      562.503        0.688        0.177      100.502       20.587        0.042      339.696       13.205      862.974
09/11/2014  04:04:00      -28.544       36.081        0.139       38.537       28.686       18.604     1485.105      822.860      346.122        0.238        0.133       46.006       18.081        0.154      339.851       13.467      862.957
09/11/2014  04:05:00       -9.226       63.212       -5.941       11.885       16.768        8.050      141.250      281.155       64.800        0.230        0.024       63.882        7.597        0.014      340.631       14.785      862.945
09/11/2014  04:06:00      -35.031       30.070       -1.847       17.375       26.839       10.404      301.883      720.355      108.236        0.163        0.057       46.167        7.223        0.024      340.703       14.905      862.954
09/11/2014  04:07:00      -61.865      -28.068       -4.051       29.929       17.630       12.356      895.728      310.825      152.681        0.300        0.068       67.934       12.391        0.033      339.975       13.678      862.969
09/11/2014  04:08:00       -7.071      -23.565        3.291       32.287       21.238       11.583     1042.439      451.042      134.163        0.112        0.081       24.603       13.638        0.307      339.867       13.496      862.982
09/11/2014  04:09:00        1.081      -19.816       -3.123       24.288       22.014       14.622      589.919      484.617      213.799        0.085        0.064       19.846       10.727        0.292      339.923       13.589      862.991
09/11/2014  04:10:00      -31.895      -34.411        2.036       42.928       11.990       15.850     1842.803      143.749      251.227        0.222        0.112       46.919       21.343        0.207      339.951       13.636      862.993
09/11/2014  04:11:00     -110.729      -42.118      -13.252       14.175       14.856        9.869      200.940      220.713       97.400        0.736        0.026      118.469        5.963        0.003      340.036       13.778      862.987
09/11/2014  04:12:00     -121.048      -48.410      -10.734       15.887       17.302       11.013      252.388      299.359      121.277        0.889        0.034      130.370        8.414        0.004      340.040       13.787      862.985
09/11/2014  04:13:00      -68.638      -40.949        3.228       25.438       19.460       16.012      647.072      378.675      256.375        0.384        0.064       79.925       11.113        0.019      339.996       13.713      862.993
09/11/2014  04:14:00      -58.772      -19.533       -3.129       22.134       19.318        9.564      489.913      373.197       91.468        0.240        0.048       61.933        2.419        0.002      339.979       13.682      862.980
09/11/2014  04:15:00      -25.884      -23.592       -0.004       15.857       13.357        9.012      251.432      178.419       81.213        0.087        0.026       35.023        8.387        0.057      340.133       13.943      862.974
09/11/2014  04:16:00      -58.392      -27.585        1.189       36.525       19.700       13.805     1334.078      388.106      190.585        0.304        0.096       64.580       12.810        0.039      339.987       13.698      862.988
09/11/2014  04:17:00      -84.627      -40.042       -4.229       31.567       18.456       10.815      996.460      340.620      116.965        0.512        0.073       93.622        4.506        0.002      339.933       13.606      863.009
09/11/2014  04:18:00     -115.970      -41.288       -5.262       20.009       18.079       13.465      400.355      326.844      181.304        0.804        0.045      123.101       10.195        0.007      339.844       13.456      863.012
09/11/2014  04:19:00      -85.059      -29.793       -4.972       21.044       20.292       10.486      442.833      411.785      109.962        0.456        0.048       90.126        9.877        0.012      339.832       13.435      863.018
09/11/2014  04:20:00     -107.845      -20.378      -11.672       28.500       15.475       16.817      812.270      239.466      282.828        0.676        0.067      109.753       15.652        0.020      339.848       13.462      863.013
09/11/2014  04:21:00     -122.772      -35.597       -6.932       19.074       20.015       11.370      363.817      400.615      129.276        0.864        0.045      127.828        6.277        0.002      339.864       13.490      863.020
09/11/2014  04:22:00     -113.743      -10.762       -9.233       20.160       25.295       11.916      406.440      639.821      141.994        0.716        0.059      114.251       10.022        0.008      339.912       13.573      863.022
09/11/2014  04:23:00      -88.878        0.809       -6.549       45.037       21.300       17.859     2028.306      453.690      318.953        0.537        0.140       88.881       22.759        0.066      339.870       13.499      863.028
09/11/2014  04:24:00      -17.143      -12.361        5.962       30.783       20.744       17.400      947.579      430.300      302.777        0.108        0.084       21.135       19.221        0.827      339.801       13.385      863.026
09/11/2014  04:25:00      -82.500      -43.246       -7.919       38.356       24.840       17.614     1471.193      617.004      310.265        0.557        0.120       93.148       11.564        0.015      339.729       13.261      863.036
09/11/2014  04:26:00     -120.841      -42.481      -11.433       18.405       18.210       10.151      338.738      331.587      103.039        0.866        0.039      128.091        5.404        0.002      339.710       13.231      863.055
09/11/2014  04:27:00      -69.773       -4.372       -5.245       26.213       19.960       15.297      687.130      398.416      234.012        0.312        0.066       69.910       12.830        0.034      339.703       13.218      863.061
09/11/2014  04:28:00     -102.114        5.616       -7.140       21.285       17.919       14.230      453.046      321.099      202.485        0.574        0.049      102.269        8.801        0.007      339.782       13.350      863.057
09/11/2014  04:29:00      -75.148      -18.104       -8.210       29.336       20.391       14.786      860.587      415.796      218.631        0.377        0.075       77.298        9.769        0.016      339.771       13.334      863.073
09/11/2014  04:30:00      -98.443      -49.368       -1.369       27.134       37.137       15.471      736.258     1379.141      239.346        0.724        0.118      110.129       11.741        0.011      339.798       13.380      863.093
09/11/2014  04:31:00     -128.711      -51.199       -6.908       23.442       21.054       12.746      549.521      443.272      162.451        1.020        0.058      138.520       11.521        0.007      339.789       13.364      863.098
09/11/2014  04:32:00      -52.977      -26.213        0.854       25.987       13.743       13.230      675.337      188.858      175.031        0.227        0.052       59.107       14.027        0.056      339.795       13.373      863.095
09/11/2014  04:33:00      -88.876      -40.934       -8.013       19.205       16.626       11.467      368.825      276.429      131.503        0.521        0.039       97.850        9.973        0.010      340.019       13.752      863.093
09/11/2014  04:34:00     -103.365      -37.306       -8.942       17.620       15.829        9.100      310.474      250.545       82.814        0.640        0.032      109.891        6.750        0.004      340.022       13.758      863.096
09/11/2014  04:35:00     -104.940       -5.666      -11.980       16.513       17.375       12.708      272.666      301.884      161.488        0.596        0.037      105.092        7.676        0.005      339.972       13.671      863.094
09/11/2014  04:36:00      -57.991      -34.742        0.050       24.663       16.337       13.319      608.258      266.890      177.389        0.281        0.053       67.602        6.895        0.010      340.024       13.759      863.092
09/11/2014  04:37:00      -59.047      -31.200        3.166       30.617       25.465       12.130      937.409      648.470      147.140        0.310        0.087       66.783       14.689        0.048      340.007       13.731      863.087
09/11/2014  04:38:00      -88.775      -28.656       -2.428       27.846       23.416       12.900      775.406      548.314      166.402        0.510        0.075       93.286       12.830        0.019      339.941       13.618      863.086
09/11/2014  04:39:00      -85.835      -47.324       -5.270       16.025       22.597        7.584      256.801      510.626       57.515        0.523        0.041       98.016        4.713        0.002      339.910       13.568      863.071
09/11/2014  04:40:00      -97.998       -2.316       -9.445       32.548       14.206       13.007     1059.397      201.799      169.172        0.556        0.072       98.025       12.922        0.017      339.882       13.520      863.064
09/11/2014  04:41:00     -137.346        5.788      -21.040       20.779       10.194       10.064      431.776      103.916      101.275        0.999        0.032      137.467        9.006        0.004      339.736       13.275      863.079
09/11/2014  04:42:00      -68.847       -8.273      -10.077       32.624       20.924       14.475     1064.354      437.831      209.513        0.331        0.086       69.342       15.553        0.050      339.642       13.115      863.074
09/11/2014  04:43:00      -87.241       -2.929       -7.931       21.806       14.910       11.339      475.510      222.309      128.583        0.425        0.041       87.290        8.412        0.009      339.780       13.347      863.067
09/11/2014  04:44:00     -100.022      -31.062      -12.470       35.925       32.177       15.434     1290.602     1035.339      238.212        0.684        0.128      104.735        8.410        0.006      339.676       13.173      863.064
09/11/2014  04:45:00     -131.442      -36.362      -13.114       20.818       23.107       16.594      433.409      533.911      275.345        1.001        0.062      136.379       10.472        0.006      339.640       13.114      863.058
09/11/2014  04:46:00      -80.253      -41.319       -8.032       28.252       24.580       14.546      798.178      604.197      211.587        0.491        0.081       90.265       10.512        0.014      339.623       13.084      863.060
09/11/2014  04:47:00      -63.547       -7.860      -10.883       24.540       24.441       10.202      602.214      597.379      104.081        0.276        0.065       64.031       13.054        0.042      339.606       13.055      863.067
09/11/2014  04:48:00      -72.843      -11.029      -16.785       15.639       18.464       12.513      244.590      340.916      156.570        0.323        0.037       73.673       10.269        0.019      339.683       13.184      863.066
09/11/2014  04:49:00      -95.822      -35.283      -11.625       17.079       20.093       11.697      291.678      403.726      136.823        0.570        0.042      102.112        8.860        0.008      339.559       12.974      863.076
09/11/2014  04:50:00      -64.324      -39.454       -6.985       17.726       21.394       12.935      314.222      457.723      167.306        0.334        0.047       75.460        8.236        0.012      339.563       12.982      863.072
09/11/2014  04:51:00      -44.613       -1.373      -20.395       13.160       11.450       10.599      173.188      131.103      112.343        0.141        0.021       44.634        6.835        0.023      339.827       13.427      863.070
09/11/2014  04:52:00      -66.130      -22.868      -11.039       27.903       17.996       11.688      778.578      323.847      136.617        0.313        0.062       69.972        9.286        0.018      339.646       13.123      863.091
09/11/2014  04:53:00      -73.582      -30.254      -18.143       20.144       17.680       13.294      405.777      312.576      176.732        0.378        0.045       79.559        7.445        0.009      339.607       13.056      863.097
09/11/2014  04:54:00      -34.202       -8.486      -10.146       14.140       14.202       10.566      199.944      201.696      111.638        0.093        0.026       35.239        9.201        0.068      339.654       13.135      863.094
09/11/2014  04:55:00      -58.476      -25.561      -16.115       22.391       10.953        9.477      501.343      119.976       89.813        0.252        0.036       63.819        5.971        0.009      339.766       13.324      863.095
09/11/2014  04:56:00      -89.674      -31.568      -19.281       18.263       16.991       11.636      333.534      288.699      135.395        0.508        0.038       95.069        7.515        0.006      339.618       13.076      863.110
09/11/2014  04:57:00      -87.753       -6.756      -23.381       17.719       24.468       12.666      313.956      598.682      160.422        0.468        0.054       88.013       12.244        0.019      339.708       13.228      863.119
09/11/2014  04:58:00      -53.313       -5.255      -21.666       15.977       21.050       11.794      255.252      443.097      139.099        0.209        0.042       53.572        9.775        0.033      339.730       13.265      863.121
09/11/2014  04:59:00      -48.576      -16.004      -14.884       15.585       13.976       10.056      242.901      195.342      101.133        0.169        0.027       51.145        4.219        0.007      339.855       13.474      863.123
09/11/2014  05:00:00      -77.694      -17.174      -15.574       19.068       18.719       10.549      363.602      350.395      111.286        0.370        0.041       79.569        8.749        0.012      339.639       13.109      863.130
09/11/2014  05:01:00      -70.022      -26.105      -11.895       16.052       20.858       12.441      257.680      435.058      154.781        0.329        0.042       74.730       11.388        0.023      339.598       13.041      863.137
09/11/2014  05:02:00      -84.989      -13.664      -15.863       11.806       15.765        8.150      139.373      248.543       66.430        0.406        0.023       86.080        6.153        0.005      339.613       13.067      863.141
09/11/2014  05:03:00      -62.341      -10.922      -10.200       13.378       20.549       16.291      178.967      422.241      265.397        0.249        0.043       63.290       10.793        0.029      339.579       13.009      863.156
09/11/2014  05:04:00      -70.677       23.555      -12.423       18.581       15.516        9.201      345.260      240.755       84.665        0.319        0.034       74.499        6.479        0.008      339.875       13.509      863.163
09/11/2014  05:05:00      -41.644       26.915       -4.652       10.913        8.909        6.413      119.104       79.378       41.128        0.136        0.012       49.584        4.962        0.010      340.253       14.146      863.159
09/11/2014  05:06:00      -33.266      -19.612      -10.146       17.069       23.331       13.499      291.335      544.340      182.218        0.131        0.051       38.617       14.485        0.141      339.945       13.627      863.168
09/11/2014  05:07:00      -86.690      -36.404       -9.740       24.118       22.928       12.038      581.655      525.703      144.915        0.509        0.063       94.023        7.858        0.007      339.595       13.036      863.196
09/11/2014  05:08:00      -75.454      -30.062      -11.922       16.817       16.464       11.400      282.807      271.054      129.955        0.371        0.034       81.222        9.849        0.015      339.529       12.925      863.203
09/11/2014  05:09:00      -54.275      -10.625       -7.487       12.879       14.097       10.737      165.877      198.731      115.288        0.180        0.024       55.306        6.294        0.013      339.718       13.244      863.210
09/11/2014  05:10:00      -62.060      -16.805      -10.540        7.690        7.774        7.121       59.138       60.433       50.715        0.221        0.009       64.295        2.898        0.002      339.768       13.329      863.213
09/11/2014  05:11:00      -37.589      -13.861       -6.546       13.615        7.305        4.660      185.380       53.368       21.716        0.095        0.013       40.063        4.153        0.011      339.978       13.682      863.221
09/11/2014  05:12:00      -21.339      -15.694       -4.876       10.059       13.640        9.078      101.190      186.059       82.407        0.055        0.018       26.489        5.571        0.044      340.018       13.750      863.232
09/11/2014  05:13:00       -9.038      -20.309       -2.519       11.977       11.550       15.080      143.445      133.410      227.417        0.050        0.025       22.229        7.359        0.110      339.695       13.205      863.241
09/11/2014  05:14:00      -49.649      -35.533       -6.046       21.737       13.141       12.262      472.492      172.682      150.347        0.228        0.040       61.054       12.162        0.040      339.604       13.051      863.240
09/11/2014  05:15:00      -94.576      -29.601       -9.185       12.942       13.613        7.902      167.493      185.304       62.442        0.516        0.021       99.100        5.270        0.003      339.590       13.028      863.241
09/11/2014  05:16:00     -103.353      -23.000      -16.737       10.488       12.582        9.640      109.991      158.298       92.927        0.593        0.018      105.882        4.234        0.002      339.639       13.111      863.232
09/11/2014  05:17:00     -112.902      -33.341       -9.672       10.738        8.232        7.307      115.310       67.762       53.385        0.709        0.012      117.722        3.871        0.001      339.684       13.187      863.232
09/11/2014  05:18:00      -97.164      -30.344      -14.081       13.257        9.934        7.422      175.749       98.689       55.080        0.544        0.016      101.792        4.341        0.002      339.769       13.331      863.231
09/11/2014  05:19:00      -80.035      -30.582      -13.538        9.728       14.345        8.163       94.625      205.769       66.640        0.395        0.018       85.679        8.284        0.009      339.678       13.177      863.220
09/11/2014  05:20:00      -76.270      -39.237      -11.062        8.801        8.197        8.016       77.464       67.186       64.254        0.384        0.010       85.771        4.701        0.003      339.760       13.315      863.218
09/11/2014  05:21:00      -80.474      -36.165       -9.980       11.975       12.852        7.794      143.396      165.171       60.746        0.413        0.018       88.227        4.819        0.003      339.705       13.222      863.216
09/11/2014  05:22:00      -69.837      -33.868       -4.934        8.739        9.077        7.023       76.370       82.384       49.321        0.313        0.010       77.616        3.289        0.002      339.668       13.159      863.221
09/11/2014  05:23:00      -60.275      -20.048       -6.774       10.034        9.966        5.654      100.677       99.315       31.969        0.216        0.012       63.522        3.347        0.003      339.629       13.095      863.226
09/11/2014  05:24:00      -63.059      -20.616      -10.137        9.991        6.858        6.116       99.824       47.030       37.408        0.234        0.009       66.343        4.616        0.005      339.597       13.040      863.229
09/11/2014  05:25:00      -79.714      -34.752      -14.157        9.355       11.171        7.379       87.508      124.788       54.449        0.401        0.013       86.960        2.797        0.001      339.546       12.953      863.230
09/11/2014  05:26:00      -63.216      -41.796       -9.779       18.664       13.859       13.692      348.327      192.081      187.469        0.328        0.036       75.783       11.294        0.022      339.490       12.858      863.226
09/11/2014  05:27:00      -70.756      -54.060       -7.240       20.734       17.211       11.662      429.918      296.226      136.005        0.442        0.043       89.044        6.392        0.005      339.620       13.078      863.230
09/11/2014  05:28:00      -54.514      -44.637        0.110       30.882       21.570       13.613      953.697      465.281      185.302        0.328        0.080       70.457       14.927        0.045      339.680       13.179      863.225
09/11/2014  05:29:00      -38.239      -44.417        0.795       26.771       22.255       15.678      716.677      495.289      245.807        0.245        0.073       58.610       11.506        0.039      339.686       13.190      863.231
09/11/2014  05:30:00      -54.781      -27.378       -3.968       27.578       19.878       12.698      760.557      395.136      161.251        0.254        0.066       61.242        7.745        0.016      339.635       13.104      863.234
09/11/2014  05:31:00      -51.985      -30.012        0.736       23.939       20.697       17.630      573.064      428.365      310.814        0.246        0.066       60.026       13.940        0.054      339.588       13.023      863.230
09/11/2014  05:32:00      -62.510      -51.009       -4.213       31.798       20.216       15.459     1011.096      408.687      238.984        0.409        0.083       80.681       12.479        0.024      339.626       13.088      863.226
09/11/2014  05:33:00      -81.942      -59.859        3.709       39.721       28.297       19.365     1577.763      800.696      375.007        0.653        0.138      101.478       20.348        0.040      339.726       13.256      863.225
09/11/2014  05:34:00      -79.738      -60.163       -0.987       24.096       25.536       12.079      580.608      652.064      145.898        0.568        0.069       99.889       12.103        0.015      339.699       13.211      863.233
09/11/2014  05:35:00      -53.850      -36.428        0.661       27.774       25.322       16.137      771.390      641.190      260.417        0.295        0.084       65.014       14.826        0.052      339.615       13.070      863.239
09/11/2014  05:36:00     -106.857      -34.134       -5.743       23.087       25.932       13.425      533.032      672.484      180.226        0.700        0.069      112.177       11.927        0.011      339.567       12.989      863.245
09/11/2014  05:37:00     -107.788      -35.082       -1.506       23.014       24.028       14.011      529.623      577.332      196.310        0.708        0.065      113.353        6.159        0.003      339.494       12.866      863.258
09/11/2014  05:38:00      -65.763       -8.920        4.541       33.772       20.183       16.878     1140.578      407.368      284.861        0.313        0.092       66.365       16.951        0.065      339.391       12.691      863.264
09/11/2014  05:39:00      -28.889      -13.619        0.113       24.004       20.844       14.134      576.173      434.484      199.769        0.112        0.061       31.939       11.210        0.123      339.353       12.627      863.280
09/11/2014  05:40:00     -133.621      -11.721       -8.028       33.172       26.575       17.401     1100.378      706.221      302.801        1.008        0.105      134.134       15.887        0.014      339.204       12.377      863.298
09/11/2014  05:41:00      -43.716       -5.950        6.978       32.269       24.489       18.903     1041.266      599.722      357.336        0.200        0.100       44.119       10.225        0.054      339.111       12.219      863.321
09/11/2014  05:42:00       -7.552       -3.304        3.955       20.089       17.221       13.779      403.575      296.579      189.869        0.049        0.045        8.244       11.501        1.946      339.223       12.408      863.333
09/11/2014  05:43:00      -54.537      -32.007       -1.003       26.506       25.079       16.165      702.579      628.942      261.302        0.280        0.080       63.236       10.431        0.027      339.458       12.804      863.339
09/11/2014  05:44:00     -121.092      -59.443       -3.083       46.094       31.703       22.972     2124.620     1005.105      527.719        1.093        0.183      134.895       25.092        0.035      339.238       12.436      863.352
09/11/2014  05:45:00     -108.029       -1.104       -4.491       19.115       15.406       10.527      365.367      237.360      110.827        0.620        0.036      108.035        7.834        0.005      339.384       12.680      863.354
09/11/2014  05:46:00      -83.267       -1.804      -10.423       11.980       12.571        8.058      143.512      158.019       64.932        0.371        0.018       83.286        5.228        0.004      339.456       12.802      863.360
09/11/2014  05:47:00      -57.486      -14.340       -4.390       24.152       14.267        9.030      583.323      203.552       81.534        0.220        0.043       59.247        5.954        0.010      339.471       12.827      863.367
09/11/2014  05:48:00      -60.067      -29.733       -2.844       13.893       12.421       12.020      193.027      154.274      144.478        0.250        0.025       67.023        7.530        0.013      339.513       12.897      863.363
09/11/2014  05:49:00      -72.286      -37.020       -5.227       15.624       13.956        8.981      244.113      194.779       80.660        0.357        0.026       81.215        4.261        0.003      339.425       12.751      863.365
09/11/2014  05:50:00     -103.527        1.901      -10.172       15.916       12.915        8.995      253.323      166.794       80.911        0.566        0.025      103.545        6.881        0.004      339.686       13.190      863.370
09/11/2014  05:51:00      -93.383        0.625      -10.776       13.386       16.556        8.201      179.183      274.100       67.264        0.468        0.026       93.385        5.995        0.004      339.448       12.789      863.382
09/11/2014  05:52:00      -29.367      -25.239      -11.898       24.830        9.418        7.910      616.549       88.707       62.575        0.120        0.038       38.723        7.987        0.043      339.417       12.738      863.396
09/11/2014  05:53:00      -39.965       -6.599      -10.162        9.430       13.384       10.013       88.922      179.126      100.268        0.106        0.018       40.506        3.234        0.006      339.469       12.825      863.396
09/11/2014  05:54:00      -21.343      -23.031        0.481       20.481       17.137        9.684      419.478      293.687       93.771        0.090        0.040       31.400        8.484        0.073      339.332       12.593      863.401
09/11/2014  05:55:00      -56.053      -27.103       -7.511       21.922       15.725       11.525      480.573      247.270      132.829        0.240        0.043       62.261        6.933        0.012      339.478       12.839      863.403
09/11/2014  05:56:00      -60.821       -7.039       -9.956       15.980       15.687       15.986      255.367      246.093      255.539        0.230        0.038       61.227        2.009        0.001      339.383       12.680      863.422
09/11/2014  05:57:00      -39.817      -17.496      -10.291       12.352        9.535        8.496      152.578       90.912       72.190        0.116        0.016       43.491        6.232        0.021      339.633       13.101      863.436
09/11/2014  05:58:00      -47.748      -24.693      -16.898       20.300       12.147       12.309      412.094      147.538      151.505        0.194        0.036       53.755       10.069        0.035      339.411       12.725      863.452
09/11/2014  05:59:00      -21.668      -13.149       -6.957       18.381       20.238       10.397      337.845      409.564      108.101        0.077        0.043       25.346        8.873        0.123      339.516       12.904      863.465
09/11/2014  06:00:00      -36.693        3.848       -9.060       20.767       19.696       11.386      431.289      387.923      129.650        0.120        0.047       36.894       14.646        0.158      339.633       13.102      863.474
09/11/2014  06:01:00      -45.970       13.539      -10.148       15.617       19.669       10.801      243.877      386.870      116.666        0.157        0.037       47.922       11.653        0.059      339.778       13.344      863.484
09/11/2014  06:02:00      -35.418      -18.387       -2.341       15.241       13.839       11.720      232.280      191.510      137.349        0.108        0.028       39.906       10.215        0.066      339.624       13.086      863.491
09/11/2014  06:03:00      -54.462      -23.792       -5.853       11.314       10.053       11.508      128.011      101.065      132.425        0.196        0.018       59.432        7.518        0.016      339.383       12.678      863.502
09/11/2014  06:04:00      -47.614      -16.121      -12.321        9.505       10.978        7.073       90.344      120.509       50.026        0.147        0.013       50.269        4.352        0.007      339.407       12.719      863.519
09/11/2014  06:05:00      -66.482      -13.343      -12.640       18.105       18.200       11.202      327.807      331.239      125.493        0.277        0.039       67.808        9.858        0.021      339.470       12.827      863.541
09/11/2014  06:06:00      -58.586       -7.881       -9.473       23.108       17.503       13.456      533.993      306.346      181.072        0.230        0.051       59.113       10.956        0.034      339.347       12.619      863.558
09/11/2014  06:07:00      -51.304       -4.286      -10.471       12.758       11.725        9.868      162.773      137.480       97.375        0.158        0.020       51.483        4.939        0.009      339.377       12.669      863.563
09/11/2014  06:08:00      -46.007      -14.740       -7.220       13.999       13.519       11.220      195.981      182.774      125.897        0.145        0.025       48.311        7.593        0.025      339.415       12.733      863.567
09/11/2014  06:09:00      -54.346      -14.052      -10.071       13.824       12.636       10.481      191.091      159.660      109.855        0.186        0.023       56.133        8.898        0.025      339.514       12.899      863.568
09/11/2014  06:10:00      -35.491      -19.223      -10.886       12.181       10.715        8.100      148.385      114.805       65.612        0.104        0.016       40.363        5.913        0.021      339.531       12.927      863.575
09/11/2014  06:11:00      -27.218      -23.500       -9.303       12.571       13.481       10.032      158.042      181.735      100.640        0.091        0.022       35.959        6.526        0.033      339.731       13.264      863.579
09/11/2014  06:12:00      -46.586      -30.329       -7.812       14.956       10.629       10.559      223.692      112.969      111.487        0.180        0.022       55.588        2.102        0.001      339.439       12.772      863.586
09/11/2014  06:13:00      -69.620      -34.882       -9.868       11.654       25.833       10.674      135.810      667.334      113.943        0.354        0.046       77.869        9.501        0.015      339.354       12.631      863.592
09/11/2014  06:14:00      -77.178        3.352      -10.865       17.237       10.700        8.658      297.111      114.483       74.967        0.329        0.024       77.251        4.592        0.004      339.841       13.452      863.597
09/11/2014  06:15:00      -30.202      -26.580       -5.359       16.642       20.364        8.969      276.942      414.675       80.443        0.121        0.039       40.233        7.876        0.038      340.098       13.884      863.610
09/11/2014  06:16:00      -26.822      -32.991       -9.595       16.076       12.430       11.800      258.428      154.497      139.248        0.123        0.028       42.519        9.173        0.047      339.630       13.096      863.611
09/11/2014  06:17:00      -71.127      -28.399      -11.403       19.725       13.653       10.613      389.074      186.401      112.642        0.334        0.034       76.586        7.910        0.011      339.434       12.766      863.623
09/11/2014  06:18:00      -81.769      -29.968      -11.800        7.720        9.348        5.521       59.605       87.388       30.479        0.395        0.009       87.087        2.415        0.001      339.485       12.851      863.636
09/11/2014  06:19:00      -79.999      -36.164      -16.396       11.032       11.996       10.628      121.714      143.907      112.960        0.418        0.019       87.794        6.057        0.005      339.592       13.032      863.654
09/11/2014  06:20:00      -72.364      -21.248      -13.509       11.846        7.586        4.596      140.316       57.550       21.123        0.304        0.011       75.419        1.517        0.000      339.790       13.364      863.661
09/11/2014  06:21:00      -42.832       -6.502       -0.689       17.490       14.316       11.890      305.887      204.942      141.364        0.126        0.033       43.322        5.204        0.014      340.152       13.974      863.673
09/11/2014  06:22:00       -5.969      -30.290       -4.438       15.539        8.721        8.467      241.465       76.054       71.693        0.068        0.019       30.872        5.857        0.036      339.968       13.666      863.676
09/11/2014  06:23:00       26.750       -4.152       -5.213       14.118       17.266       12.406      199.321      298.100      153.920        0.071        0.033       27.070        8.792        0.105      339.944       13.626      863.679
09/11/2014  06:24:00       19.571      -10.014       -0.983       10.567       16.062       15.867      111.669      257.972      251.758        0.055        0.031       21.984        8.699        0.157      339.769       13.331      863.684
09/11/2014  06:25:00      -11.676      -31.007        0.596       26.295       14.572       11.557      691.427      212.354      133.573        0.107        0.052       33.133       13.317        0.162      339.698       13.210      863.697
09/11/2014  06:26:00      -74.523      -36.757       -6.179       22.529       11.710       11.621      507.568      137.120      135.038        0.386        0.039       83.095        7.671        0.009      339.285       12.514      863.704
09/11/2014  06:27:00     -107.333      -38.824       -5.230       14.067       15.789        9.975      197.885      249.296       99.494        0.680        0.027      114.139        5.649        0.002      339.216       12.398      863.722
09/11/2014  06:28:00      -79.670      -36.886      -10.706       12.142       10.971       10.386      147.432      120.359      107.864        0.410        0.019       87.794        7.418        0.007      339.275       12.496      863.739
09/11/2014  06:29:00      -79.458      -26.059      -15.422        8.270        8.325        7.764       68.388       69.298       60.279        0.371        0.010       83.622        2.920        0.001      339.332       12.591      863.741
09/11/2014  06:30:00      -89.258      -20.565       -6.454        7.381        7.837        6.111       54.480       61.425       37.344        0.429        0.008       91.597        3.428        0.001      339.457       12.804      863.747
09/11/2014  06:31:00      -76.943      -35.713       -7.796       13.142       15.472        9.236      172.702      239.394       85.308        0.388        0.025       84.827        5.351        0.004      339.390       12.691      863.749
09/11/2014  06:32:00      -66.771      -38.740      -11.230       14.959        9.671        9.350      223.760       93.521       87.417        0.324        0.020       77.195        6.746        0.008      339.382       12.679      863.766
09/11/2014  06:33:00      -84.098      -43.868      -12.222       11.820        8.250        6.774      139.724       68.059       45.886        0.470        0.013       94.852        3.658        0.001      339.557       12.972      863.775
09/11/2014  06:34:00      -85.218      -45.771       -1.769       13.190       16.330       10.728      173.974      266.676      115.084        0.496        0.028       96.733        9.331        0.009      339.662       13.149      863.784
09/11/2014  06:35:00      -77.428      -24.959       -9.931       13.246       12.557       10.255      175.450      157.684      105.156        0.358        0.022       81.352        5.117        0.004      339.505       12.883      863.801
09/11/2014  06:36:00      -81.984      -32.088      -19.186       11.976       12.695        8.012      143.431      161.171       64.190        0.424        0.018       88.040        3.598        0.002      339.356       12.633      863.814
09/11/2014  06:37:00     -125.142      -37.712      -24.709       14.059       10.731        9.871      197.642      115.147       97.436        0.905        0.021      130.701        6.528        0.002      339.344       12.612      863.812
09/11/2014  06:38:00     -107.446      -49.905       -9.249       34.175       16.337       16.103     1167.922      266.901      259.318        0.791        0.085      118.470       20.334        0.029      339.257       12.464      863.811
09/11/2014  06:39:00      -22.608      -34.432        2.749       28.437       21.759       15.470      808.657      473.471      239.336        0.161        0.076       41.191       16.199        0.155      339.316       12.565      863.815
09/11/2014  06:40:00      -67.281      -34.170       -3.199       18.438       12.230       10.749      339.963      149.573      115.543        0.315        0.030       75.461        7.912        0.011      339.360       12.638      863.813
09/11/2014  06:41:00      -88.253      -31.439      -13.701       12.796       12.178       10.206      163.731      148.293      104.165        0.469        0.021       93.686        5.328        0.003      339.368       12.654      863.814
09/11/2014  06:42:00      -99.495      -36.209       -4.092       14.086       13.369        7.995      198.410      178.737       63.926        0.583        0.022      105.879        3.594        0.001      339.359       12.639      863.811
09/11/2014  06:43:00      -95.405      -36.995       -6.401       23.619       20.203       14.479      557.865      408.157      209.647        0.584        0.059      102.327       12.004        0.014      339.335       12.598      863.813
09/11/2014  06:44:00     -142.024      -29.165      -25.549       16.304       14.483       12.022      265.806      209.766      144.524        1.115        0.031      144.988        8.592        0.004      339.329       12.587      863.818
09/11/2014  06:45:00     -125.054      -39.211       -8.528       22.568       20.039       16.118      509.311      401.557      259.805        0.921        0.059      131.057       13.540        0.011      339.201       12.371      863.815
09/11/2014  06:46:00     -131.508      -39.165      -10.665       28.871       25.590       16.767      833.557      654.853      281.141        1.036        0.088      137.216       15.911        0.013      339.171       12.321      863.815
09/11/2014  06:47:00     -120.284      -36.920       -4.683       25.409       21.856       16.996      645.607      477.703      288.880        0.863        0.071      125.823       13.484        0.011      339.229       12.419      863.819
09/11/2014  06:48:00     -144.506      -28.351      -22.272       20.502       19.902       12.320      420.337      396.109      151.793        1.157        0.048      147.260        9.966        0.005      339.237       12.432      863.827
09/11/2014  06:49:00     -145.388      -30.118      -19.559       14.840       12.425       12.857      220.218      154.384      165.315        1.148        0.027      148.474        7.961        0.003      339.369       12.655      863.825
09/11/2014  06:50:00     -141.854      -43.089      -18.224       19.304       20.533       17.340      372.637      421.588      300.684        1.170        0.055      148.253       11.111        0.006      339.710       13.230      863.827
09/11/2014  06:51:00     -131.202      -37.925      -15.545       18.892       17.279       13.326      356.914      298.552      177.571        0.986        0.042      136.573        9.074        0.004      339.638       13.108      863.830
09/11/2014  06:52:00     -119.930      -54.216       -9.544       20.206       22.308       13.202      408.265      497.626      174.288        0.925        0.054      131.615       11.056        0.007      339.292       12.524      863.835
09/11/2014  06:53:00     -144.518      -44.373       -7.680       13.379       11.703       12.588      178.999      136.968      158.453        1.169        0.024      151.177        9.934        0.004      339.441       12.777      863.840
09/11/2014  06:54:00     -130.935      -16.462      -11.652       16.136       10.177       11.840      260.366      103.564      140.179        0.903        0.025      131.966        9.399        0.005      339.271       12.491      863.850
09/11/2014  06:55:00     -125.469      -24.252      -18.761       11.166       11.437        9.368      124.678      130.797       87.751        0.851        0.017      127.792        7.586        0.004      339.227       12.416      863.865
09/11/2014  06:56:00     -130.879      -36.997      -23.663       12.591       17.016       15.182      158.528      289.551      230.491        0.987        0.034      136.008        2.400        0.000      339.121       12.238      863.868
09/11/2014  06:57:00     -122.240      -47.570      -23.802       16.427       14.960       11.453      269.845      223.797      131.165        0.920        0.031      131.170        3.009        0.001      339.062       12.137      863.877
09/11/2014  06:58:00     -124.457      -36.577      -14.544       16.879       17.161       16.860      284.886      294.515      284.256        0.895        0.043      129.721       12.383        0.009      339.194       12.360      863.885
09/11/2014  06:59:00     -126.783      -34.005      -11.240       15.946       18.409       14.296      254.285      338.894      204.372        0.908        0.040      131.264        9.532        0.005      339.223       12.409      863.893
09/11/2014  07:00:00     -104.096      -35.290       -5.512       23.437       18.782       15.441      549.297      352.750      238.420        0.663        0.057      109.915       12.440        0.013      339.214       12.394      863.901
09/11/2014  07:01:00      -75.254      -32.426       -3.942       19.901       17.076       12.649      396.061      291.577      159.999        0.379        0.042       81.942       11.051        0.018      339.254       12.459      863.914
09/11/2014  07:02:00      -39.319      -44.377       -0.972       23.051       31.089       14.295      531.363      966.531      204.352        0.261        0.085       59.290        9.401        0.025      339.418       12.738      863.922
09/11/2014  07:03:00      -41.959      -49.458        1.290       21.236       19.908       13.216      450.958      396.339      174.653        0.261        0.051       64.859        8.570        0.017      339.485       12.850      863.923
09/11/2014  07:04:00     -108.856      -68.078       -5.644       22.119       26.570       14.730      489.231      705.950      216.972        0.896        0.071      128.391       10.766        0.007      339.569       12.994      863.927
09/11/2014  07:05:00      -67.405      -34.720        4.907       28.304       27.383       15.036      801.129      749.856      226.084        0.377        0.089       75.822       11.397        0.023      339.501       12.877      863.937
09/11/2014  07:06:00      -77.471      -52.840        0.319       35.875       23.264       18.763     1287.021      541.217      352.067        0.549        0.109       93.775       20.676        0.049      339.498       12.873      863.952
09/11/2014  07:07:00      -68.910      -43.283        0.259       35.527       26.192       20.074     1262.166      685.997      402.981        0.449        0.118       81.376       16.821        0.043      339.407       12.719      863.961
09/11/2014  07:08:00      -75.153      -54.940       -1.507       37.586       28.484       19.626     1412.671      811.326      385.167        0.564        0.130       93.093       18.678        0.040      339.419       12.738      863.971
09/11/2014  07:09:00      -53.787      -41.081       -3.050       38.836       24.237       21.240     1508.255      587.453      451.143        0.357        0.127       67.680       20.153        0.089      339.376       12.666      863.973
09/11/2014  07:10:00      -66.775      -49.515       -1.644       30.875       22.992       18.161      953.270      528.629      329.806        0.436        0.091       83.131       13.269        0.025      339.389       12.689      863.971
09/11/2014  07:11:00      -69.341      -43.176       -4.506       30.426       22.709       13.879      925.772      515.712      192.636        0.416        0.082       81.685       11.968        0.021      339.471       12.827      863.974
09/11/2014  07:12:00      -46.324      -48.834        3.491       26.805       25.088       13.428      718.524      629.395      180.301        0.304        0.076       67.310       13.399        0.040      339.619       13.077      863.972
09/11/2014  07:13:00      -51.887      -54.467        1.501       27.053       25.411       17.710      731.888      645.713      313.641        0.368        0.085       75.225       14.080        0.035      339.687       13.191      863.966
09/11/2014  07:14:00      -37.945      -29.416        5.631       26.132       15.871       13.778      682.894      251.902      189.837        0.173        0.056       48.012       11.095        0.053      339.709       13.227      863.975
09/11/2014  07:15:00      -23.432      -14.820        6.961       23.002       18.644       15.626      529.083      347.603      244.180        0.097        0.056       27.725       14.576        0.276      339.802       13.384      863.977
09/11/2014  07:16:00      -55.285      -10.771        0.424       19.976       15.971       14.053      399.027      255.085      197.480        0.201        0.043       56.325       11.041        0.038      339.597       13.040      863.972
09/11/2014  07:17:00      -73.281       -7.791       -9.109       10.998       10.502        7.683      120.953      110.285       59.021        0.290        0.015       73.694        4.405        0.004      339.597       13.038      863.986
09/11/2014  07:18:00      -74.681      -32.215       -4.604       16.308        9.904        8.143      265.966       98.095       66.307        0.353        0.022       81.333        4.457        0.003      339.647       13.122      863.992
09/11/2014  07:19:00      -75.465      -21.407        0.157       13.754       14.497        8.070      189.185      210.156       65.122        0.331        0.023       78.443        5.013        0.004      339.657       13.140      863.990
09/11/2014  07:20:00      -65.578      -31.512       -3.399       10.767       10.548        7.567      115.934      111.256       57.257        0.279        0.014       72.756        5.074        0.005      339.708       13.228      864.006
09/11/2014  07:21:00      -48.980      -11.173       -4.112       13.097       14.800        7.826      171.537      219.036       61.243        0.150        0.023       50.238        5.558        0.012      339.689       13.196      864.012
09/11/2014  07:22:00      -43.615       -1.461        0.100       13.657       14.439        8.288      186.505      208.482       68.688        0.118        0.023       43.639        6.517        0.022      339.697       13.208      864.021
09/11/2014  07:23:00      -40.163       -6.827       -1.475        9.111        8.127        6.124       83.003       66.051       37.501        0.092        0.009       40.739        4.625        0.013      339.704       13.221      864.021
09/11/2014  07:24:00      -38.065      -13.682        1.066       13.098       11.528        8.196      171.554      132.899       67.181        0.100        0.019       40.449        4.737        0.014      339.748       13.295      864.025
09/11/2014  07:25:00      -19.786      -13.248        0.340       11.894       19.508        8.750      141.467      380.565       76.558        0.058        0.030       23.811        7.822        0.108      339.705       13.222      864.028
09/11/2014  07:26:00       -2.978       -7.223        5.254       14.264        9.185       10.472      203.468       84.373      109.653        0.024        0.020        7.813        6.204        0.631      339.876       13.509      864.043
09/11/2014  07:27:00       12.813      -22.210        1.330       17.363       17.618       22.071      301.471      310.409      487.109        0.088        0.055       25.641       14.532        0.321      339.594       13.035      864.046
09/11/2014  07:28:00       15.300      -29.006       -5.577       11.485       21.140       13.737      131.911      446.906      188.694        0.094        0.038       32.794        6.513        0.039      339.527       12.920      864.056
09/11/2014  07:29:00      -17.314      -26.579       -0.641       15.247       11.857       14.421      232.457      140.580      207.957        0.079        0.029       31.721        9.055        0.081      339.905       13.559      864.063
09/11/2014  07:30:00       -9.729      -15.372       10.286       10.873       13.110        9.181      118.212      171.862       84.287        0.041        0.019       18.192        7.564        0.173      340.008       13.733      864.070
09/11/2014  07:31:00      -48.136      -34.733       -2.933       17.678       11.155        7.278      312.517      124.437       52.967        0.201        0.024       59.359        6.921        0.014      340.044       13.792      864.087
09/11/2014  07:32:00      -55.394      -40.811        1.408       15.628       13.466       11.262      244.230      181.332      126.827        0.264        0.028       68.805       10.804        0.025      340.066       13.831      864.093
09/11/2014  07:33:00      -27.312      -19.917        4.224       29.298       14.169       11.132      858.363      200.773      123.924        0.117        0.059       33.803       13.639        0.163      340.116       13.916      864.095
09/11/2014  07:34:00      -20.137      -55.074        3.572       13.622       13.936        9.257      185.547      194.221       85.693        0.196        0.023       58.640        7.116        0.015      340.089       13.868      864.101
09/11/2014  07:35:00      -40.185      -54.677       -6.258        9.840       11.906        9.527       96.832      141.746       90.769        0.249        0.016       67.856        6.374        0.009      340.100       13.888      864.109
09/11/2014  07:36:00      -36.665      -39.388       -0.627       11.656       10.885        9.865      135.864      118.479       97.309        0.162        0.018       53.812        6.779        0.016      340.145       13.962      864.111
09/11/2014  07:37:00      -31.972      -43.939       -1.152       17.975       14.357        9.451      323.099      206.123       89.324        0.179        0.031       54.340        8.728        0.026      340.192       14.044      864.113
09/11/2014  07:38:00      -47.464      -49.804       -2.261       17.422       12.969        8.009      303.525      168.192       64.143        0.264        0.027       68.798        5.312        0.006      340.214       14.079      864.115
09/11/2014  07:39:00      -48.953      -52.910       -4.927       12.565       15.254        7.047      157.874      232.682       49.663        0.283        0.022       72.082        6.760        0.009      340.198       14.051      864.125
09/11/2014  07:40:00      -13.255      -36.743       -1.377       18.752       10.282       11.034      351.631      105.722      121.747        0.105        0.029       39.060        6.237        0.025      340.246       14.135      864.130
09/11/2014  07:41:00       19.084      -23.961       -0.677       24.092       19.354       13.838      580.445      374.593      191.490        0.104        0.057       30.633        7.606        0.062      339.985       13.693      864.136
09/11/2014  07:42:00       52.054      -22.118      -12.937       27.013       21.357       18.008      729.680      456.125      324.285        0.244        0.076       56.558       16.621        0.086      339.951       13.636      864.143
09/11/2014  07:43:00       22.338        0.538       10.344       24.072       21.375       22.700      579.477      456.894      515.269        0.108        0.078       22.345       10.558        0.223      340.212       14.078      864.145
09/11/2014  07:44:00       -0.441      -19.497        3.245       27.515       13.213       20.584      757.095      174.589      423.684        0.087        0.068       19.502       14.312        0.539      340.274       14.180      864.148
09/11/2014  07:45:00       16.556      -15.001        4.928       14.596       12.740       19.749      213.045      162.309      390.020        0.064        0.038       22.342       14.585        0.426      340.257       14.152      864.150
09/11/2014  07:46:00      -12.987      -45.593      -12.569       13.927       14.865       10.017      193.968      220.979      100.340        0.146        0.026       47.406        7.339        0.024      340.309       14.240      864.156
09/11/2014  07:47:00       11.251      -12.844       -2.894       16.348       22.789       16.992      267.258      519.333      288.715        0.069        0.054       17.075       13.326        0.609      340.264       14.164      864.159
09/11/2014  07:48:00       19.321       -9.081        1.713       22.042       25.403       25.155      485.848      645.318      632.772        0.111        0.088       21.349       15.516        0.528      340.418       14.426      864.164
09/11/2014  07:49:00       20.027        0.571       17.996       19.378       23.969       26.875      375.510      574.495      722.260        0.120        0.084       20.035       21.514        1.153      340.541       14.632      864.170
09/11/2014  07:50:00      -15.072       -7.141       -8.933        4.153        6.971        4.751       17.248       48.593       22.567        0.022        0.004       16.678        4.198        0.063      340.588       14.713      864.177
09/11/2014  07:51:00      -19.489      -17.049        9.385       15.099       22.250       12.908      227.994      495.043      166.606        0.082        0.044       25.894        3.944        0.023      340.494       14.553      864.183
09/11/2014  07:52:00       14.699      -29.267       -6.725       25.271       16.247       19.443      638.626      263.972      378.018        0.120        0.064       32.751       11.405        0.121      340.309       14.240      864.190
09/11/2014  07:53:00       25.014      -21.836       -4.580       15.674       15.466       17.957      245.689      239.191      322.450        0.097        0.040       33.204       12.245        0.136      340.370       14.343      864.187
09/11/2014  07:54:00       16.801        0.290       -6.842       24.288       24.900       18.588      589.884      619.989      345.502        0.094        0.078       16.804       14.120        0.706      340.609       14.748      864.193
09/11/2014  07:55:00       14.544       -3.785       13.993       24.299       19.294       21.307      590.459      372.250      454.001        0.092        0.071       15.029       14.152        0.887      340.729       14.951      864.187
09/11/2014  07:56:00       29.367      -25.173       -2.890       27.973       20.371       17.284      782.466      414.967      298.721        0.150        0.075       38.679       16.240        0.176      340.424       14.434      864.183
09/11/2014  07:57:00       42.815      -31.240        3.441       37.898       24.427       22.590     1436.265      596.664      510.315        0.268        0.127       53.000       16.145        0.093      340.371       14.346      864.186
09/11/2014  07:58:00       40.425        1.829       29.725       26.230       18.260       22.182      688.036      333.439      492.052        0.202        0.076       40.466       10.748        0.071      340.565       14.673      864.184
09/11/2014  07:59:00       49.244       -7.937       16.298       17.122       17.240       21.619      293.169      297.219      467.370        0.191        0.053       49.880        6.805        0.019      340.481       14.532      864.179
09/11/2014  08:00:00       61.944       -4.667        6.832       18.450       18.635       18.313      340.402      347.262      335.377        0.246        0.051       62.120       13.457        0.047      340.420       14.427      864.175
09/11/2014  08:01:00       42.706      -19.197       -0.132       26.822       29.881       23.452      719.433      892.859      550.018        0.218        0.108       46.822       12.629        0.073      340.599       14.730      864.174
09/11/2014  08:02:00      -14.012      -13.774        1.805       16.749       26.906       12.879      280.534      723.925      165.856        0.078        0.059       19.649       10.682        0.296      340.768       15.016      864.173
09/11/2014  08:03:00       32.265       16.826       17.515       22.047       13.529       19.932      486.080      183.043      397.286        0.135        0.053       36.389        9.177        0.064      340.683       14.873      864.175
09/11/2014  08:04:00       39.832        3.700       -4.731       23.932       25.733       18.878      572.736      662.199      356.367        0.161        0.080       40.003       10.400        0.068      340.512       14.584      864.173
09/11/2014  08:05:00       11.028        2.581       11.654       28.684       18.627       13.540      822.755      346.949      183.321        0.081        0.068       11.326        9.496        0.703      340.845       15.147      864.175
09/11/2014  08:06:00       17.681       22.528       17.779       17.796       15.987       12.607      316.699      255.582      158.940        0.093        0.037       28.637        9.727        0.115      340.967       15.353      864.180
09/11/2014  08:07:00      -10.516       -6.228        0.162       15.983       12.465       16.030      255.467      155.381      256.957        0.041        0.033       12.222        8.132        0.443      340.863       15.178      864.176
09/11/2014  08:08:00      -12.038      -34.649       19.585       22.797       23.813       21.361      519.712      567.072      456.282        0.164        0.077       36.681       13.943        0.144      340.624       14.774      864.183
09/11/2014  08:09:00       36.608       32.534       44.999       31.553       23.744       14.081      995.597      563.756      198.269        0.309        0.088       48.975       11.040        0.051      340.990       15.392      864.187
09/11/2014  08:10:00       14.278       15.038        6.859       25.905       28.379       21.481      671.079      805.377      461.419        0.121        0.097       20.737       15.051        0.527      340.907       15.251      864.195
09/11/2014  08:11:00       -1.367       -0.673       12.639       13.288       15.644       19.846      176.573      244.746      393.847        0.049        0.041        1.524        8.519       31.250      341.342       15.989      864.203
09/11/2014  08:12:00       31.688       25.856       17.217       17.921       18.012       15.835      321.157      324.422      250.754        0.143        0.045       40.899        9.050        0.049      341.235       15.806      864.206
09/11/2014  08:13:00       24.675       35.469        7.847       19.724       16.840       23.479      389.044      283.583      551.248        0.158        0.061       43.208       12.855        0.089      341.006       15.419      864.220
09/11/2014  08:14:00       47.704       37.766       15.980       11.779       12.635       19.588      138.753      159.638      383.676        0.232        0.034       60.844       11.662        0.037      340.904       15.247      864.229
09/11/2014  08:15:00        4.091       15.192       10.982       10.779       13.009       17.235      116.190      169.243      297.037        0.048        0.029       15.733        9.148        0.338      341.392       16.074      864.241
09/11/2014  08:16:00       35.827       29.700       12.296       15.372       14.895       15.766      236.299      221.859      248.554        0.151        0.035       46.537        6.391        0.019      341.024       15.449      864.242
09/11/2014  08:17:00       32.916       11.810        7.992       18.017       12.851       15.761      324.621      165.161      248.403        0.101        0.037       34.971        6.360        0.033      341.156       15.675      864.245
09/11/2014  08:18:00       57.815       31.488       -3.289       24.210       26.175       17.259      586.126      685.146      297.867        0.296        0.078       65.834        9.797        0.022      340.863       15.179      864.248
09/11/2014  08:19:00       36.326       13.814        7.110       19.479       17.988       18.218      379.450      323.586      331.894        0.130        0.052       38.864        9.250        0.057      340.989       15.391      864.242
09/11/2014  08:20:00       31.641       34.054       11.565       31.435       17.965       18.643      988.186      322.743      347.565        0.198        0.083       46.485       15.752        0.115      341.294       15.907      864.243
09/11/2014  08:21:00       31.254       39.307        2.491       34.814       23.257       25.712     1211.992      540.875      661.102        0.247        0.121       50.218       22.352        0.198      341.362       16.021      864.243
09/11/2014  08:22:00       75.519       54.239       24.790       29.931       21.939       25.722      895.845      481.319      661.597        0.565        0.102       92.978        3.905        0.002      340.999       15.408      864.241
09/11/2014  08:23:00       18.663       18.973       12.339       31.652       23.979       24.391     1001.861      575.007      594.932        0.152        0.109       26.614       22.235        0.698      341.176       15.706      864.244
09/11/2014  08:24:00        6.030       44.114       32.325       34.034       28.458       32.165     1158.289      809.861     1034.617        0.301        0.150       44.524       27.028        0.369      341.533       16.311      864.240
09/11/2014  08:25:00       47.788       39.666       19.903       31.671       22.770       22.354     1003.033      518.468      499.687        0.314        0.101       62.106       14.465        0.054      341.462       16.191      864.237
09/11/2014  08:26:00       31.770       28.286        8.734       29.556       21.622       23.348      873.573      467.502      545.114        0.189        0.094       42.537       14.813        0.121      341.583       16.397      864.246
09/11/2014  08:27:00       33.457       25.586       19.133       35.743       19.691       18.746     1277.571      387.744      351.421        0.208        0.101       42.119       17.242        0.168      341.492       16.242      864.244
09/11/2014  08:28:00       39.192       39.455       -3.550       35.405       26.170       18.133     1253.484      684.857      328.795        0.269        0.113       55.612       15.984        0.083      341.395       16.079      864.235
09/11/2014  08:29:00       57.927       57.901       20.897       32.081       24.635       26.396     1029.212      606.903      696.770        0.474        0.117       81.903       16.184        0.039      341.324       15.956      864.231
09/11/2014  08:30:00       42.670       20.869        4.454       31.913       28.491       18.968     1018.413      811.746      359.776        0.223        0.109       47.500       16.698        0.124      341.581       16.395      864.230
09/11/2014  08:31:00       27.184       28.971       10.027       22.216       27.076       21.494      493.554      733.101      461.987        0.168        0.084       39.728       20.948        0.278      341.697       16.590      864.228
09/11/2014  08:32:00       44.041       53.226       -0.521       30.474       18.212       24.519      928.646      331.661      601.180        0.332        0.093       69.084       11.418        0.027      341.555       16.348      864.223
09/11/2014  08:33:00       69.224       54.915       11.680       17.222       18.109       20.477      296.590      327.932      419.291        0.449        0.052       88.361        9.531        0.012      341.319       15.948      864.222
09/11/2014  08:34:00       41.511       44.700        1.039       26.389       17.548       21.615      696.358      307.929      467.205        0.260        0.074       61.002       15.842        0.067      341.462       16.190      864.219
09/11/2014  08:35:00       23.610       25.103        2.014       29.156       19.392       17.114      850.095      376.044      292.882        0.136        0.076       34.461       12.060        0.122      341.571       16.376      864.221
09/11/2014  08:36:00       68.569       34.855        8.307       38.845       27.948       22.123     1508.927      781.083      489.431        0.438        0.139       76.919       20.809        0.073      341.651       16.512      864.224
09/11/2014  08:37:00       30.728       22.053       16.868       26.953       20.447       20.236      726.488      418.090      409.489        0.163        0.078       37.823        9.540        0.064      341.944       17.009      864.224
09/11/2014  08:38:00       46.306       54.291        6.616       29.186       26.797       20.473      851.795      718.097      419.141        0.356        0.099       71.356       12.917        0.033      341.711       16.614      864.226
09/11/2014  08:39:00       26.401       21.077       -2.534       21.510       11.647       17.431      462.692      135.651      303.830        0.102        0.045       33.782        6.728        0.040      341.488       16.235      864.230
09/11/2014  08:40:00       19.300       27.010       -6.086       15.079       13.149       13.069      227.379      172.888      170.788        0.085        0.029       33.197        8.003        0.058      341.515       16.281      864.225
09/11/2014  08:41:00        5.916       37.481        4.324       20.257       26.007       20.109      410.360      676.354      404.352        0.147        0.075       37.945       11.181        0.087      341.934       16.990      864.219
09/11/2014  08:42:00       15.038       13.678       13.551       31.951       26.028       16.993     1020.852      677.435      288.772        0.129        0.099       20.329        7.087        0.122      342.119       17.305      864.219
09/11/2014  08:43:00        5.743       25.469       14.291       25.473       32.799       23.345      648.884     1075.795      544.978        0.158        0.113       26.109       19.744        0.572      342.213       17.467      864.218
09/11/2014  08:44:00       32.816       11.366        8.845       25.407       15.676       17.879      645.525      245.732      319.661        0.125        0.061       34.729        4.926        0.020      342.157       17.368      864.221
09/11/2014  08:45:00       23.269       18.013       16.642       27.784       21.216       20.140      771.951      450.114      405.623        0.138        0.081       29.426       19.288        0.430      342.196       17.436      864.226
09/11/2014  08:46:00       59.595       49.711       16.012       40.559       29.219       31.397     1645.041      853.765      985.747        0.488        0.174       77.607       26.292        0.115      342.047       17.183      864.228
09/11/2014  08:47:00       47.567       34.903        8.795       31.498       27.406       18.021      992.149      751.062      324.774        0.281        0.103       58.998       14.318        0.059      342.017       17.133      864.220
09/11/2014  08:48:00       41.637       66.572        2.504       39.951       30.285       24.698     1596.047      917.203      609.977        0.465        0.156       78.520       23.411        0.089      341.818       16.795      864.220
09/11/2014  08:49:00       49.322       36.430        3.373       42.655       31.729       25.913     1819.423     1006.713      671.503        0.363        0.175       61.317       23.412        0.146      341.937       16.998      864.215
09/11/2014  08:50:00       98.655       60.816       11.507       23.263       25.206       21.408      541.188      635.348      458.319        0.760        0.082      115.894        9.416        0.007      341.795       16.757      864.219
09/11/2014  08:51:00       38.841       -7.550        2.341       32.818       41.067       24.898     1077.017     1686.505      619.932        0.248        0.169       39.568       16.509        0.174      342.025       17.147      864.218
09/11/2014  08:52:00        7.266      -28.981        5.501       24.327       41.546       25.682      591.793     1726.043      659.568        0.195        0.149       29.878       23.430        0.615      341.645       16.500      864.217
09/11/2014  08:53:00       81.112       45.876       29.367       46.905       28.668       30.511     2200.048      821.850      930.949        0.675        0.198       93.187       20.312        0.048      341.970       17.053      864.216
09/11/2014  08:54:00       53.537       24.480       17.082       35.083       23.698       26.426     1230.825      561.589      698.310        0.312        0.125       58.869       16.073        0.075      342.180       17.409      864.212
09/11/2014  08:55:00       30.456       26.775       27.422       27.416       28.134       31.623      751.613      791.513      999.989        0.247        0.127       40.552       25.493        0.395      342.381       17.751      864.205
09/11/2014  08:56:00       45.267       27.162        4.784       22.813       18.117       19.929      520.430      328.209      397.177        0.203        0.062       52.791       13.861        0.069      342.155       17.368      864.197
09/11/2014  08:57:00        0.893        3.683       20.389       23.628       34.834       15.204      558.271     1213.381      231.162        0.122        0.100        3.790        9.339        6.072      342.360       17.714      864.191
09/11/2014  08:58:00       17.442       -2.305        6.725       31.249       30.788       25.942      976.528      947.917      672.991        0.148        0.130       17.594        8.261        0.220      342.372       17.737      864.192
09/11/2014  08:59:00       37.107      -28.295       27.420       29.856       32.487       25.428      891.407     1055.379      646.591        0.276        0.130       46.664       22.780        0.238      342.296       17.608      864.197
09/11/2014  09:00:00       36.784        8.828       17.690       26.820       32.340       29.366      719.295     1045.888      862.390        0.219        0.131       37.828       18.763        0.246      342.425       17.826      864.187
09/11/2014  09:01:00        0.147       19.823       15.260       40.745       32.938       28.998     1660.189     1084.929      840.865        0.211        0.179       19.824       20.504        1.070      342.307       17.626      864.187
09/11/2014  09:02:00       10.337      -24.822       12.976       18.941       25.658       20.448      358.768      658.335      418.114        0.116        0.072       26.888       15.515        0.333      342.556       18.048      864.190
09/11/2014  09:03:00       -5.621      -16.065        7.421       16.451       18.625       16.865      270.630      346.900      284.434        0.062        0.045       17.020        9.732        0.327      342.559       18.053      864.198
09/11/2014  09:04:00       48.196       53.431       25.143       28.624       26.017       31.166      819.356      676.868      971.301        0.414        0.123       71.956       18.779        0.068      342.478       17.915      864.202
09/11/2014  09:05:00       38.122       30.642       11.897       27.340       22.213       21.717      747.459      493.427      471.648        0.212        0.086       48.910        9.901        0.041      342.304       17.619      864.209
09/11/2014  09:06:00        2.958       22.437       43.698       18.697       40.236       31.117      349.590     1618.944      968.247        0.268        0.147       22.631       31.812        1.976      342.698       18.289      864.204
09/11/2014  09:07:00       21.251       30.823       28.955       21.258       19.517       21.001      451.915      380.903      441.030        0.176        0.064       37.439       10.864        0.084      342.408       17.796      864.209
09/11/2014  09:08:00        8.571        3.787       23.465       20.827       24.172       22.987      433.783      584.283      528.402        0.109        0.077        9.371       16.677        3.168      342.804       18.470      864.208
09/11/2014  09:09:00       26.483       19.027       39.561       30.515       20.859       20.254      931.146      435.107      410.224        0.220        0.089       32.609        8.828        0.073      342.793       18.452      864.219
09/11/2014  09:10:00       -9.143       16.657       27.584       18.659       24.205       20.382      348.169      585.886      415.429        0.124        0.067       19.001        9.866        0.270      343.112       18.994      864.218
09/11/2014  09:11:00        4.300       13.252       13.221       25.129       10.855       15.277      631.442      117.827      233.382        0.068        0.049       13.932       12.049        0.748      342.824       18.505      864.214
09/11/2014  09:12:00       26.174       -1.346        7.674       26.737       23.854       17.072      714.853      568.993      291.469        0.116        0.079       26.209        5.567        0.045      342.620       18.155      864.213
09/11/2014  09:13:00        8.689       -8.243       12.773       16.256       33.717       27.727      264.264     1136.840      768.788        0.124        0.108       11.977       20.963        3.064      342.806       18.474      864.206
09/11/2014  09:14:00       16.759       25.397        6.598       17.768       18.849       25.289      315.693      355.299      639.537        0.114        0.066       30.428       17.768        0.341      342.826       18.506      864.201
09/11/2014  09:15:00       20.167       28.141       23.660       29.881       16.172       22.777      892.871      261.519      518.788        0.172        0.084       34.621       17.884        0.267      342.947       18.714      864.204
09/11/2014  09:16:00        3.352       13.682       10.349       18.292       19.995       14.843      334.580      399.790      220.322        0.063        0.048       14.087        7.224        0.263      343.167       19.087      864.196
09/11/2014  09:17:00       10.679       37.507        5.662       16.516       27.117       17.444      272.767      735.317      304.303        0.143        0.066       38.997       10.026        0.066      343.176       19.102      864.198
09/11/2014  09:18:00        3.661       20.598        8.493       16.680       28.853       21.581      278.220      832.486      465.721        0.104        0.079       20.921       21.279        1.035      343.522       19.693      864.203
09/11/2014  09:19:00       49.310       31.132       19.630       43.777       26.816       22.839     1916.432      719.109      521.641        0.347        0.158       58.315       21.938        0.142      343.240       19.214      864.195
09/11/2014  09:20:00       47.628       47.202        8.062       21.938       27.499       31.298      481.290      756.216      979.552        0.339        0.111       67.056       21.362        0.101      342.936       18.696      864.192
09/11/2014  09:21:00       24.919       28.282       20.438       32.201       23.728       27.909     1036.928      563.003      778.891        0.211        0.119       37.694       21.492        0.325      343.262       19.250      864.197
09/11/2014  09:22:00       19.650       -9.876       18.543       19.656       19.624       24.411      386.370      385.102      595.899        0.110        0.068       21.992       17.017        0.599      343.147       19.055      864.200
09/11/2014  09:23:00       -3.369       11.238       16.021       27.609       19.362       19.973      762.260      374.869      398.938        0.096        0.077       11.732       12.172        1.076      343.251       19.231      864.201
09/11/2014  09:24:00      -15.403       29.058       10.519       15.535       19.713       20.416      241.327      388.588      416.831        0.112        0.052       32.888       13.775        0.175      343.374       19.441      864.211
09/11/2014  09:25:00       -2.514       14.774        9.981       15.114       15.175       14.870      228.434      230.292      221.119        0.050        0.034       14.986       10.335        0.476      343.223       19.184      864.205
09/11/2014  09:26:00        1.728       -2.926       19.612       11.077       20.490       12.958      122.696      419.830      167.910        0.055        0.036        3.398        5.058        2.216      343.381       19.453      864.216
09/11/2014  09:27:00       -0.848       -6.048       -0.926       21.779       35.548       19.902      474.339     1263.667      396.074        0.109        0.107        6.107        6.139        1.010      342.952       18.722      864.227
09/11/2014  09:28:00       27.881       -8.879        5.363       22.628       18.918       18.410      512.018      357.907      338.931        0.105        0.060       29.261       13.548        0.214      342.839       18.530      864.225
09/11/2014  09:29:00       12.951        6.658       25.985       27.545       25.792       23.931      758.751      665.207      572.682        0.144        0.100       14.562       19.902        1.868      343.499       19.654      864.229
09/11/2014  09:30:00       13.824      -15.308       25.997       27.441       32.997       30.229      753.019     1088.781      913.777        0.193        0.138       20.626       23.320        1.278      343.292       19.302      864.228
09/11/2014  09:31:00       39.862       -0.540       22.378       26.440       25.518       23.161      699.069      651.160      536.434        0.199        0.094       39.866       13.117        0.108      343.061       18.908      864.228
09/11/2014  09:32:00       -4.864       11.849        5.256       29.656       17.949       20.593      879.503      322.179      424.080        0.091        0.081       12.809       12.081        0.890      343.137       19.037      864.229
09/11/2014  09:33:00        0.360      -23.783       20.246       35.103       30.370       27.132     1232.245      922.365      736.132        0.193        0.145       23.785       14.929        0.394      343.711       20.016      864.225
09/11/2014  09:34:00        1.941       11.478       19.671       20.429       19.827       15.232      417.338      393.111      232.008        0.078        0.052       11.641       12.940        1.236      343.788       20.147      864.214
09/11/2014  09:35:00       21.138       15.183       36.894       21.534       23.096       14.150      463.698      533.404      200.221        0.162        0.060       26.026        8.470        0.106      343.586       19.802      864.214
09/11/2014  09:36:00       -4.737      -17.430       23.080       21.765       36.203       18.283      473.726     1310.657      334.272        0.149        0.106       18.062       20.094        1.238      343.601       19.829      864.207
09/11/2014  09:37:00       29.730      -41.471       10.564       42.400       66.607       33.360     1797.750     4436.453     1112.875        0.503        0.367       51.027       28.957        0.322      343.546       19.735      864.195
09/11/2014  09:38:00       61.006      -53.171        5.728       40.582       46.490       45.521     1646.928     2161.350     2072.178        0.623        0.294       80.925       35.549        0.193      343.019       18.837      864.197
09/11/2014  09:39:00       45.196       17.847       28.439       46.237       37.213       36.877     2137.901     1384.798     1359.895        0.403        0.244       48.593       36.539        0.565      343.371       19.437      864.196
09/11/2014  09:40:00       32.123      -30.720        1.118       33.186       28.921       23.224     1101.306      836.446      539.376        0.223        0.124       44.448       13.166        0.088      342.981       18.773      864.187
09/11/2014  09:41:00       -2.697      -50.768        1.709       18.528       23.760       21.346      343.275      564.532      455.634        0.198        0.068       50.840       14.686        0.083      342.942       18.704      864.186
09/11/2014  09:42:00       41.290       18.427       10.160       27.094       42.784       29.448      734.074     1830.431      867.176        0.279        0.172       45.215       18.023        0.159      343.328       19.362      864.181
09/11/2014  09:43:00       39.675       17.207       23.092       32.940       22.018       21.846     1085.018      484.772      477.228        0.222        0.102       43.246       19.870        0.211      343.690       19.980      864.175
09/11/2014  09:44:00       33.827       31.667      -21.675       44.503       19.484       18.697     1980.529      379.640      349.596        0.266        0.135       46.337       12.359        0.071      343.264       19.253      864.170
09/11/2014  09:45:00       -1.722       41.261        4.890       17.719       23.253       25.647      313.959      540.684      657.780        0.162        0.076       41.297       17.301        0.176      343.793       20.156      864.162
09/11/2014  09:46:00       26.050       27.315        7.396       25.533       16.150       20.804      651.948      260.819      432.796        0.141        0.067       37.745        9.771        0.067      343.870       20.285      864.160
09/11/2014  09:47:00        8.350       34.576        5.429       20.739       39.288       19.677      430.105     1543.509      387.174        0.183        0.118       35.570       22.679        0.407      344.104       20.686      864.162
09/11/2014  09:48:00       21.934       15.402       39.405       21.809       11.681       14.677      475.631      136.453      215.416        0.155        0.041       26.801        8.931        0.111      344.257       20.947      864.167
09/11/2014  09:49:00        1.069       56.232        8.199       23.029       22.370       19.068      530.326      500.396      363.581        0.231        0.070       56.242       13.178        0.055      343.807       20.178      864.173
09/11/2014  09:50:00       22.328       15.367       -5.418       16.904       20.031       17.766      285.748      401.238      315.628        0.088        0.050       27.105       12.841        0.224      343.724       20.036      864.171
09/11/2014  09:51:00      -38.211       22.206       -6.170       27.999       23.064       24.546      783.934      531.965      602.492        0.195        0.096       44.195       23.009        0.271      343.739       20.064      864.175
09/11/2014  09:52:00      -52.421       18.912      -11.024       17.109       15.295       15.953      292.732      233.945      254.500        0.200        0.039       55.728       10.922        0.038      343.588       19.807      864.174
09/11/2014  09:53:00      -34.587       13.612       12.231       43.395       32.097       20.695     1883.110     1030.215      428.278        0.244        0.167       37.169       23.424        0.397      344.309       21.037      864.175
09/11/2014  09:54:00       -8.773       20.942       35.330       17.079       21.404       25.595      291.682      458.116      655.125        0.158        0.070       22.706        8.370        0.136      344.530       21.415      864.172
09/11/2014  09:55:00       -1.193        5.960       32.156       25.763       16.210       21.449      663.750      262.763      460.055        0.123        0.069        6.078       18.551        9.316      344.617       21.564      864.162
09/11/2014  09:56:00        2.537      -28.530       22.284       29.306       33.584       17.269      858.853     1127.899      298.226        0.180        0.114       28.642       16.027        0.313      344.204       20.857      864.168
09/11/2014  09:57:00       43.322      -35.713        5.963       40.524       26.397       36.462     1642.216      696.789     1329.471        0.343        0.183       56.145       25.504        0.206      343.573       19.780      864.159
09/11/2014  09:58:00       78.783      -21.003        5.109       34.082       27.044       34.664     1161.596      731.388     1201.610        0.488        0.155       81.535       22.416        0.076      343.231       19.198      864.163
09/11/2014  09:59:00       62.037        6.853       28.394       29.517       37.420       32.224      871.228     1400.263     1038.396        0.401        0.165       62.415       22.818        0.134      343.468       19.601      864.157
09/11/2014  10:00:00       31.290       38.002       55.566       32.467       37.607       29.454     1054.129     1414.307      867.563        0.442        0.167       49.226       11.232        0.052      344.144       20.756      864.152
09/11/2014  10:01:00       24.963        5.886       28.716       37.623       44.579       26.022     1415.481     1987.322      677.155        0.278        0.204       25.647       25.862        1.017      343.924       20.380      864.149
09/11/2014  10:02:00       57.439      -83.447       -7.783       48.586       32.637       28.478     2360.642     1065.188      810.999        0.728        0.212      101.305       20.872        0.042      343.339       19.381      864.147
09/11/2014  10:03:00       53.156      -70.207       -5.699       35.712       28.362       18.720     1275.367      804.429      350.453        0.511        0.122       88.060       10.260        0.014      343.314       19.338      864.146
09/11/2014  10:04:00       -3.353       15.710       30.592       24.223       26.381       16.355      586.763      695.976      267.477        0.137        0.078       16.064        8.146        0.257      344.207       20.863      864.148
09/11/2014  10:05:00       33.769       -9.704       18.055       37.667       40.419       36.293     1418.770     1633.685     1317.205        0.296        0.218       35.136       29.826        0.721      344.065       20.621      864.142
09/11/2014  10:06:00       -7.734       35.431       38.982       29.870       28.972       36.010      892.202      839.365     1296.755        0.293        0.151       36.265       27.635        0.581      344.004       20.515      864.145
09/11/2014  10:07:00        4.488       13.267       15.343       30.154       32.378       25.380      909.244     1048.358      644.119        0.152        0.130       14.005       20.865        2.219      344.419       21.225      864.136
09/11/2014  10:08:00       27.325      -56.041       13.782       33.334       53.830       33.830     1111.135     2897.647     1144.448        0.461        0.258       62.348       39.263        0.397      344.153       20.770      864.122
09/11/2014  10:09:00       11.649      -24.802       26.538       40.925       36.698       25.423     1674.854     1346.757      646.346        0.256        0.183       27.401       17.004        0.385      344.306       21.031      864.119
09/11/2014  10:10:00       72.500       -1.366       15.128       41.106       57.858       33.922     1689.735     3347.532     1150.717        0.584        0.309       72.513       21.310        0.086      344.245       20.927      864.106
09/11/2014  10:11:00       13.481       19.869       22.468       34.011       52.630       39.474     1156.754     2769.908     1558.208        0.328        0.274       24.011       20.334        0.717      344.575       21.491      864.106
09/11/2014  10:12:00       38.542       34.281        1.075       31.959       51.194       29.414     1021.401     2620.826      865.196        0.358        0.225       51.582       13.370        0.067      344.261       20.954      864.107
09/11/2014  10:13:00       42.001       26.012       12.485       24.372       26.038       27.744      594.004      677.971      769.750        0.232        0.102       49.403       23.100        0.219      344.755       21.799      864.107
09/11/2014  10:14:00       53.588       37.898       14.507       20.685       21.635       22.681      427.872      468.070      514.426        0.296        0.071       65.635       13.819        0.044      344.631       21.586      864.095
09/11/2014  10:15:00       42.672       14.317       28.995       28.926       24.077       22.297      836.698      579.690      497.156        0.239        0.096       45.010       10.976        0.059      344.508       21.377      864.097
09/11/2014  10:16:00       17.259      -26.155        9.185       41.646       29.257       29.724     1734.417      856.000      883.520        0.227        0.174       31.336       16.610        0.281      344.195       20.843      864.091
09/11/2014  10:17:00       48.321      -38.619       13.151       41.931       72.973       36.519     1758.229     5325.130     1333.640        0.621        0.421       61.857       26.645        0.186      344.181       20.818      864.082
09/11/2014  10:18:00       58.839       28.400        7.742       24.189       40.445       32.331      585.113     1635.808     1045.303        0.380        0.163       65.335       16.719        0.065      344.301       21.023      864.090
09/11/2014  10:19:00       92.597       64.764       21.848       55.783       36.214       41.327     3111.692     1311.477     1707.957        0.969        0.307      112.998       16.346        0.021      344.565       21.475      864.083
09/11/2014  10:20:00      109.969       68.596        5.696       45.728       31.936       35.372     2091.073     1019.912     1251.169        1.060        0.218      129.609       12.321        0.009      344.547       21.444      864.083
09/11/2014  10:21:00       57.995       48.313       10.488       26.955       27.794       25.296      726.594      772.519      639.901        0.397        0.107       75.483       11.596        0.024      344.619       21.566      864.080
09/11/2014  10:22:00      110.945       55.916       18.066       36.251       24.082       28.278     1314.117      579.953      799.641        0.923        0.135      124.239       17.108        0.019      344.519       21.395      864.078
09/11/2014  10:23:00       80.365       70.725        8.044       39.588       31.235       29.261     1567.181      975.598      856.219        0.746        0.170      107.054       14.728        0.019      344.616       21.563      864.082
09/11/2014  10:24:00       29.657       60.595       -1.581       30.389       36.163       35.715      923.486     1307.787     1275.533        0.403        0.175       67.463       26.356        0.153      344.872       21.999      864.082
09/11/2014  10:25:00       62.329       48.258       22.676       25.969       32.393       36.641      674.406     1049.312     1342.570        0.490        0.153       78.828       15.590        0.039      344.791       21.860      864.085
09/11/2014  10:26:00       49.715       36.324       29.612       38.052       44.974       40.568     1447.922     2022.697     1645.754        0.489        0.256       61.571       25.144        0.167      344.995       22.210      864.091
09/11/2014  10:27:00       59.072       52.598       30.603       39.058       32.979       27.883     1525.525     1087.591      777.474        0.529        0.170       79.095       18.400        0.054      345.090       22.374      864.085
09/11/2014  10:28:00       75.748       72.567        1.778       42.305       30.419       31.679     1789.732      925.286     1003.540        0.736        0.186      104.899       14.029        0.018      344.735       21.767      864.087
09/11/2014  10:29:00        6.813       87.942        4.520       26.603       45.400       28.212      707.701     2061.117      795.901        0.568        0.178       88.205       28.453        0.104      345.140       22.458      864.084
09/11/2014  10:30:00       -3.564        9.447       20.927       24.829       28.260       21.411      616.489      798.600      458.432        0.121        0.094       10.097       16.561        2.690      345.613       23.269      864.092
09/11/2014  10:31:00       32.835       -5.421       35.443       45.721       40.322       30.525     2090.386     1625.831      931.756        0.351        0.232       33.279       16.777        0.254      344.949       22.130      864.090
09/11/2014  10:32:00       14.180       15.670       37.054       25.197       18.702       18.967      634.864      349.755      359.738        0.158        0.067       21.133        9.388        0.197      345.345       22.810      864.086
09/11/2014  10:33:00       12.657       11.249       29.966       21.509       17.614       16.614      462.620      310.271      276.013        0.112        0.052       16.933       10.427        0.379      345.422       22.943      864.080
09/11/2014  10:34:00       55.036      -22.460       -6.240       37.287       41.108       24.748     1390.342     1689.897      612.440        0.363        0.185       59.443        9.128        0.024      344.410       21.209      864.082
09/11/2014  10:35:00       44.721      -13.671       14.699       26.203       36.244       31.967      686.620     1313.656     1021.871        0.271        0.151       46.764       26.291        0.316      344.798       21.873      864.076
09/11/2014  10:36:00        8.845      -25.951       17.273       28.682       24.244       23.629      822.685      587.785      558.320        0.151        0.098       27.417        9.546        0.121      345.041       22.288      864.080
09/11/2014  10:37:00       12.412        7.691       35.699       17.389       23.952       17.828      302.364      573.707      317.838        0.134        0.060       14.602       14.555        0.994      345.552       23.164      864.076
09/11/2014  10:38:00        3.255       31.484       41.597       29.812       38.418       23.010      888.726     1475.950      529.478        0.281        0.145       31.652       16.182        0.261      345.475       23.033      864.078
09/11/2014  10:39:00       11.292      -12.933       35.985       40.606       73.450       49.446     1648.852     5394.960     2444.862        0.554        0.474       17.169       51.789        9.099      345.142       22.461      864.066
09/11/2014  10:40:00       21.374      -20.067       34.202       29.228       40.169       37.668      854.257     1613.527     1418.906        0.296        0.194       29.318       23.946        0.667      345.558       23.175      864.077
09/11/2014  10:41:00       12.601       30.860       18.733       17.102       18.949       22.503      292.491      359.051      506.382        0.131        0.058       33.333       11.938        0.128      345.136       22.451      864.069
09/11/2014  10:42:00      -25.089        4.623        0.433       17.477       12.279       16.804      305.430      150.774      282.389        0.069        0.037       25.512        9.160        0.129      345.041       22.290      864.069
09/11/2014  10:43:00       -5.424      -12.362       20.455       25.039       12.616       15.046      626.944      159.173      226.396        0.081        0.051       13.500       14.962        1.228      345.418       22.935      864.064
09/11/2014  10:44:00       34.444       16.156        7.117       26.972       24.295       24.994      727.500      590.252      624.708        0.172        0.097       38.045       18.329        0.232      344.678       21.667      864.051
09/11/2014  10:45:00       66.041       -0.870        7.055       29.542       20.695       26.020      872.747      428.301      677.064        0.319        0.099       66.047       14.475        0.048      344.838       21.943      864.046
09/11/2014  10:46:00       16.264       73.297       -4.137       28.067       42.808       30.943      787.781     1832.534      957.453        0.462        0.179       75.080       30.863        0.169      345.558       23.175      864.037
09/11/2014  10:47:00       89.684       83.205       14.339       42.471       34.059       28.300     1803.815     1160.029      800.894        0.947        0.188      122.337       13.061        0.011      345.471       23.024      864.026
09/11/2014  10:48:00       57.488       96.070       -8.480       36.590       53.482       45.477     1338.801     2860.333     2068.161        0.944        0.313      111.957       33.755        0.091      345.206       22.572      864.023
09/11/2014  10:49:00       46.919       31.864       15.991       43.833       43.249       22.495     1921.294     1870.438      506.019        0.388        0.215       56.717       15.612        0.076      345.338       22.798      864.018
09/11/2014  10:50:00        9.948       53.716        1.524       55.262       30.567       30.062     3053.843      934.332      903.697        0.394        0.245       54.630       30.807        0.318      345.331       22.785      864.001
09/11/2014  10:51:00      -27.860       30.215       19.185       25.274       20.181       25.304      638.766      407.276      640.290        0.187        0.084       41.099       21.724        0.279      345.441       22.973      863.995
09/11/2014  10:52:00       15.929       -5.368       26.302       25.264       42.974       23.176      638.265     1846.746      537.106        0.200        0.151       16.809       12.246        0.531      345.529       23.125      863.979
09/11/2014  10:53:00       47.645      -45.640        7.693       39.179       66.443       32.183     1534.967     4414.632     1035.732        0.570        0.349       65.978       34.382        0.272      345.505       23.085      863.968
09/11/2014  10:54:00       14.949        6.576       19.994       19.816       28.736       20.757      392.682      825.784      430.872        0.116        0.082       16.331       19.158        1.376      345.585       23.222      863.968
09/11/2014  10:55:00      -12.872        2.619       28.425       14.976       13.024       13.898      224.272      169.614      193.154        0.078        0.029       13.136        8.876        0.457      346.262       24.384      863.958
09/11/2014  10:56:00       -3.422        1.239       15.426       40.127       13.974       15.753     1610.202      195.286      248.160        0.115        0.103        3.640        8.394        5.320      345.606       23.257      863.955
09/11/2014  10:57:00       59.405       10.974       17.568       25.383       23.648       22.636      644.313      559.216      512.408        0.284        0.086       60.410       16.899        0.078      345.174       22.516      863.943
09/11/2014  10:58:00       18.523       15.734       32.119       35.957       33.772       23.073     1292.911     1140.515      532.382        0.229        0.148       24.303       23.781        0.958      345.420       22.938      863.936
09/11/2014  10:59:00       30.225       31.954       58.314       37.995       42.564       25.378     1443.638     1811.656      644.049        0.462        0.195       43.984       19.866        0.204      345.868       23.706      863.930
09/11/2014  11:00:00       29.186       15.896       41.312       34.065       61.789       29.156     1160.446     3817.916      850.063        0.432        0.291       33.235       34.593        1.083      346.101       24.107      863.920
09/11/2014  11:01:00       37.353       57.410       62.816       56.238       44.268       48.053     3162.714     1959.697     2309.133        0.803        0.372       68.492       39.435        0.331      346.122       24.143      863.906
09/11/2014  11:02:00      119.114       80.903       17.500       49.907       42.160       49.601     2490.706     1777.442     2460.303        1.388        0.336      143.991       26.927        0.035      345.936       23.824      863.892
09/11/2014  11:03:00       65.806      103.884       -4.293       43.045       50.982       34.272     1852.857     2599.168     1174.593        1.038        0.281      122.973       32.498        0.070      345.767       23.533      863.885
09/11/2014  11:04:00       40.637       47.498       -0.672       28.962       33.253       38.271      838.779     1105.794     1464.700        0.366        0.170       62.509       27.355        0.192      345.905       23.770      863.868
09/11/2014  11:05:00       -2.891       25.186       -1.985       30.719       25.216       19.474      943.682      635.840      379.238        0.130        0.098       25.352       14.313        0.319      345.970       23.882      863.861
09/11/2014  11:06:00      -23.309       16.546       22.541       20.915       15.456       16.431      437.450      238.879      269.970        0.114        0.047       28.585       13.655        0.228      346.276       24.409      863.841
09/11/2014  11:07:00      -39.655       12.866        6.194       21.573       15.446       16.568      465.397      238.564      274.484        0.138        0.049       41.690        5.231        0.016      345.831       23.642      863.830
09/11/2014  11:08:00      -67.825       12.214        0.607       13.551       15.837       14.554      183.643      250.799      211.812        0.270        0.032       68.916        8.123        0.014      345.654       23.340      863.811
09/11/2014  11:09:00       32.019      -55.682       17.729       74.429       60.973       37.807     5539.652     3717.729     1429.349        0.756        0.534       64.232       35.510        0.306      346.360       24.553      863.795
09/11/2014  11:10:00       40.891      -39.192       53.869       53.236       80.868       46.223     2834.022     6539.680     2136.526        0.881        0.576       56.640       43.556        0.591      346.738       25.201      863.768
09/11/2014  11:11:00       31.877       43.812       36.358       73.911       57.554       35.247     5462.812     3312.496     1242.373        0.714        0.501       54.182       30.287        0.312      346.725       25.179      863.774
09/11/2014  11:12:00      150.771       87.074       31.290       72.227       61.455       62.147     5216.802     3776.716     3862.231        2.207        0.643      174.108       45.240        0.068      345.986       23.908      863.772
09/11/2014  11:13:00       63.986       65.777       55.879       48.390       37.094       38.152     2341.577     1375.938     1455.572        0.836        0.259       91.765       25.101        0.075      346.240       24.345      863.778
09/11/2014  11:14:00       12.957      -65.358        3.419       29.566       40.569       22.155      874.175     1645.864      490.836        0.373        0.151       66.630       19.547        0.086      346.087       24.082      863.776
09/11/2014  11:15:00      117.202       93.022       59.669       81.665       65.996       42.356     6669.120     4355.435     1794.033        1.938        0.641      149.631       32.248        0.046      345.881       23.726      863.766
09/11/2014  11:16:00       88.038       73.196        9.671       73.847       35.124       40.977     5453.331     1233.699     1679.116        1.078        0.418      114.491       16.628        0.021      345.925       23.804      863.774
09/11/2014  11:17:00       20.167       73.314       -1.693       45.822       47.405       28.107     2099.665     2247.193      789.989        0.546        0.257       76.038       20.011        0.069      346.161       24.209      863.751
09/11/2014  11:18:00       -9.173       60.329      112.817       36.625       62.273       42.239     1341.403     3877.939     1784.174        1.173        0.350       61.022       40.194        0.434      346.549       24.876      863.747
09/11/2014  11:19:00      106.155      119.437      102.585       86.314       55.247       55.971     7450.107     3052.191     3132.720        2.484        0.682      159.794       60.333        0.143      346.092       24.090      863.735
09/11/2014  11:20:00      158.595      105.054       33.597       50.805       43.610       38.603     2581.185     1901.827     1490.221        2.164        0.299      190.233       18.974        0.010      345.989       23.911      863.735
09/11/2014  11:21:00      108.854       92.340       41.227       56.607       37.393       37.269     3204.379     1398.228     1388.966        1.403        0.300      142.744       21.055        0.022      346.073       24.059      863.729
09/11/2014  11:22:00       26.033       55.238      -23.703       48.955       39.439       25.124     2396.553     1555.419      631.238        0.444        0.229       61.065       24.168        0.157      346.237       24.339      863.729
09/11/2014  11:23:00       -2.639       27.467       42.122       27.573       50.494       41.633      760.269     2549.677     1733.300        0.379        0.252       27.593       39.688        2.069      346.756       25.233      863.726
09/11/2014  11:24:00       29.671       38.906       68.507       73.520       62.849       33.819     5405.156     3950.033     1143.726        0.879        0.525       48.929       27.838        0.324      346.786       25.285      863.724
09/11/2014  11:25:00       86.703       83.205        3.471       34.438       37.797       31.908     1185.960     1428.587     1018.149        0.904        0.182      120.169        5.649        0.002      345.985       23.907      863.715
09/11/2014  11:26:00        5.901       18.928       15.980       17.608       16.937       14.555      310.037      286.855      211.838        0.073        0.040       19.827        7.975        0.162      346.766       25.251      863.703
09/11/2014  11:27:00       -9.816        7.648       25.375       18.327       17.136       17.926      335.888      293.627      321.335        0.087        0.048       12.444       12.486        1.007      347.333       26.227      863.688
09/11/2014  11:28:00       12.760       26.668       27.682       33.041       21.302       27.712     1091.677      453.759      767.978        0.198        0.116       29.563       24.399        0.681      347.064       25.764      863.689
09/11/2014  11:29:00       43.959       43.439       46.678       72.405       74.882       45.962     5242.497     5607.247     2112.541        0.948        0.648       61.801       35.103        0.323      346.889       25.460      863.675
09/11/2014  11:30:00      115.297       64.766       41.237       96.539       71.491       42.123     9319.799     5110.892     1774.315        1.769        0.810      132.242       32.418        0.060      346.698       25.132      863.686
09/11/2014  11:31:00       29.340       43.911       58.410       34.714       30.656       33.347     1205.065      939.789     1112.038        0.473        0.163       52.811       16.644        0.099      346.515       24.818      863.672
09/11/2014  11:32:00      -12.713       -1.830       18.694       24.531       39.390       22.263      601.761     1551.591      495.651        0.158        0.132       12.844       15.357        1.429      346.863       25.415      863.657
09/11/2014  11:33:00       63.455       57.971       25.527       62.584       40.256       37.703     3916.722     1620.551     1421.484        0.750        0.348       85.949       28.342        0.109      347.030       25.703      863.644
09/11/2014  11:34:00       27.852      118.547       -6.262       34.512       62.854       38.318     1191.050     3950.624     1468.247        1.074        0.330      121.775       37.783        0.096      346.464       24.731      863.638
09/11/2014  11:35:00      173.574      115.079        9.783       72.234       45.124       30.565     5217.821     2036.185      934.205        2.583        0.409      208.258       20.145        0.009      346.335       24.505      863.631
09/11/2014  11:36:00       85.319       46.705       65.237       66.689       48.312       44.360     4447.430     2334.074     1967.852        1.123        0.437       97.266       33.370        0.118      346.713       25.158      863.621
09/11/2014  11:37:00      134.772       92.219       22.698       65.563       44.678       54.636     4298.532     1996.159     2985.104        1.823        0.464      163.303       40.132        0.060      346.456       24.716      863.618
09/11/2014  11:38:00      104.008       86.986        8.304       46.965       31.559       37.933     2205.686      995.962     1438.908        1.155        0.232      135.589       25.218        0.035      346.320       24.483      863.612
09/11/2014  11:39:00       42.287       51.300        6.880       30.844       32.363       28.829      951.378     1047.347      831.091        0.365        0.141       66.482       12.025        0.033      346.481       24.760      863.605
09/11/2014  11:40:00       -7.767       52.121       10.613       26.037       53.371       31.454      677.923     2848.417      989.385        0.370        0.226       52.697       24.556        0.217      346.964       25.592      863.584
09/11/2014  11:41:00       -8.036       19.903       10.326       20.215       43.225       22.568      408.646     1868.399      509.311        0.168        0.139       21.464       17.026        0.629      347.175       25.954      863.577
09/11/2014  11:42:00      -39.219       -2.914        4.478       23.430       24.316       20.373      548.944      591.258      415.070        0.156        0.078       39.327       13.122        0.111      346.451       24.708      863.551
09/11/2014  11:43:00      -42.073       50.748        2.795       30.309       32.550       30.894      918.637     1059.482      954.429        0.364        0.147       65.920       23.974        0.132      347.019       25.686      863.544
09/11/2014  11:44:00       -8.185        7.042       27.822       23.510       15.579       18.584      552.730      242.694      345.371        0.102        0.057       10.798       12.382        1.315      347.656       26.785      863.525
09/11/2014  11:45:00       -3.245       15.073       20.602       33.434       17.668       21.544     1117.837      312.172      464.144        0.128        0.095       15.418       19.345        1.574      346.973       25.608      863.521
09/11/2014  11:46:00       73.930       31.869        7.733       46.510       36.339       34.803     2163.182     1320.489     1211.232        0.562        0.235       80.506       17.419        0.047      347.048       25.735      863.493
09/11/2014  11:47:00       17.918      -17.426       50.194       44.108       63.275       31.820     1945.510     4003.706     1012.536        0.505        0.348       24.995       23.558        0.888      347.564       26.626      863.488
09/11/2014  11:48:00       70.833      114.929       86.491       70.863       57.663       59.228     5021.628     3325.040     3507.903        1.878        0.593      135.004       52.387        0.151      346.996       25.647      863.476
09/11/2014  11:49:00       83.386       80.260       29.312       44.486       44.494       32.604     1978.996     1979.677     1062.989        0.964        0.251      115.736       14.643        0.016      346.622       25.002      863.476
09/11/2014  11:50:00       -9.131        6.842       -6.035       35.897       35.516       23.165     1288.611     1261.361      536.595        0.163        0.154       11.410       20.164        3.123      347.065       25.765      863.460
09/11/2014  11:51:00      -10.627        3.103       11.421       25.452       20.723       14.661      647.813      429.460      214.943        0.077        0.065       11.071       12.325        1.239      347.610       26.704      863.458
09/11/2014  11:52:00      -66.339      -15.133       11.747       58.436       41.564       27.134     3414.749     1727.606      736.275        0.532        0.294       68.043       25.374        0.139      346.900       25.481      863.437
09/11/2014  11:53:00        3.263       37.315       55.334       35.036       48.598       22.581     1227.507     2361.742      509.890        0.428        0.205       37.458       15.643        0.174      347.530       26.566      863.438
09/11/2014  11:54:00       98.287      100.411       72.383       69.314       38.883       52.884     4804.388     1511.854     2796.735        1.705        0.456      140.509       43.280        0.095      346.833       25.363      863.416
09/11/2014  11:55:00      -13.417       69.023      -14.017       80.474       43.427       39.286     6476.144     1885.911     1543.373        0.752        0.495       70.315       30.253        0.185      346.461       24.725      863.407
09/11/2014  11:56:00       63.235       54.986       14.291       43.043       33.513       37.658     1852.708     1123.145     1418.149        0.581        0.220       83.798       18.523        0.049      347.033       25.709      863.387
09/11/2014  11:57:00       20.570       31.229       42.153       26.536       32.356       30.300      704.155     1046.920      918.119        0.292        0.133       37.395       16.696        0.199      347.572       26.639      863.380
09/11/2014  11:58:00      131.451       64.540       66.105      105.441      125.037       74.992    11117.722    15634.360     5623.733        2.909        1.619      146.441       66.279        0.205      347.009       25.665      863.360
09/11/2014  11:59:00      148.105       92.826       43.167       60.908       43.492       55.183     3709.808     1891.550     3045.201        2.053        0.432      174.790       39.525        0.051      346.914       25.504      863.367
09/11/2014  12:00:00      175.197      116.223       27.134       73.395       48.165       46.520     5386.878     2319.911     2164.123        2.740        0.494      210.242       29.858        0.020      346.555       24.883      863.365
09/11/2014  12:01:00      103.518      100.915       20.429       84.566       44.335       32.817     7151.394     1965.568     1076.976        1.575        0.510      144.568       32.317        0.050      346.625       25.005      863.364
09/11/2014  12:02:00       57.665       65.740       27.353       68.161       35.648       32.135     4645.887     1270.744     1032.657        0.767        0.347       87.447       27.096        0.096      346.911       25.500      863.342
09/11/2014  12:03:00       29.071      -33.056       53.509       44.512       94.471       46.486     1981.346     8924.726     2160.946        0.893        0.653       44.021       41.862        0.904      347.289       26.151      863.327
09/11/2014  12:04:00       71.872       69.270       57.988       51.570       43.669       46.550     2659.493     1906.963     2166.882        1.003        0.337       99.819       34.823        0.122      346.949       25.564      863.319
09/11/2014  12:05:00       90.958       52.037       11.004       48.730       48.487       41.373     2374.609     2350.955     1711.705        0.877        0.322      104.791       27.104        0.067      346.611       24.984      863.329
09/11/2014  12:06:00      -29.342      -47.826      -14.946       29.066       20.555       10.963      844.837      422.498      120.180        0.238        0.069       56.109        7.243        0.017      346.569       24.910      863.308
09/11/2014  12:07:00      -61.082      -34.451       -3.978       48.749       32.766       18.240     2376.479     1073.640      332.699        0.436        0.189       70.128       16.003        0.052      346.783       25.280      863.289
09/11/2014  12:08:00       35.462       29.257       17.071       25.541       37.819       24.283      652.362     1430.269      589.669        0.254        0.134       45.973       18.786        0.167      347.466       26.456      863.278
09/11/2014  12:09:00       31.958       26.622       11.975       32.108       33.157       28.606     1030.904     1099.414      818.326        0.241        0.147       41.594       13.866        0.111      347.538       26.580      863.268
09/11/2014  12:10:00       24.523       25.265       25.652       36.581       36.029       29.772     1338.191     1298.096      886.398        0.271        0.176       35.209       26.112        0.550      347.666       26.801      863.254
09/11/2014  12:11:00       40.945       38.886       38.225       45.004       32.338       33.489     2025.335     1045.771     1121.525        0.442        0.210       56.468       22.147        0.154      347.621       26.722      863.239
09/11/2014  12:12:00       31.281       42.406       76.960       53.264       52.877       47.244     2837.078     2795.980     2232.037        0.828        0.393       52.695       41.310        0.615      347.780       26.997      863.243
09/11/2014  12:13:00      122.277       74.267       24.790       61.174       37.764       56.342     3742.292     1426.104     3174.377        1.471        0.417      143.064       30.191        0.045      346.995       25.642      863.242
09/11/2014  12:14:00       32.752       52.942        8.848       48.243       42.418       31.080     2327.397     1799.268      965.994        0.452        0.255       62.254       26.932        0.187      347.452       26.432      863.233
09/11/2014  12:15:00       54.999       73.012       -5.311       39.194       42.078       28.016     1536.206     1770.570      784.879        0.624        0.205       91.409       22.183        0.059      347.524       26.557      863.227
09/11/2014  12:16:00       60.700       40.799       13.624       40.394       24.993       30.267     1631.688      624.637      916.116        0.435        0.159       73.137       15.054        0.042      347.280       26.135      863.216
09/11/2014  12:17:00        3.752       -6.947       -9.061       15.402       22.540       16.487      237.229      508.035      271.829        0.058        0.051        7.895        9.076        1.321      347.446       26.422      863.208
09/11/2014  12:18:00       59.531      -51.860       -9.191       52.646       52.391       42.101     2771.653     2744.852     1772.455        0.680        0.364       78.952       31.177        0.156      347.457       26.440      863.191
09/11/2014  12:19:00       24.178      -37.916       37.267       40.275       58.061       35.443     1622.097     3371.099     1256.232        0.483        0.312       44.969       29.486        0.430      347.666       26.801      863.173
09/11/2014  12:20:00       29.540       11.868       63.182       42.837       31.308       29.071     1835.028      980.174      845.150        0.433        0.183       31.835       19.299        0.368      348.017       27.406      863.160
09/11/2014  12:21:00      125.080       95.532       57.040      113.091       63.305       56.368    12789.487     4007.477     3177.296        2.400        0.999      157.389       40.218        0.065      347.821       27.065      863.149
09/11/2014  12:22:00       21.688       51.887       81.465       59.504       53.262       35.182     3540.754     2836.821     1237.806        0.871        0.381       56.237       26.598        0.224      347.851       27.120      863.147
09/11/2014  12:23:00       57.836     -119.469       17.203       55.026       37.578       39.448     3027.848     1412.073     1556.170        1.195        0.300      132.732       38.207        0.083      347.251       26.085      863.136
09/11/2014  12:24:00       11.909      -55.495        1.060       21.255       24.230       31.639      451.767      587.080     1001.053        0.263        0.102       56.758       21.810        0.148      347.089       25.806      863.120
09/11/2014  12:25:00       -6.390      -33.483       -2.282       26.297       28.004       21.346      691.546      784.213      455.667        0.155        0.097       34.087       11.536        0.115      347.664       26.796      863.098
09/11/2014  12:26:00       29.475       43.609       19.580       42.239       33.028       29.739     1784.101     1090.876      884.392        0.346        0.188       52.636       30.688        0.340      348.021       27.413      863.074
09/11/2014  12:27:00       46.603       43.886       52.740       45.468       59.587       23.697     2067.310     3550.600      561.545        0.653        0.309       64.015       22.756        0.126      347.703       26.865      863.066
09/11/2014  12:28:00       25.509       63.461      108.734       54.148       88.223       66.711     2932.025     7783.348     4450.308        1.583        0.758       68.395       68.420        1.001      347.958       27.305      863.055
09/11/2014  12:29:00       60.405       63.934       94.727       49.063       62.838       39.465     2407.169     3948.585     1557.451        1.231        0.396       87.956       38.906        0.196      347.522       26.552      863.053
09/11/2014  12:30:00       22.070       26.398       35.023       48.757       45.349       28.386     2377.249     2056.553      805.774        0.382        0.262       34.408       25.185        0.536      347.491       26.499      863.049
09/11/2014  12:31:00        5.165      -39.496       28.606       34.190       53.250       37.676     1168.988     2835.544     1419.445        0.391        0.271       39.832       29.195        0.537      347.902       27.210      863.032
09/11/2014  12:32:00       36.927       88.470       85.280       59.264       41.562       34.643     3512.257     1727.385     1200.123        1.145        0.322       95.867       23.528        0.060      347.769       26.979      863.035
09/11/2014  12:33:00       70.070       53.525       28.066       36.598       38.834       30.794     1339.379     1508.098      948.262        0.618        0.190       88.175       12.881        0.021      347.413       26.364      863.023
09/11/2014  12:34:00       37.831       53.191        7.082       71.366       36.867       39.085     5093.151     1359.197     1527.608        0.614        0.399       65.272       24.767        0.144      347.911       27.223      863.005
09/11/2014  12:35:00       46.314      123.857       -3.405       70.087       72.640       46.503     4912.155     5276.512     2162.499        1.492        0.618      132.233       42.319        0.102      347.600       26.686      862.992
09/11/2014  12:36:00       93.230       72.423       12.788       45.597       40.436       40.059     2079.131     1635.084     1604.738        0.971        0.266      118.055       27.996        0.056      347.451       26.428      862.974
09/11/2014  12:37:00       34.447       38.414        5.861       27.693       17.966       22.591      766.910      322.794      510.347        0.215        0.080       51.597        5.984        0.013      347.896       27.197      862.968
09/11/2014  12:38:00        1.060       38.426       20.851       36.802       35.049       29.240     1354.394     1228.448      854.991        0.267        0.172       38.441       32.392        0.710      348.323       27.936      862.951
09/11/2014  12:39:00      127.449       97.779       13.289       42.170       37.385       35.340     1778.320     1397.636     1248.897        1.520        0.221      160.636       18.398        0.013      347.631       26.739      862.941
09/11/2014  12:40:00      119.359      103.619       14.920       50.705       44.025       41.963     2570.951     1938.226     1760.915        1.574        0.314      158.062       31.475        0.040      347.342       26.241      862.927
09/11/2014  12:41:00       50.970       37.673        4.936       54.268       42.941       30.449     2945.044     1843.904      927.126        0.488        0.286       63.381       26.829        0.179      347.727       26.906      862.925
09/11/2014  12:42:00       15.329       48.546       -8.443       39.811       25.473       27.436     1584.952      648.864      752.731        0.282        0.149       50.909       19.296        0.144      347.550       26.600      862.914
09/11/2014  12:43:00      -12.270       58.865       21.265       49.052       29.431       33.367     2406.103      866.168     1113.375        0.423        0.219       60.130       38.102        0.402      347.962       27.312      862.878
09/11/2014  12:44:00       36.465       15.131       39.635       32.856       19.825       23.030     1079.546      393.014      530.388        0.257        0.100       39.480       19.394        0.241      348.356       27.993      862.881
09/11/2014  12:45:00       68.362       40.299        7.794       40.919       30.296       37.574     1674.354      917.825     1411.788        0.518        0.200       79.356       14.718        0.034      348.088       27.530      862.860
09/11/2014  12:46:00        1.698       56.769       -7.320       37.413       36.343       22.706     1399.712     1320.848      515.566        0.326        0.162       56.795       14.965        0.069      347.913       27.226      862.848
09/11/2014  12:47:00      -25.241       -0.495       -1.249       24.155       32.027       15.566      583.453     1025.733      242.306        0.124        0.093       25.246       10.765        0.182      348.161       27.655      862.825
09/11/2014  12:48:00       29.894       23.140       36.969       34.566       36.002       17.460     1194.807     1296.179      304.844        0.280        0.140       37.804       15.114        0.160      348.378       28.030      862.811
09/11/2014  12:49:00       42.432       54.244        2.520       26.245       36.718       28.507      688.812     1348.226      812.677        0.380        0.142       68.868       25.111        0.133      348.059       27.478      862.804
09/11/2014  12:50:00       33.209       20.067       16.143       23.245       18.858       22.006      540.311      355.620      484.255        0.157        0.069       38.802       13.494        0.121      348.447       28.150      862.791
09/11/2014  12:51:00       33.748      -30.163       48.441       62.159       81.424       43.756     3863.696     6629.833     1914.602        0.840        0.620       45.263       50.112        1.226      348.390       28.052      862.799
09/11/2014  12:52:00       32.186      -10.528       38.033       44.220       40.735       24.984     1955.442     1659.304      624.189        0.342        0.212       33.864       27.029        0.637      348.225       27.766      862.790
09/11/2014  12:53:00      -10.725      -12.831       11.454       22.153       34.033       27.355      490.743     1158.246      748.306        0.140        0.120       16.723       23.948        2.051      348.370       28.018      862.780
09/11/2014  12:54:00       45.304       44.211       25.257       45.792       31.300       27.345     2096.914      979.716      747.743        0.423        0.191       63.301       18.948        0.090      348.222       27.762      862.772
09/11/2014  12:55:00       58.549       34.771       14.645       51.584       46.733       38.419     2660.870     2183.940     1476.057        0.559        0.316       68.096       23.644        0.121      348.444       28.145      862.769
09/11/2014  12:56:00       75.515       58.704       53.380       79.697       54.141       32.581     6351.544     2931.284     1061.538        1.117        0.517       95.648       27.063        0.080      348.608       28.429      862.765
09/11/2014  12:57:00      117.992       72.693       53.946       78.849       59.428       57.277     6217.131     3531.681     3280.621        1.757        0.651      138.587       41.680        0.090      348.652       28.502      862.764
09/11/2014  12:58:00      147.480       62.047       50.422      104.193       71.821       59.875    10856.157     5158.307     3585.028        2.387        0.980      160.000       49.345        0.095      348.209       27.737      862.759
09/11/2014  12:59:00       48.500      -16.771       52.714       62.952       73.957       56.704     3962.996     5469.658     3215.387        0.903        0.632       51.318       49.201        0.919      348.376       28.027      862.750
09/11/2014  13:00:00       28.923      -30.348       34.197       64.793       78.614       45.111     4198.113     6180.158     2034.963        0.767        0.621       41.924       24.771        0.349      348.364       28.007      862.727
09/11/2014  13:01:00       62.602     -118.977       12.999       63.074       89.869       68.739     3978.287     8076.410     4725.024        1.751        0.839      134.441       59.782        0.198      348.023       27.417      862.727
09/11/2014  13:02:00       50.681      -16.828       15.028       45.399       68.630       30.523     2061.099     4710.106      931.640        0.539        0.385       53.401       19.766        0.137      348.120       27.585      862.719
09/11/2014  13:03:00        2.952      -48.353       24.993       19.719       51.126       18.023      388.852     2613.896      324.845        0.315        0.166       48.443       10.569        0.048      348.368       28.013      862.714
09/11/2014  13:04:00       13.588      -24.195       30.057       17.915       27.788       15.416      320.950      772.149      237.646        0.150        0.067       27.749       12.149        0.192      348.798       28.757      862.691
09/11/2014  13:05:00       13.988       29.784       38.031       47.057       27.607       26.242     2214.404      762.149      688.644        0.310        0.183       32.905       16.492        0.251      348.860       28.864      862.662
09/11/2014  13:06:00       31.936       69.014       10.166       69.948       27.979       33.191     4892.686      782.840     1101.623        0.633        0.339       76.045       32.967        0.188      348.495       28.233      862.665
09/11/2014  13:07:00       62.027       39.217       37.392       51.835       57.125       37.404     2686.879     3263.300     1399.057        0.707        0.367       73.385       20.177        0.076      348.658       28.514      862.648
09/11/2014  13:08:00      -10.947       -1.851       54.388       44.615       64.780       44.130     1990.495     4196.437     1947.444        0.561        0.407       11.102       47.363       18.201      349.163       29.389      862.639
09/11/2014  13:09:00       56.969       74.182       75.426       68.321       67.817       61.664     4667.703     4599.121     3802.500        1.375        0.653       93.533       54.814        0.343      348.491       28.225      862.612
09/11/2014  13:10:00       14.751       75.439       30.569       37.863       59.182       53.627     1433.626     3502.529     2875.857        0.733        0.391       76.867       42.247        0.302      348.399       28.067      862.588
09/11/2014  13:11:00       -5.111      188.716      -18.397       37.337       64.469       27.314     1394.054     4156.242      746.078        2.114        0.315      188.785       24.818        0.017      348.075       27.506      862.577
09/11/2014  13:12:00       49.217      122.500       -8.288       57.806       70.544       38.670     3341.558     4976.502     1495.393        1.365        0.491      132.017       26.353        0.040      348.476       28.199      862.554
09/11/2014  13:13:00       65.256       80.639       12.435       59.088       45.912       35.210     3491.347     2107.907     1239.718        0.888        0.342      103.736       25.469        0.060      348.412       28.091      862.547
09/11/2014  13:14:00      128.908      109.019       19.202       80.083       60.697       42.231     6413.320     3684.092     1783.451        2.037        0.594      168.826       38.206        0.051      348.279       27.858      862.521
09/11/2014  13:15:00      190.069       92.122       28.970      101.468       79.770       60.147    10295.799     6363.212     3617.654        3.286        1.014      211.217       41.583        0.039      348.578       28.372      862.513
09/11/2014  13:16:00      109.423       90.807       67.228      114.849       75.969       69.307    13190.383     5771.360     4803.478        2.425        1.188      142.194       68.347        0.231      348.636       28.475      862.510
09/11/2014  13:17:00       46.044       36.260       30.667       44.564       36.225       48.793     1985.958     1312.282     2380.755        0.503        0.284       58.607       34.966        0.356      348.826       28.806      862.504
09/11/2014  13:18:00       24.448       37.104        9.737       56.025       34.070       32.237     3138.832     1160.779     1039.245        0.370        0.267       44.434       20.270        0.208      348.557       28.341      862.491
09/11/2014  13:19:00       16.886       31.050        8.000       39.100       28.324       33.260     1528.793      802.243     1106.242        0.237        0.172       35.344       18.769        0.282      348.874       28.888      862.491
09/11/2014  13:20:00       15.974       46.775        4.918       64.928       44.562       31.448     4215.605     1985.739      988.957        0.483        0.360       49.427       17.130        0.120      348.624       28.456      862.478
09/11/2014  13:21:00        5.141       42.680       15.235       70.697       43.221       40.167     4998.000     1868.028     1613.386        0.528        0.424       42.989       24.151        0.316      348.522       28.280      862.475
09/11/2014  13:22:00       38.370        6.912        8.847       45.761       43.854       25.003     2094.099     1923.140      625.132        0.312        0.232       38.988       11.655        0.089      348.522       28.279      862.472
09/11/2014  13:23:00      -27.882       47.296       -5.681       39.968       68.230       30.996     1597.428     4655.349      960.776        0.513        0.361       54.903       32.391        0.348      348.726       28.633      862.459
09/11/2014  13:24:00      -45.857       84.948       -3.293       31.729       56.488       32.907     1006.759     3190.913     1082.851        0.730        0.264       96.535       32.299        0.112      348.517       28.272      862.442
09/11/2014  13:25:00      -52.145       74.672       -7.336       34.032       35.305       23.876     1158.158     1246.410      570.063        0.566        0.149       91.077       24.098        0.070      348.627       28.461      862.414
09/11/2014  13:26:00       49.802      190.396      -26.887       89.639       75.655       46.409     8035.112     5723.742     2153.806        2.768        0.796      196.801       42.107        0.046      348.334       27.953      862.389
09/11/2014  13:27:00       20.873       26.137       11.725       44.189       37.381       32.842     1952.686     1397.342     1078.592        0.284        0.221       33.449       22.440        0.450      348.851       28.848      862.369
09/11/2014  13:28:00        7.495       60.548        8.514       82.272       93.694       58.183     6768.611     8778.493     3385.218        1.136        0.947       61.010       53.307        0.763      348.841       28.829      862.324
09/11/2014  13:29:00       96.124      -36.337       85.040      120.353      133.509       81.942    14484.916    17824.650     6714.433        2.840        1.951      102.763       84.279        0.673      348.910       28.949      862.305
09/11/2014  13:30:00      139.545      121.273       93.539      107.989       82.740       79.408    11661.624     6845.833     6305.655        3.387        1.241      184.878       75.727        0.168      348.474       28.193      862.304
09/11/2014  13:31:00       71.527       37.528       68.090       80.622       61.649       49.142     6499.943     3800.640     2414.974        1.194        0.636       80.774       38.564        0.228      348.674       28.541      862.293
09/11/2014  13:32:00       70.298      -42.778       31.075       72.606      106.228       62.953     5271.671    11284.487     3963.135        1.412        1.026       82.291       66.149        0.646      348.742       28.659      862.289
09/11/2014  13:33:00       18.967      -62.913        2.436       54.059       88.705       58.274     2922.387     7868.599     3395.916        0.925        0.709       65.710       45.794        0.486      348.755       28.682      862.261
09/11/2014  13:34:00      -55.606       -5.636       11.712       38.862       39.923       26.321     1510.254     1593.822      692.808        0.353        0.190       55.891       21.188        0.144      348.763       28.696      862.243
09/11/2014  13:35:00       -6.382      -21.522       11.750       43.564       44.167       31.866     1897.820     1950.687     1015.439        0.275        0.243       22.448       23.987        1.142      348.906       28.945      862.230
09/11/2014  13:36:00       24.315      -21.702       -3.980       41.371       52.807       30.154     1711.591     2788.617      909.258        0.324        0.270       32.591       28.066        0.742      348.656       28.512      862.212
09/11/2014  13:37:00       15.854      -62.619        5.740       41.579       46.178       29.704     1728.790     2132.410      882.338        0.447        0.237       64.595       24.747        0.147      348.564       28.353      862.193
09/11/2014  13:38:00        7.795       -0.944       25.437       41.940       27.712       28.614     1758.962      767.942      818.787        0.203        0.167        7.852       21.096        7.219      349.082       29.250      862.187
09/11/2014  13:39:00      109.351       99.474       51.486       81.086       55.076       58.921     6574.955     3033.416     3471.665        1.879        0.654      147.827       46.790        0.100      348.855       28.855      862.176
09/11/2014  13:40:00       40.896       17.997       40.765       56.267       58.776       51.932     3165.945     3454.627     2696.893        0.649        0.466       44.680       39.139        0.767      349.298       29.624      862.173
09/11/2014  13:41:00      112.938     -155.192        1.533      110.001      107.575       66.095    12100.128    11572.339     4368.522        3.244        1.402      191.936       64.041        0.111      348.808       28.772      862.151
09/11/2014  13:42:00      110.151     -140.970        3.413       64.916       95.068       63.882     4214.116     9037.941     4080.956        2.467        0.867      178.901       61.472        0.118      348.679       28.548      862.149
09/11/2014  13:43:00       86.073     -180.514      -19.314       31.926       65.313       27.193     1019.259     4265.842      739.476        2.319        0.301      199.985       17.011        0.007      348.233       27.777      862.149
09/11/2014  13:44:00       51.166      -19.258       10.223       39.999       76.272       42.661     1599.891     5817.357     1819.989        0.616        0.462       54.671       31.444        0.331      348.676       28.546      862.122
09/11/2014  13:45:00       70.722      -48.132       10.938       55.751       39.886       37.135     3108.174     1590.920     1378.993        0.676        0.304       85.547       29.621        0.120      348.549       28.328      862.093
09/11/2014  13:46:00       19.601      -89.408        0.954       27.734       29.470       28.316      769.158      868.461      801.779        0.541        0.122       91.531       12.179        0.018      348.443       28.142      862.093
09/11/2014  13:47:00       43.551      -56.196        8.547       44.872       54.075       39.219     2013.462     2924.056     1538.099        0.580        0.324       71.096       31.650        0.198      348.750       28.675      862.075
09/11/2014  13:48:00       83.710       86.623       68.284      102.599       59.266       39.281    10526.617     3512.470     1542.994        1.738        0.779      120.461       37.549        0.097      348.900       28.933      862.047
09/11/2014  13:49:00      180.152      109.945       34.290       99.183       82.433       61.014     9837.266     6795.247     3722.692        3.303        1.018      211.051       30.328        0.021      348.667       28.528      862.043
09/11/2014  13:50:00      157.202      119.470        9.620       88.890       62.535       55.073     7901.463     3910.685     3033.033        2.696        0.742      197.448       28.185        0.020      348.621       28.449      862.034
09/11/2014  13:51:00       58.651       85.220       66.498       58.200       55.792       66.290     3387.247     3112.729     4394.323        1.301        0.545      103.453       40.930        0.157      348.800       28.760      862.034
09/11/2014  13:52:00       80.790       68.457       43.002       62.658       59.722       59.126     3926.072     3566.767     3495.855        1.202        0.549      105.893       40.443        0.146      348.996       29.098      862.022
09/11/2014  13:53:00       75.688      115.936      117.927       80.731       77.308       68.280     6517.549     5976.584     4662.114        2.511        0.858      138.455       63.313        0.209      348.697       28.581      862.005
09/11/2014  13:54:00       51.791       82.046        2.896       71.509       22.288       29.130     5113.519      496.759      848.531        0.794        0.323       97.025       37.275        0.148      348.195       27.713      862.016
09/11/2014  13:55:00      -99.433       23.229      -13.566       43.572       32.608       21.058     1898.549     1063.289      443.439        0.701        0.170      102.111       21.342        0.044      348.375       28.025      861.975
09/11/2014  13:56:00      -95.706      122.339      -18.458       33.345       38.382       27.600     1111.915     1473.184      761.761        1.391        0.167      155.327       24.628        0.025      348.455       28.164      861.946
09/11/2014  13:57:00      -36.275       69.051        1.116       34.636       36.276       28.128     1199.627     1315.979      791.180        0.470        0.165       78.000       28.567        0.134      348.820       28.796      861.926
09/11/2014  13:58:00       -9.576       33.891        0.056       19.496       32.408       24.409      380.087     1050.306      595.783        0.163        0.101       35.218       16.262        0.213      348.788       28.738      861.916
09/11/2014  13:59:00      -37.757       61.107      -20.740       20.453       33.604       20.342      418.318     1129.249      413.803        0.378        0.098       71.830       18.007        0.063      348.517       28.271      861.910
09/11/2014  14:00:00       42.136       38.127       13.832       30.170       22.588       21.628      910.249      510.223      467.757        0.265        0.094       56.825       11.400        0.040      348.835       28.821      861.903
09/11/2014  14:01:00       22.158       29.884       23.659       28.894       31.875       20.619      834.892     1016.017      425.150        0.211        0.114       37.203       13.624        0.134      349.105       29.290      861.886
09/11/2014  14:02:00       16.746       10.620       30.178       31.178       48.128       27.561      972.059     2316.333      759.625        0.268        0.202       19.829       15.266        0.593      349.287       29.605      861.873
09/11/2014  14:03:00       38.684      -48.509       -3.797       63.305       51.348       41.941     4007.483     2636.593     1759.021        0.613        0.420       62.045       37.524        0.366      348.802       28.763      861.868
09/11/2014  14:04:00       60.818      -29.935       29.558       56.241       75.286       43.985     3163.029     5668.010     1934.712        0.812        0.538       67.786       50.566        0.556      348.967       29.050      861.857
09/11/2014  14:05:00       46.416      -11.439       45.042       63.333       80.535       47.088     4011.129     6485.899     2217.236        0.851        0.636       47.805       46.109        0.930      349.207       29.464      861.837
09/11/2014  14:06:00       39.315        3.140       26.507       39.136       88.964       45.053     1531.645     7914.544     2029.761        0.687        0.574       39.440       31.260        0.628      349.421       29.836      861.821
09/11/2014  14:07:00       68.219      125.457      126.577       93.641       71.461       64.403     8768.635     5106.737     4147.772        2.722        0.901      142.805       51.126        0.128      349.201       29.453      861.834
09/11/2014  14:08:00       95.815     -143.514        6.852       76.110      124.842       58.228     5792.736    15585.427     3390.446        2.729        1.238      172.559       50.124        0.084      348.712       28.606      861.855
09/11/2014  14:09:00      134.496      -75.749       41.419      111.159       99.578       76.123    12356.269     9915.849     5794.670        2.680        1.403      154.360       81.436        0.278      348.872       28.884      861.860
09/11/2014  14:10:00      128.040     -184.214      -11.448       62.331       69.419       42.472     3885.143     4818.942     1803.829        3.048        0.525      224.341       28.233        0.016      348.611       28.431      861.857
09/11/2014  14:11:00      154.645     -123.693       19.839       62.735      121.107       62.254     3935.737    14666.906     3875.610        3.104        1.124      198.028       68.430        0.119      348.782       28.726      861.840
09/11/2014  14:12:00      125.915      -81.507        5.065       98.126       69.387       47.178     9628.725     4814.515     2225.753        1.959        0.833      149.993       47.147        0.099      348.732       28.640      861.840
09/11/2014  14:13:00       22.742      -41.478       33.780       41.086       77.030       62.114     1688.053     5933.550     3858.089        0.743        0.574       47.303       60.169        1.618      348.957       29.032      861.836
09/11/2014  14:14:00       14.284      -23.244       14.168       30.981       49.331       32.768      959.807     2433.580     1073.767        0.271        0.223       27.282       34.650        1.613      349.185       29.428      861.833
09/11/2014  14:15:00       15.217       79.282      119.203       45.329       87.922       78.695     2054.759     7730.316     6192.940        1.835        0.799       80.729       75.706        0.879      348.823       28.799      861.828
09/11/2014  14:16:00      171.887       39.528       74.023       50.211       66.613       54.784     2521.177     4437.258     3001.296        2.327        0.498      176.374       53.046        0.090      348.411       28.087      861.825
09/11/2014  14:17:00       88.593       47.077       22.043       63.388       35.836       41.800     4018.086     1284.192     1747.233        0.880        0.352      100.325       26.677        0.071      348.498       28.238      861.806
09/11/2014  14:18:00        0.089       11.591        0.366       33.494       30.240       24.556     1121.815      914.473      603.005        0.139        0.132       11.591       12.204        1.109      348.660       28.517      861.774
09/11/2014  14:19:00      -67.817       77.255       -1.914       39.608       38.534       33.433     1568.788     1484.851     1117.751        0.737        0.209      102.798       29.285        0.081      348.750       28.674      861.746
09/11/2014  14:20:00     -121.616       45.002        0.990       54.212       42.509       37.798     2938.944     1806.975     1428.688        1.149        0.309      129.675       32.362        0.062      348.803       28.765      861.715
09/11/2014  14:21:00      -96.623       40.821       -9.896       31.852       25.297       26.419     1014.552      639.927      697.943        0.673        0.118      104.892       14.526        0.019      348.650       28.501      861.682
09/11/2014  14:22:00      -63.209       46.843       -5.768       41.302       45.586       27.969     1705.879     2078.079      782.258        0.539        0.228       78.675       26.856        0.117      348.914       28.958      861.660
09/11/2014  14:23:00     -103.176      -17.134        3.465       63.765       41.672       25.724     4065.988     1736.589      661.725        0.871        0.323      104.589       29.886        0.082      348.897       28.928      861.638
09/11/2014  14:24:00      -16.972       82.943        1.365       38.899       48.424       25.479     1513.113     2344.903      649.182        0.584        0.225       84.661       18.503        0.048      348.976       29.066      861.619
09/11/2014  14:25:00       33.679       81.859        3.968       31.543       46.729       30.228      994.942     2183.620      913.730        0.597        0.205       88.516       25.637        0.084      348.966       29.049      861.617
09/11/2014  14:26:00       13.537       79.519       -7.541       22.943       36.450       29.461      526.381     1328.593      867.941        0.464        0.136       80.663       20.566        0.065      348.795       28.751      861.613
09/11/2014  14:27:00       61.439       58.905       21.323       44.326       22.908       28.611     1964.796      524.797      818.576        0.550        0.165       85.115       12.899        0.023      348.894       28.921      861.610
09/11/2014  14:28:00       19.063       45.002       70.551       53.981       57.036       37.465     2913.942     3253.129     1403.636        0.747        0.379       48.873       27.263        0.311      349.121       29.315      861.589
09/11/2014  14:29:00      220.228      129.079       16.075       98.307       84.490       68.626     9664.189     7138.576     4709.518        4.346        1.076      255.268       28.911        0.013      348.828       28.806      861.587
09/11/2014  14:30:00      121.458      122.836       -3.610       78.814       62.102       59.931     6211.592     3856.604     3591.717        2.175        0.683      172.745       36.734        0.045      348.801       28.761      861.583
09/11/2014  14:31:00       58.997       24.221       28.085       51.553       33.208       30.502     2657.687     1102.783      930.367        0.477        0.235       63.775       18.330        0.083      348.693       28.576      861.553
09/11/2014  14:32:00       26.516       96.075       28.079       53.140      102.090       48.819     2823.836    10422.334     2383.327        1.317        0.781       99.667       54.951        0.304      349.123       29.320      861.533
09/11/2014  14:33:00       37.697      245.957      -35.910       49.832       95.974       46.080     2483.199     9210.973     2123.370        3.851        0.691      248.829       53.939        0.047      348.646       28.490      861.537
09/11/2014  14:34:00        1.549      272.678      -31.010       79.428      139.344       50.359     6308.771    19416.698     2536.001        5.178        1.413      272.682       67.093        0.061      348.628       28.460      861.527
09/11/2014  14:35:00     -165.341       43.605      -22.293       62.658       61.349       33.340     3926.010     3763.741     1111.584        1.927        0.440      170.994       35.862        0.044      348.772       28.711      861.498
09/11/2014  14:36:00     -158.257        1.316       -9.292       58.099       51.374       33.019     3375.465     2639.337     1090.224        1.612        0.355      158.262       23.262        0.022      349.093       29.266      861.484
09/11/2014  14:37:00     -107.697       20.702       -9.430       45.234       41.419       29.407     2046.137     1715.540      864.750        0.837        0.231      109.668       27.535        0.063      348.833       28.817      861.482
09/11/2014  14:38:00        7.388       59.293       15.811       48.889       65.106       32.582     2390.109     4238.761     1061.595        0.575        0.385       59.751       38.939        0.425      349.125       29.324      861.485
09/11/2014  14:39:00        4.110      160.643       -3.170       38.685       87.423       40.144     1496.527     7642.777     1611.557        1.829        0.538      160.696       46.189        0.083      348.870       28.881      861.479
09/11/2014  14:40:00      -24.506      197.131      -15.661       54.138       64.227       38.138     2930.886     4125.081     1454.524        2.411        0.426      198.649       32.734        0.027      348.908       28.945      861.472
09/11/2014  14:41:00      -36.508      140.918      -28.187       34.499       45.697       23.071     1190.189     2088.220      532.267        1.290        0.191      145.570        8.777        0.004      348.746       28.666      861.479
09/11/2014  14:42:00      -35.143       43.834        7.263       50.661       53.343       36.754     2566.508     2845.461     1350.880        0.498        0.338       56.183       27.190        0.234      349.198       29.451      861.451
09/11/2014  14:43:00       54.204       69.275       13.467       48.941       68.976       44.507     2395.247     4757.677     1980.916        0.852        0.457       87.961       31.632        0.129      349.174       29.408      861.442
09/11/2014  14:44:00      126.965      103.588        9.033       97.382       61.664       52.726     9483.189     3802.494     2780.068        2.150        0.803      163.862       31.740        0.038      349.130       29.330      861.433
09/11/2014  14:45:00      212.490      126.008       44.135      125.696       80.271       54.579    15799.440     6443.506     2978.838        4.410        1.261      247.043       56.588        0.052      348.948       29.014      861.399
09/11/2014  14:46:00      141.737      101.273       19.585      128.296       67.965       66.543    16459.948     4619.174     4428.023        2.811        1.275      174.200       34.022        0.038      349.023       29.144      861.397
09/11/2014  14:47:00       49.296      143.969      -19.964       50.474       73.790       41.955     2547.581     5444.929     1760.206        1.665        0.488      152.175       42.706        0.079      348.986       29.081      861.397
09/11/2014  14:48:00       72.466      141.474      -15.652       83.463      106.769       40.342     6966.106    11399.542     1627.517        2.275        1.000      158.954       49.758        0.098      349.078       29.241      861.393
09/11/2014  14:49:00      119.233      103.243        6.665       88.840       84.363       56.004     7892.575     7117.120     3136.450        2.153        0.907      157.720       40.256        0.065      349.157       29.377      861.388
09/11/2014  14:50:00      113.666       40.284       54.893      118.509       69.159       63.428    14044.358     4782.913     4023.162        2.020        1.143      120.593       46.084        0.146      349.261       29.556      861.378
09/11/2014  14:51:00      108.502      -63.674       39.177       78.511       88.636       56.286     6163.980     7856.328     3168.093        1.727        0.859      125.805       66.396        0.279      349.133       29.336      861.358
09/11/2014  14:52:00       58.153      -48.858        6.387       68.702       97.543       38.109     4719.948     9514.691     1452.324        1.075        0.784       75.953        8.059        0.011      349.356       29.723      861.350
09/11/2014  14:53:00       95.124       26.173       78.212      102.644      118.719       81.757    10535.727    14094.205     6684.198        2.358        1.566       98.659       83.427        0.715      349.255       29.546      861.349
09/11/2014  14:54:00      126.110      112.957      105.406       64.940       66.653       57.188     4217.151     4442.626     3270.513        2.585        0.597      169.302       44.671        0.070      348.886       28.906      861.349
09/11/2014  14:55:00       38.830       11.428       54.365       49.175       47.987       36.956     2418.166     2302.752     1365.768        0.534        0.304       40.476       24.363        0.362      349.194       29.442      861.337
09/11/2014  14:56:00       56.734       60.399       71.550       74.601       74.669       51.514     5565.381     5575.388     2653.733        1.289        0.690       82.866       30.117        0.132      349.137       29.343      861.318
09/11/2014  14:57:00       39.908      -82.778        5.560       41.266       93.472       40.344     1702.908     8736.926     1627.622        1.027        0.603       91.896       33.692        0.134      349.154       29.374      861.318
09/11/2014  14:58:00       42.397      -68.475       -7.251       36.816       31.381       27.392     1355.401      984.797      750.294        0.481        0.155       80.538       21.641        0.072      348.756       28.684      861.314
09/11/2014  14:59:00       57.460      -87.874       -5.679       77.875       88.958       40.747     6064.565     7913.551     1660.282        1.334        0.782      104.993       53.963        0.264      349.105       29.288      861.295
09/11/2014  15:00:00       90.887     -122.466      -18.599       45.014       53.651       28.779     2026.221     2878.422      828.221        1.467        0.287      152.507       32.221        0.045      348.811       28.780      861.290
09/11/2014  15:01:00       41.248      -60.097       15.352       42.780       54.744       31.819     1830.106     2996.953     1012.417        0.569        0.292       72.891       33.174        0.207      349.209       29.470      861.280
09/11/2014  15:02:00       -2.970        8.186       36.512       16.692       27.787       20.354      278.609      772.110      414.292        0.144        0.073        8.709       19.892        5.218      349.610       30.165      861.276
09/11/2014  15:03:00       39.375       45.992      -10.437       67.277       60.760       27.949     4526.232     3691.804      781.165        0.639        0.450       60.545       24.031        0.158      349.280       29.591      861.255
09/11/2014  15:04:00       17.479       29.561      -14.422       26.566       31.279       17.188      705.731      978.393      295.420        0.168        0.099       34.342       15.183        0.195      349.084       29.253      861.242
09/11/2014  15:05:00       20.277      -28.131        3.496       28.210       45.300       21.953      795.783     2052.126      481.945        0.227        0.166       34.677       18.785        0.293      349.350       29.713      861.219
09/11/2014  15:06:00       42.883      -65.207        7.140       33.106       36.947       27.663     1096.025     1365.065      765.255        0.468        0.161       78.044       21.299        0.074      349.326       29.672      861.197
09/11/2014  15:07:00      101.620      -49.219       15.904       71.295      119.948       49.563     5083.029    14387.629     2456.514        1.746        1.096      112.912       50.007        0.196      349.358       29.726      861.165
09/11/2014  15:08:00       25.583      -20.756       41.155       60.156      109.263       46.839     3618.738    11938.331     2193.875        1.026        0.888       32.944       64.320        3.812      349.462       29.908      861.151
09/11/2014  15:09:00      137.699       70.263       80.026      147.707      160.890       94.484    21817.263    25885.664     8927.203        4.346        2.832      154.590       91.810        0.353      349.115       29.305      861.140
09/11/2014  15:10:00      128.412       68.995       85.116       87.507       74.324       57.904     7657.439     5524.086     3352.823        2.251        0.827      145.774       53.185        0.133      348.766       28.701      861.145
09/11/2014  15:11:00      115.424       78.155       66.832       71.189       73.551       62.716     5067.827     5409.731     3933.323        1.915        0.721      139.395       58.180        0.174      348.891       28.917      861.131
09/11/2014  15:12:00       79.922       83.214       81.888       60.759       64.924       38.700     3691.712     4215.062     1497.676        1.471        0.470      115.378       34.745        0.091      349.019       29.140      861.124
09/11/2014  15:13:00       58.729       16.804       50.336       54.989       42.961       39.567     3023.757     1845.645     1565.565        0.635        0.322       61.085       39.510        0.418      349.019       29.140      861.117
09/11/2014  15:14:00       76.186       23.887       51.021       61.114       68.564       52.191     3734.870     4700.974     2723.943        1.007        0.558       79.843       49.631        0.386      348.852       28.851      861.100
09/11/2014  15:15:00      -11.507        3.307       -2.364       31.914       20.366       20.630     1018.516      414.763      425.610        0.100        0.093       11.972       20.334        2.885      349.044       29.181      861.060
09/11/2014  15:16:00       -4.795        6.164       20.933       19.337       23.015       18.489      373.906      529.709      341.854        0.087        0.062        7.809       14.413        3.406      349.362       29.734      861.043
09/11/2014  15:17:00       59.211       49.698       36.272       56.984       31.207       29.053     3247.181      973.890      844.056        0.618        0.253       77.304       11.293        0.021      348.993       29.095      861.053
09/11/2014  15:18:00      105.800       45.155       63.597       82.606       58.104       56.824     6823.783     3376.063     3228.925        1.535        0.671      115.033       55.858        0.236      349.181       29.419      861.045
09/11/2014  15:19:00      150.086      100.609       41.521       94.500       73.917       50.585     8930.243     5463.787     2558.812        2.566        0.848      180.688       25.868        0.020      349.101       29.280      861.026
09/11/2014  15:20:00      167.195       79.114       55.355       84.188       59.002       63.317     7087.574     3481.184     4009.085        2.593        0.729      184.968       27.412        0.022      349.188       29.430      861.006
09/11/2014  15:21:00      149.714       89.829       54.105      123.706       81.811       77.882    15303.139     6693.024     6065.581        3.073        1.403      174.595       58.750        0.113      349.163       29.387      860.985
09/11/2014  15:22:00      119.084       72.782       25.248      115.785       81.873       53.495    13406.259     6703.256     2861.676        2.154        1.149      139.564       45.458        0.106      349.423       29.838      860.977
09/11/2014  15:23:00      279.015      175.406       35.773      111.240       96.793       58.560    12374.288     9368.812     3429.221        6.753        1.259      329.570       32.996        0.010      349.038       29.168      860.957
09/11/2014  15:24:00      277.619      185.104       32.660      140.142      123.704       84.808    19639.792    15302.690     7192.398        7.726        2.107      333.670       49.318        0.022      349.011       29.124      860.933
09/11/2014  15:25:00      278.576      165.841       52.502      139.412       93.142       57.366    19435.609     8675.450     3290.826        6.963        1.570      324.203       14.117        0.002      349.065       29.218      860.937
09/11/2014  15:26:00      161.720      129.787       83.587      118.377       88.872       80.454    14013.232     7898.296     6472.887        3.918        1.419      207.360       78.284        0.143      349.299       29.622      860.925
09/11/2014  15:27:00      221.643      158.629       38.717      104.557       92.498       64.961    10932.173     8555.952     4219.947        4.974        1.185      272.560       32.761        0.014      349.248       29.533      860.934
09/11/2014  15:28:00      219.667      140.599       31.980      132.718       83.189       69.444    17614.186     6920.404     4822.516        4.920        1.468      260.809       34.707        0.018      349.126       29.322      860.936
09/11/2014  15:29:00      123.492       67.969       16.856       80.484       62.669       48.776     6477.753     3927.401     2379.082        1.647        0.639      140.961       30.745        0.048      349.142       29.351      860.926
09/11/2014  15:30:00       97.185      122.692       -3.625       82.822       84.891       59.336     6859.511     7206.454     3520.807        2.105        0.879      156.520       47.986        0.094      349.108       29.293      860.923
09/11/2014  15:31:00       33.636      159.192      -12.970       62.223       72.770       42.006     3871.682     5295.482     1764.464        1.878        0.547      162.706       37.163        0.052      349.215       29.477      860.913
09/11/2014  15:32:00       91.448       72.299        6.341       75.376       60.508       35.864     5681.487     3661.219     1286.248        1.213        0.531      116.575       21.043        0.033      349.267       29.569      860.909
09/11/2014  15:33:00       39.738       93.555        2.454       56.330       47.678       37.694     3173.085     2273.214     1420.842        0.860        0.343      101.644       29.683        0.085      349.273       29.581      860.901
09/11/2014  15:34:00       44.848      132.709       -6.034       88.082      100.736       49.762     7758.416    10147.694     2476.293        2.002        1.019      140.082       57.745        0.170      349.403       29.805      860.887
09/11/2014  15:35:00      211.865      154.900       50.004      129.695       95.255       83.812    16820.819     9073.436     7024.504        5.214        1.646      262.452       52.799        0.040      349.238       29.516      860.870
09/11/2014  15:36:00      205.202      134.943       21.362       76.372       66.586       66.245     5832.714     4433.629     4388.448        3.771        0.733      245.596       41.462        0.029      349.154       29.370      860.868
09/11/2014  15:37:00      111.557      114.572        8.758       77.091       60.514       50.001     5943.040     3661.902     2500.134        1.887        0.605      159.911       41.974        0.069      349.151       29.367      860.864
09/11/2014  15:38:00      139.415      101.816       20.205      113.895       77.137       59.539    12972.074     5950.194     3544.913        2.634        1.123      172.635       36.343        0.044      349.350       29.711      860.851
09/11/2014  15:39:00      144.696      135.206       13.516      101.291       73.763       58.962    10259.884     5440.967     3476.530        2.929        0.959      198.034       48.841        0.061      349.201       29.452      860.850
09/11/2014  15:40:00       42.254      153.060      -15.597       55.184       60.105       35.804     3045.253     3612.614     1281.939        1.670        0.397      158.785       27.774        0.031      349.044       29.181      860.851
09/11/2014  15:41:00       70.527       97.190       12.558       51.975       73.001       45.115     2701.418     5329.171     2035.365        1.232        0.503      120.084       44.385        0.137      349.097       29.274      860.845
09/11/2014  15:42:00       15.534       35.521       21.847       29.809       22.369       22.927      888.574      500.350      525.639        0.195        0.096       38.769       17.811        0.211      349.392       29.785      860.815
09/11/2014  15:43:00        9.606      115.284      -16.566       47.183       84.366       28.967     2226.262     7117.606      839.063        1.192        0.509      115.684       30.502        0.070      349.235       29.513      860.805
09/11/2014  15:44:00      121.261      124.785        8.986       67.571       65.038       54.697     4565.840     4229.981     2991.756        2.107        0.589      173.999       40.282        0.054      349.120       29.312      860.807
09/11/2014  15:45:00       89.609      107.183      -15.034       57.828       64.551       49.205     3344.035     4166.878     2421.092        1.484        0.497      139.707       40.730        0.085      349.006       29.115      860.812
09/11/2014  15:46:00        5.670       86.222      -10.233       34.063       49.186       18.833     1160.273     2419.299      354.674        0.575        0.197       86.408       22.504        0.068      349.025       29.149      860.805
09/11/2014  15:47:00       28.330       26.652        5.536       30.314       24.154       17.947      918.934      583.427      322.083        0.168        0.091       38.897       10.559        0.074      349.050       29.194      860.797
09/11/2014  15:48:00       79.773      -64.551       -7.881       44.692       85.063       36.022     1997.338     7235.773     1297.580        1.056        0.527      102.619       43.358        0.179      348.968       29.052      860.805
09/11/2014  15:49:00       93.167     -145.056       15.827       63.427      165.633       81.548     4022.932    27434.440     6650.055        3.403        1.905      172.399       97.875        0.322      349.144       29.353      860.766
09/11/2014  15:50:00      184.728       89.430       38.050       55.029       79.084       69.285     3028.218     6254.284     4800.450        2.882        0.704      205.237       46.234        0.051      348.943       29.003      860.801
09/11/2014  15:51:00       61.171        3.219      -10.540       65.241       58.948       47.951     4256.409     3474.837     2299.334        0.695        0.502       61.255       28.469        0.216      349.009       29.123      860.808
09/11/2014  15:52:00     -104.147      122.932      -21.760       64.720       86.207       39.751     4188.639     7431.647     1580.168        1.981        0.660      161.118       39.457        0.060      349.096       29.273      860.776
09/11/2014  15:53:00     -203.285       66.137      -32.040       44.471       38.384       26.390     1977.705     1473.337      696.437        2.544        0.207      213.773       19.456        0.008      349.135       29.337      860.748
09/11/2014  15:54:00     -154.767       82.942      -30.064       45.465       81.166       33.078     2067.088     6587.938     1094.165        2.074        0.487      175.591       34.590        0.039      349.257       29.551      860.729
09/11/2014  15:55:00     -192.812       16.650      -24.783       43.066       48.033       25.707     1854.685     2307.210      660.837        2.144        0.241      193.529       22.361        0.013      349.103       29.284      860.714
09/11/2014  15:56:00     -166.260       -2.495      -18.405       58.516       98.494       34.622     3424.143     9701.007     1198.651        2.115        0.716      166.278       28.678        0.030      349.383       29.769      860.689
09/11/2014  15:57:00     -168.483      -61.452      -24.359       67.442       43.653       27.702     4548.404     1905.552      767.415        1.999        0.361      179.340       14.724        0.007      349.123       29.318      860.684
09/11/2014  15:58:00       15.334      -99.939       -7.495       38.477       35.712       28.020     1480.453     1275.368      785.097        0.691        0.177      101.109       19.696        0.038      349.287       29.602      860.685
09/11/2014  15:59:00       39.308      -44.961        8.502       28.224       42.263       27.908      796.585     1786.162      778.829        0.350        0.168       59.721       26.777        0.201      349.257       29.552      860.690
09/11/2014  16:00:00        4.136      -31.809       47.610       25.915       71.219       42.141      671.605     5072.136     1775.863        0.541        0.376       32.076       44.194        1.898      349.332       29.682      860.691
09/11/2014  16:01:00       69.026       84.808       74.243       81.215       39.020       49.700     6595.849     1522.570     2470.137        1.403        0.529      109.348       53.375        0.238      349.264       29.564      860.676
09/11/2014  16:02:00      104.009       83.032       21.267       74.664       57.035       47.246     5574.684     3252.942     2232.196        1.461        0.553      133.087       29.532        0.049      349.289       29.608      860.685
09/11/2014  16:03:00      181.625      121.445       66.349       70.311       65.315       51.145     4943.591     4266.013     2615.780        3.198        0.591      218.487       33.301        0.023      349.382       29.764      860.677
09/11/2014  16:04:00       81.588       -2.744       21.950       96.077       81.208       48.796     9230.801     6594.661     2381.082        1.267        0.910       81.634       42.747        0.274      349.379       29.763      860.669
09/11/2014  16:05:00       94.857      -55.282        9.432       53.335       40.732       30.786     2844.670     1659.096      947.757        0.880        0.273      109.791       29.219        0.071      349.051       29.196      860.666
09/11/2014  16:06:00      101.921       56.699       29.546       69.904       45.328       42.015     4886.534     2054.616     1765.277        1.159        0.435      116.631       33.143        0.081      349.377       29.760      860.654
09/11/2014  16:07:00       38.983       17.654       42.921       45.407       57.942       41.355     2061.776     3357.257     1710.271        0.540        0.356       42.794       35.605        0.692      349.393       29.788      860.655
09/11/2014  16:08:00       22.030       42.980       -7.705       29.128       32.701       24.148      848.414     1069.370      583.132        0.245        0.125       48.297       17.475        0.131      349.345       29.704      860.654
09/11/2014  16:09:00       12.527       14.570       21.620       23.859       27.347       22.358      569.273      747.838      499.864        0.133        0.091       19.215        7.669        0.159      349.576       30.106      860.655
09/11/2014  16:10:00       12.285      136.832       -7.422       40.032       50.211       33.899     1602.575     2521.109     1149.122        1.210        0.264      137.383       31.441        0.052      349.284       29.598      860.651
09/11/2014  16:11:00       71.149      112.142      -13.170      100.560       69.999       49.283    10112.397     4899.813     2428.837        1.762        0.872      132.808       22.746        0.029      349.261       29.558      860.660
09/11/2014  16:12:00       -1.296        5.255      -30.521       47.821       30.476       24.474     2286.887      928.791      598.977        0.239        0.191        5.413       29.424       29.550      349.249       29.539      860.689
09/11/2014  16:13:00       18.982      -93.412      -12.768       28.497       52.005       28.840      812.053     2704.544      831.743        0.680        0.217       95.321       29.271        0.094      349.259       29.555      860.656
09/11/2014  16:14:00        6.020      -12.423       17.775       33.835       42.864       22.688     1144.774     1837.346      514.746        0.200        0.175       13.804       24.744        3.213      349.410       29.819      860.631
09/11/2014  16:15:00       11.114       60.784       10.934       29.270       38.255       34.744      856.728     1463.412     1207.171        0.373        0.176       61.792       30.081        0.237      349.465       29.913      860.634
09/11/2014  16:16:00       64.492       44.555        8.405       31.649       23.353       28.782     1001.635      545.359      828.403        0.429        0.119       78.386       14.775        0.036      349.305       29.637      860.635
09/11/2014  16:17:00       28.078       30.937        9.084       44.155       39.377       23.514     1949.701     1550.540      552.891        0.294        0.203       41.779       18.664        0.200      349.562       30.081      860.641
09/11/2014  16:18:00       81.165       51.722       38.028       82.528       49.432       46.140     6810.945     2443.487     2128.927        1.104        0.569       96.244       40.229        0.175      349.480       29.938      860.638
09/11/2014  16:19:00      110.020       66.165       48.406       54.663       53.707       41.115     2988.021     2884.490     1690.416        1.319        0.378      128.383       21.220        0.027      349.324       29.668      860.640
09/11/2014  16:20:00       20.334       15.040       41.320       29.445       72.746       38.719      866.993     5291.927     1499.185        0.500        0.383       25.292       36.837        2.121      349.401       29.802      860.633
09/11/2014  16:21:00       35.391       -8.023        9.055       24.822       23.128       27.705      616.134      534.894      767.579        0.166        0.096       36.289       17.917        0.244      349.320       29.661      860.632
09/11/2014  16:22:00       41.597       24.761       14.407       25.717       22.404       23.830      661.347      501.935      567.889        0.214        0.087       48.408       15.433        0.102      349.261       29.559      860.625
09/11/2014  16:23:00       22.782       16.448       19.457       20.689       29.728       16.722      428.016      883.763      279.636        0.138        0.080       28.099       14.613        0.270      349.413       29.822      860.631
09/11/2014  16:24:00       13.602        7.468       -1.120       21.813       15.662       11.646      475.818      245.297      135.629        0.055        0.043       15.517       10.383        0.448      349.493       29.961      860.630
09/11/2014  16:25:00       -3.956       -9.325        4.536       38.900       20.154       22.375     1513.187      406.172      500.631        0.127        0.121       10.130       19.722        3.791      349.712       30.342      860.616
09/11/2014  16:26:00     -123.295      -19.817      -12.655       25.231       26.627       18.700      636.603      709.023      349.689        0.872        0.085      124.877        5.643        0.002      349.840       30.565      860.582
09/11/2014  16:27:00      -63.806      -73.249      -15.371       90.296       62.082       29.584     8153.316     3854.183      875.203        1.128        0.644       97.142        7.107        0.005      349.706       30.331      860.559
09/11/2014  16:28:00       33.208      -34.959       13.234       91.963       50.798       40.148     8457.255     2580.424     1611.877        0.757        0.632       48.217       33.247        0.475      349.483       29.943      860.551
09/11/2014  16:29:00       37.427     -160.398       16.237      140.958      157.393       91.976    19869.266    24772.537     8459.602        4.024        2.655      164.706       91.441        0.308      349.569       30.090      860.493
09/11/2014  16:30:00      145.277     -335.694      -24.672      160.665      261.201       99.486    25813.239    68225.823     9897.423       11.915        5.197      365.781       84.642        0.054      349.449       29.882      860.367
09/11/2014  16:31:00      217.223      214.821      -37.864      115.029       98.190       63.462    13231.708     9641.339     4027.458        6.083        1.345      305.506       40.668        0.018      349.612       30.164      860.452
09/11/2014  16:32:00      222.808      179.583       19.825      120.408      107.332       67.740    14498.113    11520.090     4588.682        5.644        1.530      286.170       44.812        0.025      349.365       29.736      860.556
09/11/2014  16:33:00      217.713      167.655       25.000       84.161       73.233       64.282     7083.015     5363.000     4132.200        4.635        0.829      274.786       38.051        0.019      349.250       29.537      860.590
09/11/2014  16:34:00      204.585      116.005       17.379      100.237       90.925       48.979    10047.401     8267.391     2398.894        3.816        1.036      235.186       21.190        0.008      349.197       29.444      860.610
09/11/2014  16:35:00       68.085       10.155       20.823       41.134       75.898       51.504     1692.031     5760.566     2652.676        0.764        0.505       68.838       52.774        0.588      349.216       29.481      860.603
09/11/2014  16:36:00       98.866       38.020       78.173       82.110       98.527       83.292     6742.079     9707.492     6937.605        2.036        1.169      105.924       76.827        0.526      349.215       29.477      860.578
09/11/2014  16:37:00       46.574       65.171      105.740       77.772       91.008       62.379     6048.535     8282.415     3891.131        1.791        0.911       80.103       52.168        0.424      349.175       29.410      860.576
09/11/2014  16:38:00       68.338       48.548       27.963       59.002       48.381       36.858     3481.235     2340.746     1358.514        0.749        0.359       83.827       30.790        0.135      349.216       29.482      860.594
09/11/2014  16:39:00       72.868      -41.868       37.664       90.526      104.093       57.851     8195.004    10835.450     3346.690        1.543        1.119       84.039       72.435        0.743      349.374       29.754      860.576
09/11/2014  16:40:00      108.529     -182.180       -8.295       54.273       67.976       36.824     2945.554     4620.754     1356.006        2.698        0.446      212.056       38.915        0.034      349.315       29.650      860.564
09/11/2014  16:41:00      150.285     -148.749      -21.698       71.140       73.630       39.848     5060.838     5421.371     1587.900        2.862        0.604      211.452       26.434        0.016      349.426       29.841      860.551
09/11/2014  16:42:00       93.668     -123.463      -19.201       51.596       41.886       20.867     2662.144     1754.395      435.452        1.462        0.243      154.973       20.568        0.018      349.355       29.721      860.552
09/11/2014  16:43:00       64.402      -95.085      -11.823       77.133       90.985       41.631     5949.516     8278.210     1733.143        1.464        0.798      114.842       52.324        0.208      349.453       29.892      860.544
09/11/2014  16:44:00      128.122      -41.932       51.665      109.974      126.027       75.546    12094.208    15882.803     5707.269        2.726        1.684      134.809       84.041        0.389      349.337       29.687      860.521
09/11/2014  16:45:00      121.936      -49.821       60.715      115.758      146.606       82.387    13399.883    21493.389     6787.663        3.135        2.084      131.722       87.624        0.443      349.424       29.840      860.508
09/11/2014  16:46:00      184.583      -48.154       36.586      122.928       95.616       67.972    15111.285     9142.496     4620.177        3.330        1.444      190.761       72.087        0.143      349.400       29.797      860.500
09/11/2014  16:47:00       92.091       78.496      135.759      114.419      126.824       78.380    13091.596    16084.215     6143.471        3.419        1.766      121.006       86.973        0.517      349.364       29.735      860.501
09/11/2014  16:48:00      199.970     -213.921      -20.826       91.599       87.036       47.889     8390.368     7575.201     2293.368        5.222        0.913      292.831       43.395        0.022      349.390       29.779      860.500
09/11/2014  16:49:00      200.399     -246.007      -49.248      104.226       85.796       40.874    10863.057     7361.021     1670.652        6.150        0.995      317.300       30.946        0.010      349.405       29.803      860.499
09/11/2014  16:50:00      165.644     -243.401      -27.273       82.122       70.253       41.266     6744.013     4935.540     1702.898        5.040        0.669      294.418       28.543        0.009      349.274       29.578      860.511
09/11/2014  16:51:00       63.693     -151.668      -13.522       65.881       70.878       51.257     4340.316     5023.624     2627.311        1.962        0.600      164.500       35.113        0.046      349.342       29.697      860.519
09/11/2014  16:52:00       84.556      -44.504       26.545       76.346      103.875       66.138     5828.643    10789.920     4374.281        1.541        1.050       95.553       68.427        0.513      349.300       29.626      860.528
09/11/2014  16:53:00      133.042     -121.803       -0.790       88.890      100.709       50.869     7901.348    10142.394     2587.605        2.658        1.032      180.378       61.731        0.117      349.355       29.719      860.534
09/11/2014  16:54:00       68.147     -118.122        4.070       72.818      143.069       57.389     5302.421    20468.844     3293.534        2.383        1.453      136.370       75.952        0.310      349.336       29.686      860.533
09/11/2014  16:55:00      100.043       -3.934       44.074       84.122       60.111       51.612     7076.554     3613.346     2663.845        1.266        0.668      100.121       48.437        0.234      349.221       29.489      860.540
09/11/2014  16:56:00       38.040      -26.760       27.423       50.641       63.779       45.303     2564.525     4067.775     2052.389        0.580        0.434       46.510       41.109        0.781      349.305       29.636      860.539
09/11/2014  16:57:00       65.690      -30.450       32.064       52.306       44.087       36.448     2735.870     1943.666     1328.485        0.614        0.300       72.405       31.742        0.192      349.185       29.427      860.541
09/11/2014  16:58:00       31.888       24.242       58.991       45.517       42.827       32.032     2071.759     1834.134     1026.036        0.501        0.247       40.056       26.051        0.423      349.195       29.444      860.533
09/11/2014  16:59:00       76.332      -96.610      -21.712       43.952       52.212       32.246     1931.765     2726.089     1039.811        1.066        0.285      123.126       28.315        0.053      349.248       29.537      860.527
09/11/2014  17:00:00      -17.121        5.895        6.836       52.244       28.390       22.691     2729.484      805.989      514.901        0.221        0.203       18.108       21.492        1.409      349.574       30.101      860.502
09/11/2014  17:01:00       30.135      -17.077       17.919       39.248       54.858       46.553     1540.384     3009.395     2167.168        0.412        0.336       34.638       39.377        1.292      349.358       29.728      860.494
09/11/2014  17:02:00       96.755       37.817       31.380       84.558      101.132       57.072     7150.012    10227.683     3257.198        1.620        1.032      103.883       28.317        0.074      349.326       29.671      860.479
09/11/2014  17:03:00      104.295       97.917      106.322       92.669       75.087       64.531     8587.529     5638.053     4164.232        2.508        0.919      143.056       50.438        0.124      349.378       29.759      860.491
09/11/2014  17:04:00       77.898       89.760       79.242       86.295       80.761       65.209     7446.816     6522.310     4252.195        1.931        0.911      118.849       57.328        0.233      349.420       29.832      860.487
09/11/2014  17:05:00       97.488      -57.949       10.477       78.436       68.216       48.015     6152.133     4653.386     2305.479        1.304        0.656      113.411       54.126        0.228      349.199       29.450      860.482
09/11/2014  17:06:00       83.527      -71.604        7.569       54.139       44.797       30.654     2931.076     2006.760      939.668        0.902        0.294      110.018       25.671        0.054      349.212       29.474      860.471
09/11/2014  17:07:00      104.691      -32.326       29.617       69.100       37.020       30.764     4774.863     1370.448      946.438        0.999        0.355      109.568       30.093        0.075      349.084       29.251      860.466
09/11/2014  17:08:00      149.931       53.792        6.610       65.162       83.714       42.092     4246.142     7008.068     1771.704        1.922        0.651      159.289       29.940        0.035      349.207       29.463      860.463
09/11/2014  17:09:00      150.068       83.905       25.067       72.491       60.077       45.839     5254.893     3609.272     2101.213        2.058        0.548      171.932       45.525        0.070      349.426       29.842      860.460
09/11/2014  17:10:00      147.064       92.367       55.712       76.293       69.391       56.746     5820.640     4815.063     3220.078        2.356        0.693      173.665       46.750        0.072      349.293       29.613      860.464
09/11/2014  17:11:00      131.612       70.543       45.881       87.770       65.799       62.586     7703.570     4329.479     3916.952        2.017        0.798      149.325       47.108        0.100      349.198       29.448      860.460
09/11/2014  17:12:00       86.305       -4.292       42.908       59.565       52.686       41.051     3547.954     2775.854     1685.196        0.866        0.400       86.411       35.251        0.166      349.226       29.498      860.458
09/11/2014  17:13:00       52.191      -79.378       27.362       53.905       95.217       53.982     2905.790     9066.337     2914.068        1.233        0.744       94.999       62.158        0.428      349.442       29.872      860.446
09/11/2014  17:14:00       45.699      -77.601        5.409       45.583       71.680       39.136     2077.854     5138.083     1531.638        0.844        0.437       90.058       25.954        0.083      349.343       29.701      860.438
09/11/2014  17:15:00       77.029      -72.723        8.847       49.727       56.626       38.527     2472.792     3206.476     1484.343        0.923        0.358      105.934       34.636        0.107      349.316       29.655      860.435
09/11/2014  17:16:00       68.112      -33.374       26.392       56.076       59.433       37.283     3144.539     3532.301     1390.004        0.726        0.403       75.849       40.260        0.282      349.349       29.712      860.421
09/11/2014  17:17:00       75.162      -43.500        7.135       39.633       42.342       28.908     1570.802     1792.866      835.665        0.590        0.210       86.842       33.180        0.146      349.244       29.530      860.419
09/11/2014  17:18:00       32.528      -55.307        7.061       25.537       63.904       37.314      652.154     4083.749     1392.328        0.515        0.306       64.163       42.215        0.433      349.391       29.785      860.412
09/11/2014  17:19:00       63.704      -57.929       51.108       77.561      141.984       69.671     6015.762    20159.431     4853.989        2.052        1.551       86.104       93.684        1.184      349.308       29.640      860.411
09/11/2014  17:20:00      117.321     -121.019      -31.245       70.812       73.784       44.978     5014.286     5444.101     2023.050        2.093        0.624      168.552       46.045        0.075      349.327       29.671      860.411
09/11/2014  17:21:00       86.945     -113.065       -7.412       47.684       63.652       35.454     2273.800     4051.601     1256.957        1.399        0.379      142.630       41.260        0.084      349.277       29.587      860.428
09/11/2014  17:22:00      107.541     -112.227        7.220       78.549       59.419       39.459     6169.920     3530.625     1556.975        1.773        0.563      155.435       50.777        0.107      349.368       29.744      860.419
09/11/2014  17:23:00       60.510      -12.745       51.797       54.985       53.309       44.557     3023.375     2841.840     1985.350        0.718        0.393       61.838       33.972        0.302      349.299       29.625      860.421
09/11/2014  17:24:00       10.010       20.909       46.839       33.931       51.694       34.387     1151.311     2672.274     1182.434        0.387        0.250       23.181       35.687        2.370      349.116       29.307      860.421
09/11/2014  17:25:00       94.612     -150.778       -8.685       81.159       59.159       43.606     6586.745     3499.735     1901.477        2.187        0.599      178.004       33.507        0.035      349.334       29.683      860.424
09/11/2014  17:26:00      106.395     -175.795      -13.451       65.212       49.778       30.578     4252.618     2477.819      935.016        2.503        0.383      205.484       31.788        0.024      349.326       29.671      860.414
09/11/2014  17:27:00       27.309      -88.631      -13.142       42.600       44.077       28.879     1814.771     1942.821      834.014        0.668        0.230       92.743       20.031        0.047      349.487       29.952      860.411
09/11/2014  17:28:00       12.337       -8.117       -0.724       31.272       23.299       19.193      977.951      542.853      368.375        0.105        0.094       14.768       11.875        0.647      349.568       30.092      860.399
09/11/2014  17:29:00       62.508       30.667       15.439       24.536       29.715       24.277      601.993      882.995      589.392        0.358        0.104       69.626       18.014        0.067      349.079       29.243      860.405
09/11/2014  17:30:00       37.020      -26.541       13.119       47.706       83.799       31.555     2275.831     7022.202      995.706        0.627        0.515       45.552       22.969        0.254      349.342       29.699      860.397
09/11/2014  17:31:00       11.097       27.527       45.025       29.078       43.921       39.488      845.541     1929.060     1559.288        0.362        0.217       29.679       26.949        0.824      349.435       29.862      860.395
09/11/2014  17:32:00      161.898      103.608       30.566       85.971       47.786       54.193     7391.074     2283.540     2936.851        2.524        0.631      192.212       32.534        0.029      349.409       29.814      860.409
09/11/2014  17:33:00       62.380       76.865       13.806       45.909       47.508       40.211     2107.636     2257.027     1616.950        0.798        0.299       98.992       32.731        0.109      349.494       29.963      860.402
09/11/2014  17:34:00      109.248       78.500       35.676       88.360       72.606       58.545     7807.411     5271.576     3427.541        1.794        0.825      134.527       40.307        0.090      349.475       29.929      860.396
09/11/2014  17:35:00      141.162       84.965       23.741      102.655       74.265       56.645    10538.088     5515.316     3208.629        2.348        0.963      164.760       40.269        0.060      349.359       29.728      860.394
09/11/2014  17:36:00      254.472      143.051       35.788       86.807       49.797       55.271     7535.539     2479.692     3054.849        4.978        0.654      291.925       26.502        0.008      349.358       29.724      860.391
09/11/2014  17:37:00      242.980      127.592       52.465      112.086       74.124       74.604    12563.383     5494.349     5565.794        5.084        1.181      274.443       47.947        0.031      349.344       29.698      860.394
09/11/2014  17:38:00      279.198      152.211       16.788       91.031       80.205       59.146     8286.613     6432.863     3498.218        5.981        0.911      317.993       34.383        0.012      349.290       29.606      860.391
09/11/2014  17:39:00      218.003      142.986       43.039       87.852       76.328       62.277     7717.976     5825.906     3878.479        4.362        0.871      260.711       33.093        0.016      349.297       29.618      860.397
09/11/2014  17:40:00      235.349      142.190       42.556      113.222       81.823       64.633    12819.127     6694.953     4177.489        5.055        1.185      274.967       31.970        0.014      349.257       29.549      860.389
09/11/2014  17:41:00      194.815      125.478       25.036       83.797       91.359       64.965     7021.915     8346.487     4220.513        3.695        0.979      231.727       30.991        0.018      349.308       29.638      860.394
09/11/2014  17:42:00      195.549      117.628       41.080       95.308       90.709       71.510     9083.583     8228.116     5113.662        3.809        1.121      228.201       38.026        0.028      349.271       29.572      860.398
09/11/2014  17:43:00      178.808      108.725       34.190       95.757       82.154       54.977     9169.459     6749.292     3022.462        3.195        0.947      209.269       46.897        0.050      349.243       29.524      860.396
09/11/2014  17:44:00      288.927      201.600       44.331      106.182       77.232       71.526    11274.639     5964.757     5115.955        7.422        1.118      352.309       35.387        0.010      349.232       29.505      860.399
09/11/2014  17:45:00      219.529      118.330       32.894       67.923       74.368       59.331     4613.599     5530.527     3520.131        3.847        0.683      249.389       32.749        0.017      349.233       29.506      860.397
09/11/2014  17:46:00      123.015       96.067       84.195      111.533       62.948       52.944    12439.502     3962.425     2803.067        2.532        0.960      156.082       49.899        0.102      349.213       29.474      860.394
09/11/2014  17:47:00       59.933       13.285       38.832       62.454       98.144       50.645     3900.444     9632.303     2564.951        1.068        0.805       61.388       50.596        0.679      349.156       29.377      860.395
09/11/2014  17:48:00       90.005       56.407       75.078       72.386       61.697       47.855     5239.737     3806.513     2290.070        1.413        0.567      106.220       21.829        0.042      349.108       29.293      860.395
09/11/2014  17:49:00      160.600      121.344       92.414      109.612       77.387       86.282    12014.711     5988.733     7444.624        3.725        1.272      201.287       71.447        0.126      349.094       29.266      860.400
09/11/2014  17:50:00       86.631       65.453       67.356       66.767       61.431       48.153     4457.867     3773.714     2318.703        1.344        0.528      108.577       40.813        0.141      349.002       29.111      860.395
09/11/2014  17:51:00       72.037       40.929       25.035       54.835       36.573       33.801     3006.930     1337.552     1142.540        0.649        0.274       82.853       26.548        0.103      349.173       29.407      860.409
09/11/2014  17:52:00      104.740       66.333       45.493       41.464       30.094       41.156     1719.298      905.628     1693.842        1.088        0.216      123.978       22.642        0.033      349.118       29.313      860.412
09/11/2014  17:53:00      115.751       72.926       48.605       40.535       44.474       40.841     1643.087     1977.969     1668.026        1.318        0.264      136.808       28.359        0.043      349.164       29.392      860.404
09/11/2014  17:54:00       58.113       23.177       33.804       62.362       54.911       29.936     3889.026     3015.249      896.149        0.643        0.390       62.564       31.521        0.254      349.213       29.476      860.393
09/11/2014  17:55:00       16.385       15.871       41.223       30.986       43.459       23.244      960.103     1888.662      540.294        0.280        0.169       22.812       28.357        1.545      349.185       29.428      860.387
09/11/2014  17:56:00       24.130      -25.480       13.888       31.567       37.649       24.003      996.447     1417.466      576.137        0.221        0.150       35.093       20.330        0.336      348.957       29.032      860.389
09/11/2014  17:57:00       31.664       -3.629       40.599       55.929       73.525       49.459     3128.024     5405.880     2446.154        0.682        0.549       31.871       45.299        2.020      349.064       29.218      860.387
09/11/2014  17:58:00      116.884      -86.946       14.850       66.021       92.854       54.872     4358.758     8621.806     3010.941        1.871        0.800      145.675       63.111        0.188      349.151       29.368      860.400
09/11/2014  17:59:00       90.263     -117.183       10.063       47.935       86.440       46.562     2297.757     7471.808     2168.060        1.696        0.597      147.917       49.238        0.111      349.203       29.457      860.405
09/11/2014  18:00:00      108.322     -156.505        1.774       56.835       68.544       44.966     3230.174     4698.218     2021.906        2.309        0.498      190.335       35.480        0.035      349.232       29.507      860.406
09/11/2014  18:01:00       94.758      -99.522       -2.453       64.926       67.243       48.932     4215.331     4521.557     2394.301        1.501        0.557      137.418       39.215        0.081      349.200       29.451      860.411
09/11/2014  18:02:00       85.732      -68.976       23.968       68.958       96.736       42.028     4755.197     9357.911     1766.387        1.428        0.794      110.035       54.156        0.242      349.073       29.232      860.414
09/11/2014  18:03:00       10.640      -28.445       24.368       28.715       47.061       28.071      824.546     2214.709      787.972        0.267        0.191       30.370       20.917        0.474      349.024       29.149      860.420
09/11/2014  18:04:00       54.308       -8.281       18.449       47.402       42.658       29.730     2246.948     1819.704      883.890        0.415        0.248       54.936       30.360        0.305      348.818       28.792      860.425
09/11/2014  18:05:00       51.931       48.757       31.305       48.980       40.620       34.900     2399.036     1649.959     1217.990        0.566        0.263       71.232       28.056        0.155      349.128       29.327      860.426
09/11/2014  18:06:00       42.191        2.827       11.925       44.790       56.848       42.048     2006.183     3231.639     1768.073        0.447        0.350       42.285       29.557        0.489      349.163       29.390      860.424
09/11/2014  18:07:00       44.489       -0.957       19.112       35.909       31.703       24.121     1289.442     1005.090      581.820        0.261        0.144       44.499       21.858        0.241      348.796       28.754      860.441
09/11/2014  18:08:00       88.378       44.108       49.221       59.513       53.293       41.886     3541.850     2840.153     1754.467        1.016        0.407       98.773       36.943        0.140      348.912       28.954      860.445
09/11/2014  18:09:00       38.306       67.367       79.499       57.206       53.538       41.610     3272.522     2866.288     1731.411        1.010        0.394       77.496       26.401        0.116      349.000       29.108      860.452
09/11/2014  18:10:00       46.928       49.848       41.900       49.471       44.261       41.384     2447.339     1959.020     1712.638        0.628        0.306       68.462       34.046        0.247      349.003       29.112      860.461
09/11/2014  18:11:00       56.217       55.510       54.693       53.522       34.597       24.869     2864.656     1196.944      618.485        0.696        0.234       79.004       16.372        0.043      348.926       28.978      860.464
09/11/2014  18:12:00      149.382       41.657       65.266      101.602       86.014       66.876    10323.045     7398.324     4472.377        2.525        1.110      155.081       63.335        0.167      349.066       29.219      860.482
09/11/2014  18:13:00      208.519      101.842       61.477      113.797       86.058       81.232    12949.757     7406.002     6598.560        4.229        1.348      232.060       67.229        0.084      349.003       29.107      860.481
09/11/2014  18:14:00      127.637       72.191       22.099       67.016       56.067       48.426     4491.185     3143.540     2345.082        1.598        0.499      146.638       30.465        0.043      348.944       29.009      860.493
09/11/2014  18:15:00       96.567       75.983       38.363       41.722       35.519       37.854     1740.745     1261.611     1432.911        1.050        0.222      122.876       27.767        0.051      348.919       28.967      860.496
09/11/2014  18:16:00      178.797       90.195       50.554       79.607       69.196       55.655     6337.347     4788.054     3097.492        2.844        0.711      200.258       38.404        0.037      348.958       29.030      860.492
09/11/2014  18:17:00      161.253       62.495       27.623       78.719       63.155       49.074     6196.724     3988.542     2408.244        2.163        0.630      172.940       34.802        0.040      348.931       28.984      860.489
09/11/2014  18:18:00      125.097       62.553       73.196       80.155       67.811       60.538     6424.813     4598.370     3664.840        1.980        0.734      139.865       46.513        0.111      348.891       28.915      860.506
09/11/2014  18:19:00      186.323       78.159       44.639      113.215       57.746       66.738    12817.672     3334.578     4453.965        3.171        1.030      202.052       54.329        0.072      348.973       29.058      860.506
09/11/2014  18:20:00      128.207       83.890       52.612       64.017       58.975       50.004     4098.228     3478.029     2500.385        1.816        0.504      153.214       30.921        0.041      348.908       28.947      860.515
09/11/2014  18:21:00       75.896       45.256       29.051       76.061       48.194       33.536     5785.314     2322.687     1124.687        0.894        0.462       88.365       26.251        0.088      348.900       28.933      860.522
09/11/2014  18:22:00       93.786       62.477       20.287       92.372       59.355       43.865     8532.555     3522.996     1924.122        1.354        0.699      112.690       30.089        0.071      348.925       28.975      860.522
09/11/2014  18:23:00      143.946      106.046       11.458       80.111       68.169       59.729     6417.838     4647.054     3567.509        2.336        0.732      178.791       49.018        0.075      348.876       28.889      860.533
09/11/2014  18:24:00       85.885       50.013       26.576       73.089       45.151       38.984     5342.075     2038.612     1519.730        0.974        0.445       99.386       38.413        0.149      348.860       28.865      860.533
09/11/2014  18:25:00      161.413       93.792       42.166       82.632       66.771       48.672     6828.103     4458.410     2369.002        2.514        0.683      186.684       29.775        0.025      348.888       28.911      860.537
09/11/2014  18:26:00      195.522      132.579       42.920      105.594       77.529       63.507    11150.016     6010.731     4033.080        3.942        1.060      236.233       25.918        0.012      348.867       28.873      860.543
09/11/2014  18:27:00      264.987      176.141       24.322      131.041       73.728       73.436    17171.718     5435.745     5392.827        6.491        1.400      318.188       18.083        0.003      348.870       28.878      860.538
09/11/2014  18:28:00      286.363      135.207       66.915       97.290       93.027       63.889     9465.290     8654.104     4081.753        6.348        1.110      316.677       28.881        0.008      348.867       28.872      860.546
09/11/2014  18:29:00      149.108       98.937       42.062       71.109       58.267       57.379     5056.541     3395.074     3292.374        2.277        0.587      178.946       35.425        0.039      348.788       28.737      860.566
09/11/2014  18:30:00      186.855      106.447       36.886       73.241       71.026       61.987     5364.185     5044.694     3842.395        3.093        0.713      215.048       40.307        0.035      348.768       28.702      860.575
09/11/2014  18:31:00      186.956      121.756       72.588      130.542       97.745       82.161    17041.229     9554.127     6750.397        4.419        1.667      223.107       67.699        0.092      348.724       28.627      860.571
09/11/2014  18:32:00      128.080       94.119       59.887      136.661      107.903       81.880    18676.297    11643.133     6704.360        3.293        1.851      158.943       68.663        0.187      348.632       28.466      860.562
09/11/2014  18:33:00      268.205      121.346       46.137      134.594      101.205       87.425    18115.644    10242.518     7643.204        6.239        1.800      294.378       62.016        0.044      348.735       28.644      860.553
09/11/2014  18:34:00      181.335      106.120       43.885      103.865       84.000       68.733    10788.010     7055.932     4724.157        3.432        1.128      210.104       48.661        0.054      348.655       28.509      860.555
09/11/2014  18:35:00      189.018       93.463       33.269       87.454       74.683       61.746     7648.227     5577.566     3812.599        3.130        0.852      210.863       54.089        0.066      348.621       28.448      860.568
09/11/2014  18:36:00      239.767      129.211       55.828      114.923       82.128       80.225    13207.346     6745.071     6435.970        5.184        1.319      272.367       43.620        0.026      348.693       28.572      860.560
09/11/2014  18:37:00      121.453       32.470       52.700       95.623       84.384       65.570     9143.739     7120.667     4299.374        1.957        1.028      125.718       49.102        0.153      348.574       28.367      860.571
09/11/2014  18:38:00      124.083       75.921       53.520       95.623       68.227       57.835     9143.800     4654.966     3344.909        2.058        0.857      145.466       35.685        0.060      348.550       28.326      860.569
09/11/2014  18:39:00      184.960       91.515       56.946       96.878       86.576       59.151     9385.381     7495.444     3498.786        3.310        1.019      206.361       41.057        0.040      348.591       28.396      860.570
09/11/2014  18:40:00      122.270       66.645       32.393       71.442       59.207       60.864     5103.959     3505.443     3704.433        1.638        0.616      139.253       43.054        0.096      348.559       28.342      860.577
09/11/2014  18:41:00      198.062      108.501       27.984       79.455       67.402       52.854     6313.160     4543.064     2793.558        3.271        0.682      225.834       40.779        0.033      348.633       28.469      860.584
09/11/2014  18:42:00      151.497       68.231       32.431       72.021       62.542       65.998     5187.039     3911.471     4355.773        2.105        0.673      166.154       35.501        0.046      348.566       28.354      860.583
09/11/2014  18:43:00       80.120       66.690       41.133       65.066       66.336       65.949     4233.522     4400.514     4349.234        1.277        0.649      104.244       37.562        0.130      348.453       28.160      860.598
09/11/2014  18:44:00      169.471       46.327       69.050      128.152       80.967       68.582    16422.978     6555.596     4703.553        3.165        1.384      175.689       67.232        0.146      348.550       28.325      860.592
09/11/2014  18:45:00       91.431       40.915       61.331      119.583       54.277       51.244    14300.171     2946.014     2625.981        1.683        0.994      100.168       61.346        0.375      348.515       28.266      860.580
09/11/2014  18:46:00      194.577      113.508        6.762       70.706       68.710       38.286     4999.272     4721.131     1465.826        3.099        0.559      225.265       29.233        0.017      348.547       28.319      860.588
09/11/2014  18:47:00      133.362       43.999       19.233       98.401       74.061       60.150     9682.826     5484.972     3618.074        1.944        0.939      140.433       57.203        0.166      348.412       28.088      860.598
09/11/2014  18:48:00      207.304      105.160       31.989       71.228       64.636       56.025     5073.463     4177.859     3138.817        3.372        0.620      232.451       32.659        0.020      348.450       28.152      860.604
09/11/2014  18:49:00      169.400       99.143       14.729       80.273       72.698       66.704     6443.815     5284.973     4449.454        2.746        0.809      196.280       49.886        0.065      348.472       28.190      860.602
09/11/2014  18:50:00      156.665       79.223       17.470       74.691       54.738       51.663     5578.703     2996.254     2669.036        2.118        0.562      175.557       35.094        0.040      348.405       28.076      860.604
09/11/2014  18:51:00      124.573       61.464       14.077       79.691       69.470       44.180     6350.604     4826.122     1951.852        1.631        0.656      138.911       31.550        0.052      348.392       28.052      860.614
09/11/2014  18:52:00      114.741       74.808       26.004       62.991       54.824       45.974     3967.895     3005.714     2113.635        1.426        0.454      136.974       20.097        0.022      348.396       28.061      860.619
09/11/2014  18:53:00      146.200       67.221       16.739       72.643       60.629       36.578     5277.052     3675.836     1337.968        1.823        0.515      160.913       21.954        0.019      348.371       28.017      860.622
09/11/2014  18:54:00      139.116      129.502       -0.849      100.482       77.058       61.828    10096.534     5937.973     3822.701        2.799        0.993      190.063       47.694        0.063      348.392       28.053      860.632
09/11/2014  18:55:00      144.803       87.754       13.874       88.566       57.691       49.911     7843.897     3328.259     2491.128        2.126        0.683      169.318       30.901        0.033      348.320       27.928      860.632
09/11/2014  18:56:00      184.379      129.645       32.056       52.607       47.969       52.079     2767.545     2301.002     2712.183        2.980        0.389      225.396       29.199        0.017      348.316       27.918      860.632
09/11/2014  18:57:00      133.201       78.232       29.299       93.222       67.782       49.187     8690.394     4594.416     2419.367        2.021        0.785      154.476       28.321        0.034      348.304       27.901      860.633
09/11/2014  18:58:00      192.566      130.266       20.664      119.663       65.186       62.164    14319.165     4249.234     3864.352        3.845        1.122      232.489       38.266        0.027      348.345       27.972      860.638
09/11/2014  18:59:00      182.445      107.633       27.977       68.171       53.721       48.986     4647.291     2885.900     2399.596        2.779        0.497      211.827       26.895        0.016      348.303       27.897      860.646
09/11/2014  19:00:00      144.876       98.389       20.124       69.893       66.532       47.074     4885.039     4426.508     2216.004        2.130        0.576      175.127       28.130        0.026      348.246       27.800      860.661
09/11/2014  19:01:00       96.002       69.406       33.051       76.422       54.390       42.533     5840.299     2958.282     1809.063        1.287        0.530      118.463       23.000        0.038      348.104       27.556      860.677
09/11/2014  19:02:00      202.731      105.807       33.699       57.569       53.224       50.525     3314.189     2832.786     2552.760        3.106        0.435      228.681       20.569        0.008      348.246       27.798      860.682
09/11/2014  19:03:00      157.496      121.655       20.817       66.275       52.617       45.552     4392.383     2768.529     2075.017        2.464        0.462      199.010       30.586        0.024      348.279       27.855      860.693
09/11/2014  19:04:00       91.304       57.047       30.727       68.370       52.172       39.328     4674.423     2721.905     1546.697        1.074        0.447      107.660       39.199        0.133      348.166       27.663      860.705
09/11/2014  19:05:00      132.394       83.186       12.454       58.386       45.525       35.959     3408.921     2072.493     1293.074        1.569        0.339      156.359       18.482        0.014      348.195       27.712      860.707
09/11/2014  19:06:00      203.302      115.893       26.894       61.607       46.645       33.598     3795.383     2175.717     1128.854        3.129        0.355      234.014       14.713        0.004      348.213       27.742      860.710
09/11/2014  19:07:00      134.378       80.630       33.491      114.001       70.577       59.534    12996.212     4981.155     3544.327        2.360        1.076      156.712       48.015        0.094      348.136       27.610      860.720
09/11/2014  19:08:00      161.167      102.068       61.029      107.277       82.047       43.993    11508.323     6731.760     1935.396        3.014        1.009      190.769       44.407        0.054      348.110       27.563      860.727
09/11/2014  19:09:00       71.724       47.163       36.587       66.310       46.463       32.517     4397.021     2158.786     1057.358        0.816        0.381       85.841       23.962        0.078      347.945       27.282      860.737
09/11/2014  19:10:00      106.026       50.708       45.429       77.736       50.041       44.976     6042.960     2504.133     2022.827        1.322        0.528      117.528       31.419        0.071      347.952       27.293      860.751
09/11/2014  19:11:00       97.199       63.720       52.437       84.619       47.961       54.157     7160.383     2300.281     2932.966        1.432        0.620      116.223       40.764        0.123      348.010       27.393      860.752
09/11/2014  19:12:00       94.650       50.458       21.782       60.790       35.883       35.387     3695.405     1287.578     1252.219        0.911        0.312      107.260       37.250        0.121      347.937       27.268      860.768
09/11/2014  19:13:00      113.344       51.946       32.367       58.557       42.571       39.419     3428.911     1812.251     1553.832        1.169        0.340      124.680       24.756        0.039      348.018       27.408      860.781
09/11/2014  19:14:00      136.273       67.938       59.078      122.748       84.149       74.193    15067.161     7081.006     5504.528        2.716        1.383      152.269       53.947        0.126      348.080       27.512      860.774
09/11/2014  19:15:00      103.617       36.446       28.270       90.985       63.481       39.701     8278.290     4029.845     1576.167        1.337        0.694      109.840       42.806        0.152      347.929       27.254      860.800
09/11/2014  19:16:00       53.992       45.517       11.143       46.472       36.758       25.744     2159.660     1351.140      662.729        0.464        0.209       70.618        9.032        0.016      347.924       27.247      860.823
09/11/2014  19:17:00       10.562       26.687       -0.273       22.293       27.981       18.809      496.956      782.959      353.764        0.123        0.082       28.701       18.112        0.398      347.865       27.143      860.827
09/11/2014  19:18:00       28.581       49.711       -2.260       33.108       36.096       22.508     1096.153     1302.931      506.595        0.310        0.145       57.342       21.921        0.146      348.015       27.404      860.849
09/11/2014  19:19:00       56.332       55.258        4.075       29.005       30.159       25.658      841.317      909.592      658.352        0.433        0.120       78.910       20.205        0.066      347.923       27.244      860.852
09/11/2014  19:20:00       14.213      141.283      -19.649       19.793       46.846       15.730      391.759     2194.516      247.446        1.169        0.142      141.996       20.109        0.020      347.900       27.205      860.873
09/11/2014  19:21:00       30.806      187.883      -32.553       34.882       38.264       21.831     1216.768     1464.127      476.613        2.023        0.158      190.392       17.328        0.008      347.970       27.324      860.880
09/11/2014  19:22:00       25.605      161.501       -4.781       53.985       79.635       43.380     2914.378     6341.734     1881.783        1.895        0.557      163.518       51.680        0.100      347.926       27.247      860.886
09/11/2014  19:23:00       25.115      174.430      -29.669       39.090       47.409       30.973     1527.993     2247.585      959.344        1.834        0.237      176.228       30.723        0.030      347.968       27.321      860.905
09/11/2014  19:24:00       34.103      185.246      -29.681       48.737       46.574       27.847     2375.340     2169.129      775.471        2.084        0.266      188.359       25.100        0.018      347.911       27.222      860.902
09/11/2014  19:25:00       25.083      163.589      -19.010       37.737       65.690       35.584     1424.054     4315.189     1266.195        1.738        0.350      165.501       39.631        0.057      347.931       27.257      860.898
09/11/2014  19:26:00       18.169      203.849      -35.188       36.850       42.922       22.291     1357.943     1842.331      496.867        2.341        0.185      204.657       23.377        0.013      347.964       27.313      860.919
09/11/2014  19:27:00      -12.224      192.405      -31.572       36.306       37.082       21.719     1318.104     1375.065      471.696        2.066        0.158      192.793       22.077        0.013      347.911       27.221      860.924
09/11/2014  19:28:00        3.554      169.216      -28.573       32.689       30.280       19.029     1068.589      916.870      362.091        1.590        0.117      169.253       15.190        0.008      347.912       27.224      860.941
09/11/2014  19:29:00       21.701      163.116      -33.410       43.638       34.119       20.119     1904.263     1164.091      404.788        1.583        0.174      164.553       21.492        0.017      347.827       27.078      860.962
09/11/2014  19:30:00        8.224      138.077      -25.387       38.330       40.541       19.564     1469.175     1643.567      382.748        1.164        0.175      138.321       19.011        0.019      347.762       26.967      860.973
09/11/2014  19:31:00      -39.449      172.723      -27.969       49.374       50.136       21.674     2437.837     2513.588      469.781        1.880        0.271      177.171       16.029        0.008      347.819       27.064      860.988
09/11/2014  19:32:00       17.789      176.500      -28.546       33.329       38.958       25.763     1110.806     1517.744      663.750        1.779        0.165      177.394       19.164        0.012      347.837       27.095      861.002
09/11/2014  19:33:00        4.756      182.198      -32.040       30.395       34.367       17.906      923.835     1181.119      320.622        1.833        0.121      182.260       15.877        0.008      347.801       27.030      861.014
09/11/2014  19:34:00      -36.699      139.750      -18.615       29.570       33.672       16.848      874.366     1133.797      283.871        1.176        0.115      144.488       12.015        0.007      347.743       26.933      861.035
09/11/2014  19:35:00      -60.124      110.724      -22.689       26.060       58.770       18.313      679.103     3453.966      335.381        1.043        0.223      125.995       10.378        0.007      347.631       26.739      861.038
09/11/2014  19:36:00      -57.184       81.869      -12.887       34.125       38.113       23.956     1164.524     1452.622      573.906        0.666        0.160       99.863       22.340        0.050      347.669       26.807      861.048
09/11/2014  19:37:00      -73.584       55.347      -11.361       26.580       33.358       18.151      706.503     1112.743      329.474        0.538        0.107       92.075       15.860        0.030      347.698       26.857      861.068
09/11/2014  19:38:00     -105.403       52.609      -17.200       31.489       38.488       28.900      991.569     1481.307      835.186        0.874        0.165      117.803       17.557        0.022      347.622       26.726      861.071
09/11/2014  19:39:00     -158.535      162.898      -40.440       44.299       78.231       31.032     1962.424     6120.028      962.995        3.117        0.452      227.308       36.745        0.026      347.497       26.507      861.068
09/11/2014  19:40:00     -134.273      103.668      -32.280       41.042       43.917       23.689     1684.486     1928.745      561.147        1.700        0.209      169.636       22.552        0.018      347.439       26.408      861.074
09/11/2014  19:41:00      -85.509       75.172      -16.434       37.163       43.548       24.087     1381.118     1896.461      580.188        0.854        0.193      113.854       14.600        0.016      347.306       26.179      861.081
09/11/2014  19:42:00     -133.527       70.345      -16.800       53.472       42.602       35.469     2859.286     1814.908     1258.027        1.450        0.297      150.924       22.880        0.023      347.292       26.156      861.101
09/11/2014  19:43:00     -141.612       98.760      -26.954       37.575       37.588       28.563     1411.845     1412.845      815.859        1.709        0.182      172.648       25.167        0.021      347.239       26.063      861.106
09/11/2014  19:44:00     -152.800       57.246      -16.810       69.861       50.443       31.451     4880.625     2544.473      989.159        1.766        0.421      163.172       34.154        0.044      347.126       25.869      861.120
09/11/2014  19:45:00     -194.324       78.343      -12.411       62.825       52.724       45.135     3947.036     2779.838     2037.165        2.641        0.438      209.522       33.429        0.025      347.155       25.916      861.123
09/11/2014  19:46:00     -144.050      123.983      -32.156       56.867       55.203       32.625     3233.891     3047.381     1064.375        2.225        0.367      190.058       27.552        0.021      346.981       25.618      861.136
09/11/2014  19:47:00     -207.690      125.964      -42.354       63.798       81.994       39.925     4070.149     6723.074     1593.991        3.659        0.619      242.904       47.170        0.038      347.119       25.855      861.152
09/11/2014  19:48:00     -169.647       89.446      -25.258       71.071       65.845       37.886     5051.054     4335.618     1435.340        2.412        0.541      191.783       33.087        0.030      347.135       25.882      861.182
09/11/2014  19:49:00     -176.685      119.927      -30.578       58.038       65.634       43.706     3368.423     4307.878     1910.209        2.806        0.479      213.541       43.469        0.041      347.107       25.834      861.206
09/11/2014  19:50:00     -122.925       48.022      -18.871       45.497       47.519       29.448     2070.013     2258.079      867.200        1.148        0.260      131.973       23.842        0.033      347.078       25.787      861.220
09/11/2014  19:51:00     -133.892       11.241      -20.239       58.089       44.397       29.068     3374.281     1971.102      844.927        1.233        0.310      134.363       21.087        0.025      347.064       25.762      861.230
09/11/2014  19:52:00      -98.772       96.166      -16.036       70.445       83.898       36.411     4962.499     7038.796     1325.795        1.629        0.666      137.854       40.991        0.088      347.001       25.652      861.249
09/11/2014  19:53:00     -135.641       35.086      -15.400       54.436       60.700       26.671     2963.254     3684.455      711.352        1.361        0.368      140.106       22.367        0.025      346.959       25.581      861.251
09/11/2014  19:54:00     -126.659        2.574       -7.222       52.858       47.953       26.846     2793.946     2299.502      720.706        1.096        0.291      126.685       24.580        0.038      346.960       25.584      861.255
09/11/2014  19:55:00     -136.180       54.605      -26.637       51.004       36.788       33.925     2601.427     1353.341     1150.892        1.367        0.255      146.720       24.216        0.027      346.912       25.500      861.267
09/11/2014  19:56:00     -140.522       22.316      -23.837       55.116       52.322       28.117     3037.746     2737.616      790.562        1.369        0.328      142.283       24.653        0.030      346.934       25.539      861.282
09/11/2014  19:57:00     -141.269       73.345      -20.878       34.224       36.650       28.435     1171.277     1343.233      808.525        1.455        0.166      159.175       21.082        0.018      347.021       25.688      861.298
09/11/2014  19:58:00     -153.367      198.255      -47.135       57.608       57.956       34.738     3318.640     3358.899     1206.706        3.646        0.394      250.652       32.477        0.017      347.142       25.893      861.306
09/11/2014  19:59:00     -137.254       96.145      -21.416       61.346       55.277       32.224     3763.338     3055.565     1038.364        1.820        0.393      167.579       30.363        0.033      347.077       25.783      861.309
09/11/2014  20:00:00     -139.948      110.795      -29.789       47.418       50.933       27.458     2248.480     2594.184      753.948        1.917        0.280      178.496       24.549        0.019      347.060       25.755      861.320
09/11/2014  20:01:00     -137.067      117.761      -34.748       45.704       40.340       29.906     2088.863     1627.295      894.354        1.924        0.231      180.707       30.063        0.028      347.044       25.729      861.336
09/11/2014  20:02:00      -71.935       81.578      -12.332       54.005       36.720       28.573     2916.574     1348.365      816.412        0.853        0.254      108.765       25.148        0.053      346.990       25.634      861.356
09/11/2014  20:03:00      -50.412       37.996      -17.092       33.780       40.564       19.437     1141.096     1645.441      377.797        0.372        0.158       63.127       16.704        0.070      346.957       25.577      861.372
09/11/2014  20:04:00     -154.793       79.717      -26.419       69.772      101.325       43.205     4868.071    10266.780     1866.699        2.400        0.850      174.114       53.186        0.093      347.042       25.721      861.369
09/11/2014  20:05:00     -119.348       93.154       -7.572       56.046       58.206       41.668     3141.173     3387.992     1736.219        1.562        0.413      151.399       32.555        0.046      346.953       25.570      861.389
09/11/2014  20:06:00     -135.133      135.083      -34.908       55.128       58.914       32.015     3039.049     3470.884     1024.972        2.263        0.377      191.072       35.365        0.034      347.080       25.788      861.408
09/11/2014  20:07:00      -96.316      116.188      -25.595       49.785       43.581       25.170     2478.581     1899.330      633.512        1.422        0.251      150.918       20.055        0.018      347.010       25.669      861.439
09/11/2014  20:08:00      -72.353      117.568      -15.958       42.673       43.386       35.791     1820.943     1882.377     1281.025        1.215        0.249      138.048       28.513        0.043      346.899       25.478      861.459
09/11/2014  20:09:00     -131.158      121.799      -17.950       84.885       63.588       50.169     7205.542     4043.456     2516.939        2.306        0.688      178.990       54.820        0.094      346.902       25.481      861.465
09/11/2014  20:10:00     -153.817       98.533      -19.799       72.897       62.834       34.848     5313.923     3948.084     1214.417        2.212        0.524      182.670       24.583        0.018      346.903       25.483      861.472
09/11/2014  20:11:00      -95.776      107.540      -14.848       58.269       56.797       30.526     3395.299     3225.866      931.858        1.425        0.378      144.007       32.355        0.050      346.879       25.444      861.495
09/11/2014  20:12:00     -154.519      180.860      -38.458       48.863       55.288       36.671     2387.576     3056.768     1344.789        3.243        0.339      237.879       32.063        0.018      346.895       25.467      861.535
09/11/2014  20:13:00     -145.335      139.854      -33.782       68.435       80.523       41.626     4683.412     6483.947     1732.709        2.736        0.645      201.696       43.232        0.046      346.878       25.440      861.553
09/11/2014  20:14:00     -147.307       97.825      -28.754       67.300       54.227       38.563     4529.223     2940.517     1487.116        2.052        0.448      176.831       38.957        0.049      346.894       25.470      861.573
09/11/2014  20:15:00     -118.518       81.492      -14.603       44.272       54.251       33.792     1960.009     2943.150     1141.887        1.347        0.302      143.832       21.292        0.022      346.897       25.476      861.593
09/11/2014  20:16:00      -88.181      111.051      -27.413       44.428       48.258       25.707     1973.806     2328.839      660.829        1.291        0.248      141.803       20.435        0.021      346.879       25.445      861.637
09/11/2014  20:17:00      -99.682       68.374       -9.189       50.390       41.592       25.950     2539.152     1729.861      673.403        0.982        0.247      120.878       27.639        0.052      346.830       25.359      861.663
09/11/2014  20:18:00     -143.499       86.192      -26.634       47.003       78.998       38.398     2209.316     6240.664     1474.413        1.933        0.496      167.395       42.258        0.064      346.825       25.352      861.687
09/11/2014  20:19:00     -116.596       79.868      -27.731       31.849       33.162       21.319     1014.381     1099.728      454.521        1.166        0.128      141.328       15.310        0.012      346.765       25.247      861.714
09/11/2014  20:20:00     -113.496      115.014      -27.142       46.305       45.898       32.533     2144.150     2106.625     1058.417        1.608        0.265      161.585       29.080        0.032      346.764       25.247      861.745
09/11/2014  20:21:00     -120.141       55.509       -9.659       41.339       42.754       27.075     1708.949     1827.879      733.033        1.094        0.213      132.345       19.093        0.021      346.758       25.237      861.762
09/11/2014  20:22:00     -117.837       55.075      -12.790       48.151       42.556       28.695     2318.476     1810.978      823.382        1.102        0.248      130.072       23.865        0.034      346.702       25.139      861.776
09/11/2014  20:23:00     -122.479       55.943      -20.260       26.223       25.850       20.538      687.645      668.243      421.829        1.016        0.089      134.651       15.099        0.013      346.640       25.033      861.795
09/11/2014  20:24:00     -128.632       67.840      -18.117       38.178       52.028       34.321     1457.589     2706.908     1177.934        1.341        0.267      145.425       23.846        0.027      346.709       25.151      861.812
09/11/2014  20:25:00     -171.375       54.229      -18.068       53.124       32.131       25.106     2822.133     1032.402      630.334        1.856        0.224      179.751       21.786        0.015      346.781       25.275      861.825
09/11/2014  20:26:00     -128.361      -25.355       -8.528       28.406       52.859       23.754      806.888     2794.022      564.260        1.068        0.208      130.841       23.033        0.031      346.700       25.134      861.830
09/11/2014  20:27:00     -100.455      -36.144       -9.371       52.013       41.398       26.746     2705.379     1713.762      715.342        0.831        0.257      106.759       16.934        0.025      346.528       24.839      861.838
09/11/2014  20:28:00     -139.460      -51.674      -13.557       42.407       32.113       23.578     1798.321     1031.259      555.913        1.284        0.169      148.725       11.207        0.006      346.420       24.655      861.843
09/11/2014  20:29:00     -127.123      -28.298       -9.906       42.247       53.045       20.404     1784.770     2813.816      416.305        1.104        0.251      130.234       21.261        0.027      346.409       24.636      861.855
09/11/2014  20:30:00      -62.104      -16.083        1.787       41.180       44.566       18.773     1695.768     1986.087      352.440        0.408        0.202       64.153       18.083        0.079      346.352       24.538      861.860
09/11/2014  20:31:00      -75.852      -24.042      -10.206       26.672       22.101       17.315      711.385      488.464      299.819        0.397        0.075       79.571       15.706        0.039      346.366       24.562      861.884
09/11/2014  20:32:00      -98.988      -12.659       -6.086       31.767       29.046       17.518     1009.132      843.644      306.878        0.608        0.108       99.794        3.806        0.001      346.425       24.664      861.886
09/11/2014  20:33:00      -80.361      -11.329       -3.104       31.411       31.439       21.536      986.622      988.393      463.808        0.452        0.122       81.155       17.988        0.049      346.355       24.544      861.912
09/11/2014  20:34:00     -103.428       -5.577      -10.026       37.909       31.959       25.648     1437.083     1021.393      657.801        0.697        0.156      103.578       21.426        0.043      346.401       24.622      861.927
09/11/2014  20:35:00     -103.156      -32.413      -10.439       33.307       30.107       17.348     1109.355      906.421      300.956        0.706        0.116      108.128       10.759        0.010      346.340       24.516      861.947
09/11/2014  20:36:00     -107.421      -20.047       -5.861       29.084       28.312       16.562      845.885      801.546      274.294        0.695        0.096      109.275       12.215        0.012      346.336       24.508      861.959
09/11/2014  20:37:00      -91.050        4.684       -8.015       35.067       31.153       18.694     1229.666      970.480      349.476        0.546        0.127       91.171       17.096        0.035      346.298       24.444      861.966
09/11/2014  20:38:00     -140.417       51.079      -18.425       56.317       35.701       22.141     3171.552     1274.559      490.229        1.380        0.247      149.419       16.027        0.012      346.403       24.626      861.989
09/11/2014  20:39:00     -167.396       56.449      -20.783       38.265       30.868       21.957     1464.245      952.813      482.112        1.727        0.145      176.658       19.273        0.012      346.447       24.699      861.997
09/11/2014  20:40:00     -158.516       55.407      -13.770       49.655       25.960       22.661     2465.617      673.910      513.521        1.602        0.183      167.921       17.775        0.011      346.484       24.763      862.015
09/11/2014  20:41:00     -108.067       58.656      -16.587       24.514       24.374       18.075      600.948      594.104      326.695        0.846        0.076      122.959       12.024        0.010      346.415       24.646      862.026
09/11/2014  20:42:00     -113.523       77.690      -16.286       34.194       38.947       21.626     1169.255     1516.861      467.694        1.117        0.158      137.562       23.232        0.029      346.412       24.641      862.038
09/11/2014  20:43:00     -141.223       94.867      -28.106       33.362       39.842       21.548     1113.028     1587.377      464.330        1.645        0.158      170.129       19.554        0.013      346.372       24.572      862.051
09/11/2014  20:44:00     -124.582      157.929      -33.725       33.647       37.335       26.025     1132.146     1393.903      677.320        2.240        0.160      201.153       22.198        0.012      346.405       24.628      862.060
09/11/2014  20:45:00     -142.701      152.492      -33.230       25.657       27.602       19.318      658.277      761.893      373.169        2.326        0.090      208.848       15.369        0.005      346.465       24.729      862.068
09/11/2014  20:46:00     -121.070      132.425      -25.614       36.217       47.365       27.672     1311.669     2243.471      765.725        1.858        0.216      179.428       23.635        0.017      346.350       24.533      862.067
09/11/2014  20:47:00     -136.934      128.361      -31.919       29.836       42.450       23.755      890.177     1802.044      564.285        1.975        0.163      187.690       19.391        0.011      346.348       24.529      862.081
09/11/2014  20:48:00      -94.977       77.724      -16.407       33.713       44.756       23.718     1136.586     2003.122      562.560        0.952        0.185      122.726       16.975        0.019      346.173       24.230      862.093
09/11/2014  20:49:00      -94.043      104.002      -23.566       35.848       41.370       24.958     1285.086     1711.485      622.887        1.192        0.181      140.216       17.413        0.015      346.404       24.627      862.104
09/11/2014  20:50:00      -59.805      118.418      -16.407       37.247       31.280       23.391     1387.334      978.469      547.126        1.039        0.146      132.663       22.446        0.029      346.411       24.640      862.123
09/11/2014  20:51:00       20.426       32.900       -3.129       20.038       37.190       15.009      401.537     1383.119      225.263        0.176        0.100       38.725       18.277        0.223      346.087       24.084      862.135
09/11/2014  20:52:00       66.001       24.840       -1.014       14.960       14.953       11.570      223.808      223.582      133.873        0.278        0.029       70.521        5.952        0.007      345.882       23.730      862.148
09/11/2014  20:53:00       64.964       36.782       11.220       23.642       18.654       18.945      558.932      347.954      358.896        0.348        0.063       74.654       10.306        0.019      345.729       23.468      862.154
09/11/2014  20:54:00       11.588       51.455       -6.357       20.948       38.388       18.202      438.830     1473.637      331.300        0.253        0.112       52.743       19.707        0.140      345.895       23.752      862.166
09/11/2014  20:55:00        9.843      122.890      -24.430       12.913       17.476        8.551      166.752      305.403       73.115        0.817        0.027      123.284        7.387        0.004      346.216       24.305      862.170
09/11/2014  20:56:00       19.780      160.158      -30.879       20.108       30.375       12.530      404.342      922.634      156.992        1.424        0.074      161.375        9.709        0.004      346.094       24.094      862.184
09/11/2014  20:57:00      -40.769      146.569      -23.690       23.474       32.615       16.570      551.016     1063.713      274.558        1.280        0.094      152.133       10.932        0.005      345.972       23.884      862.186
09/11/2014  20:58:00      -40.620      110.568      -15.855       24.670       52.286       22.381      608.614     2733.780      500.924        0.898        0.192      117.794       26.770        0.052      345.933       23.820      862.195
09/11/2014  20:59:00      -27.953      159.478      -24.417       24.478       28.644       17.317      599.175      820.473      299.888        1.426        0.086      161.909       13.535        0.007      345.983       23.904      862.206
09/11/2014  21:00:00      -11.006      172.427      -24.916       24.507       21.816       13.594      600.572      475.945      184.788        1.587        0.063      172.778        8.984        0.003      346.036       23.995      862.217
09/11/2014  21:01:00       -4.380      161.946      -24.481       15.790       31.908       13.002      249.321     1018.140      169.045        1.414        0.072      162.005       12.025        0.006      346.094       24.093      862.217
09/11/2014  21:02:00      -10.469      189.305      -25.872       30.320       29.173       17.103      919.329      851.070      292.530        1.934        0.103      189.594       17.165        0.008      346.169       24.221      862.219
09/11/2014  21:03:00      -37.596      167.766      -21.223       22.321       19.984       14.356      498.249      399.376      206.090        1.556        0.055      171.927       10.263        0.004      346.121       24.140      862.218
09/11/2014  21:04:00      -41.232      149.395      -20.787       21.267       30.031       16.470      452.288      901.858      271.253        1.304        0.081      154.980       14.612        0.009      346.075       24.063      862.205
09/11/2014  21:05:00      -53.007      122.417      -17.965       25.456       31.156       19.876      648.025      970.679      395.072        1.007        0.101      133.401       11.968        0.008      345.994       23.924      862.210
09/11/2014  21:06:00      -45.366      105.572      -17.830       25.384       37.816       18.335      644.363     1430.061      336.171        0.797        0.121      114.906       14.306        0.016      345.982       23.902      862.215
09/11/2014  21:07:00      -51.294      142.043      -17.924       29.674       42.066       21.926      880.566     1769.562      480.746        1.313        0.157      151.021       19.823        0.017      346.083       24.077      862.225
09/11/2014  21:08:00      -55.666      151.673      -20.415       24.469       35.574       19.130      598.708     1265.541      365.967        1.437        0.112      161.566       14.460        0.008      346.163       24.214      862.239
09/11/2014  21:09:00      -61.578      101.170      -17.802       29.534       30.161       19.476      872.286      909.711      379.318        0.825        0.108      118.437       17.302        0.021      346.068       24.050      862.237
09/11/2014  21:10:00      -64.820      122.750      -21.470       26.398       30.102       22.472      696.864      906.117      504.979        1.092        0.105      138.814       15.416        0.012      346.162       24.212      862.250
09/11/2014  21:11:00      -78.571       78.288      -20.162       18.937       28.960       15.988      358.594      838.709      255.612        0.708        0.073      110.916       10.147        0.008      346.188       24.257      862.247
09/11/2014  21:12:00      -45.412       94.839      -14.363       28.506       38.681       15.276      812.570     1496.228      233.364        0.690        0.127      105.151       12.134        0.013      346.128       24.153      862.253
09/11/2014  21:13:00      -69.086       60.298      -13.890       22.921       30.233       13.904      525.354      914.042      193.322        0.512        0.082       91.699       14.502        0.025      346.109       24.119      862.258
09/11/2014  21:14:00      -71.061       38.679      -11.415       25.274       25.835       16.879      638.756      667.433      284.907        0.413        0.080       80.906       15.878        0.039      346.046       24.011      862.265
09/11/2014  21:15:00      -40.101       -5.378        0.488       26.775       15.637       14.886      716.879      244.501      221.585        0.141        0.059       40.460       15.611        0.149      346.036       23.992      862.272
09/11/2014  21:16:00      -11.699       33.452       -3.583       24.193       37.527       16.765      585.294     1408.251      281.057        0.177        0.114       35.439       17.895        0.255      345.959       23.863      862.274
09/11/2014  21:17:00      -14.716       27.981       -0.874       22.368       42.528       15.837      500.330     1808.603      250.818        0.178        0.128       31.614       17.058        0.291      345.977       23.893      862.293
09/11/2014  21:18:00      -34.943       78.849      -16.439       27.854       24.618       11.844      775.846      606.044      140.288        0.462        0.076       86.245        9.312        0.012      346.090       24.087      862.286
09/11/2014  21:19:00      -48.378       69.856      -14.004       26.035       28.405       18.766      677.845      806.865      352.166        0.463        0.092       84.973       15.404        0.033      346.095       24.096      862.286
09/11/2014  21:20:00      -36.434       66.210      -11.170       27.296       25.165       16.469      745.073      633.293      271.238        0.374        0.082       75.573       16.166        0.046      346.100       24.105      862.297
09/11/2014  21:21:00      -53.362       20.454       -6.508       40.420       25.876       13.964     1633.760      669.567      194.994        0.290        0.125       57.148        9.656        0.029      346.032       23.989      862.294
09/11/2014  21:22:00      -13.851       79.379       -7.216       33.162       46.401       21.276     1099.735     2153.022      452.678        0.512        0.185       80.578       22.940        0.081      346.071       24.054      862.324
09/11/2014  21:23:00      -20.190      156.493      -23.208       22.319       28.368       12.275      498.141      804.759      150.680        1.344        0.073      157.790        8.885        0.003      346.361       24.554      862.339
09/11/2014  21:24:00      -47.612      134.477      -22.016       22.325       32.520       15.469      498.402     1057.550      239.302        1.132        0.090      142.657       17.869        0.016      346.154       24.197      862.336
09/11/2014  21:25:00      -46.578       75.885      -13.303       22.184       33.652       12.726      492.131     1132.476      161.944        0.495        0.089       89.039       10.445        0.014      345.943       23.835      862.354
09/11/2014  21:26:00      -41.377       66.442      -11.985       25.192       20.705       14.817      634.650      428.694      219.530        0.378        0.064       78.272       11.673        0.022      346.058       24.033      862.365
09/11/2014  21:27:00       -7.458       77.609      -10.855       20.685       21.768       14.408      427.868      473.860      207.577        0.365        0.055       77.966       12.400        0.025      346.026       23.977      862.374
09/11/2014  21:28:00      -40.103       90.262      -12.469       18.938       33.614       16.580      358.654     1129.885      274.912        0.584        0.088       98.770       15.990        0.026      345.991       23.917      862.377
09/11/2014  21:29:00      -53.017       90.427      -19.914       24.088       22.986       14.299      580.231      528.340      204.462        0.635        0.066      104.823       12.074        0.013      345.955       23.856      862.380
09/11/2014  21:30:00      -56.733       86.358      -18.579       23.418       18.698       14.631      548.414      349.626      214.075        0.607        0.056      103.326        8.504        0.007      346.034       23.991      862.389
09/11/2014  21:31:00      -69.022       33.931      -18.893       23.593       35.936       22.193      556.622     1291.394      492.518        0.431        0.117       76.911       21.051        0.075      345.904       23.769      862.404
09/11/2014  21:32:00      -12.829        7.003      -11.171       25.263       32.462       20.216      638.219     1053.794      408.681        0.122        0.105       14.615       17.527        1.438      345.961       23.866      862.408
09/11/2014  21:33:00      -22.666      -36.152        5.707       33.566       27.124       20.324     1126.669      735.735      413.064        0.206        0.114       42.670       21.155        0.246      345.455       22.996      862.429
09/11/2014  21:34:00      -49.408      -86.585       -1.975       36.171       36.566       21.063     1308.341     1337.044      443.633        0.651        0.154       99.690       12.355        0.015      345.480       23.040      862.446
09/11/2014  21:35:00      -97.673     -118.074       -1.501       46.170       58.797       30.472     2131.700     3457.059      928.532        1.500        0.326      153.237       25.520        0.028      345.413       22.925      862.449
09/11/2014  21:36:00     -142.925      -60.839       -8.273       38.243       26.733       19.858     1462.503      714.676      394.334        1.338        0.129      155.335       15.864        0.010      345.293       22.719      862.448
09/11/2014  21:37:00      -90.996      -58.329       -0.860       36.332       30.018       21.924     1319.980      901.094      480.653        0.719        0.135      108.085       21.103        0.038      345.288       22.711      862.479
09/11/2014  21:38:00      -55.630      -50.526        4.362       43.786       38.748       20.857     1917.201     1501.401      435.023        0.476        0.193       75.150       23.343        0.096      345.362       22.838      862.486
09/11/2014  21:39:00      -39.293      -99.415      -16.124       42.076       44.890       26.675     1770.402     2015.114      711.577        0.809        0.225      106.898       21.061        0.039      345.772       23.543      862.491
09/11/2014  21:40:00      -37.719      -78.839       12.334       55.305       50.339       43.595     3058.641     2534.025     1900.485        0.764        0.375       87.397       42.813        0.240      345.518       23.104      862.496
09/11/2014  21:41:00     -105.324     -133.052       -4.484       71.787       69.590       36.597     5153.397     4842.791     1339.347        2.007        0.567      169.694       43.706        0.066      345.308       22.741      862.492
09/11/2014  21:42:00      -85.523     -112.530       -6.321       54.002       68.213       29.674     2916.162     4652.951      880.553        1.423        0.422      141.341       30.879        0.048      345.398       22.897      862.496
09/11/2014  21:43:00     -113.118      -75.553       -6.054       56.865       47.326       33.150     3233.619     2239.764     1098.949        1.256        0.329      136.029       29.369        0.047      345.292       22.718      862.493
09/11/2014  21:44:00     -105.302      -89.946       -3.988       43.018       45.875       27.693     1850.561     2104.509      766.888        1.196        0.236      138.487       23.612        0.029      345.271       22.680      862.488
09/11/2014  21:45:00     -125.199      -47.104       -5.788       20.987       21.936       18.981      440.456      481.174      360.293        0.960        0.064      133.767       15.298        0.013      345.343       22.804      862.489
09/11/2014  21:46:00      -96.831      -66.328       -2.163       40.695       35.335       20.083     1656.061     1248.552      403.328        0.854        0.165      117.369       25.327        0.047      345.188       22.540      862.478
09/11/2014  21:47:00      -77.509      -57.133       -1.666       45.802       23.083       19.192     2097.780      532.805      368.347        0.614        0.150       96.291       12.706        0.017      345.189       22.541      862.480
09/11/2014  21:48:00      -46.928      -32.978        2.773       36.678       27.306       21.334     1345.312      745.609      455.144        0.292        0.127       57.357       20.430        0.127      345.138       22.454      862.489
09/11/2014  21:49:00      -55.561      -50.801        4.280       32.870       28.344       20.512     1080.459      803.411      420.754        0.399        0.115       75.285       18.315        0.059      345.109       22.405      862.511
09/11/2014  21:50:00      -70.526      -42.683       -8.148       28.458       28.259       21.662      809.880      798.572      469.257        0.447        0.104       82.436       14.721        0.032      345.085       22.365      862.519
09/11/2014  21:51:00     -109.447      -76.585       -5.478       37.856       33.239       23.206     1433.081     1104.804      538.502        1.047        0.154      133.581       20.799        0.024      345.040       22.287      862.524
09/11/2014  21:52:00     -108.807      -78.023       -2.012       34.419       26.454       19.713     1184.658      699.816      388.602        1.010        0.114      133.890       16.294        0.015      344.997       22.214      862.539
09/11/2014  21:53:00     -116.206      -65.442       -1.583       26.438       25.323       19.064      698.948      641.269      363.440        0.975        0.085      133.366       13.773        0.011      344.944       22.124      862.542
09/11/2014  21:54:00     -110.692      -55.940        2.076       33.980       24.784       16.680     1154.656      614.245      278.229        0.872        0.102      124.024       14.237        0.013      344.980       22.183      862.539
09/11/2014  21:55:00      -86.258      -46.133        7.992       47.849       37.879       23.117     2289.514     1434.796      534.374        0.694        0.213       97.819       25.484        0.068      344.919       22.080      862.548
09/11/2014  21:56:00      -98.109      -23.162       -4.251       33.371       25.163       17.478     1113.652      633.170      305.474        0.612        0.103      100.806       16.648        0.027      344.818       21.906      862.539
09/11/2014  21:57:00      -79.853      -53.831        4.892       22.616       22.467       18.967      511.498      504.763      359.756        0.534        0.069       96.303        9.945        0.011      344.732       21.761      862.531
09/11/2014  21:58:00      -84.500      -21.151      -10.435       25.717       25.569       17.814      661.349      653.750      317.349        0.466        0.082       87.107       17.588        0.041      344.768       21.820      862.536
09/11/2014  21:59:00      -72.859       -9.089       -8.990       18.012       24.137       12.100      324.438      582.586      146.398        0.326        0.053       73.423        8.505        0.013      344.751       21.791      862.523
09/11/2014  22:00:00      -48.280       -0.370      -13.205       22.737       19.237       11.390      516.965      370.071      129.728        0.176        0.051       48.281        8.937        0.034      344.559       21.464      862.515
09/11/2014  22:01:00      -74.553       -0.916      -16.652       23.469       20.239       12.185      550.804      409.607      148.482        0.347        0.055       74.559        7.734        0.011      344.568       21.480      862.516
09/11/2014  22:02:00      -57.762      -14.746       -2.261       35.403       33.016       23.152     1253.374     1090.024      536.022        0.322        0.144       59.615       21.438        0.129      344.578       21.498      862.529
09/11/2014  22:03:00      -83.718      -14.192       -3.663       47.338       36.603       20.625     2240.843     1339.756      425.386        0.561        0.200       84.912       17.210        0.041      344.549       21.446      862.531
09/11/2014  22:04:00      -84.978      -24.868      -11.015       21.792       28.983       17.544      474.896      840.023      307.801        0.479        0.081       88.542        9.366        0.011      344.541       21.433      862.537
09/11/2014  22:05:00      -67.719      -31.000      -10.639       34.633       24.826       15.077     1199.417      616.324      227.326        0.385        0.102       74.477       14.869        0.040      344.519       21.396      862.551
09/11/2014  22:06:00      -87.978      -11.253      -12.393       29.246       24.765       16.197      855.353      613.290      262.348        0.488        0.087       88.694        9.174        0.011      344.455       21.285      862.554
09/11/2014  22:07:00     -100.363      -26.951       -7.864       32.426       27.759       18.008     1051.475      770.539      324.305        0.650        0.107      103.918       12.695        0.015      344.337       21.086      862.557
09/11/2014  22:08:00      -71.500      -27.476      -11.754       28.019       22.219       19.860      785.069      493.692      394.416        0.384        0.084       76.597       12.657        0.027      344.289       21.001      862.573
09/11/2014  22:09:00      -52.103      -23.446      -10.389       24.334       18.925       12.957      592.134      358.153      167.888        0.225        0.056       57.135        6.841        0.014      344.311       21.039      862.568
09/11/2014  22:10:00      -61.286      -15.857      -14.378       26.665       11.508       14.145      711.021      132.443      200.084        0.263        0.052       63.304       11.887        0.035      344.284       20.993      862.581
09/11/2014  22:11:00      -73.458      -29.899      -13.324       23.470       18.600       12.327      550.853      345.955      151.951        0.376        0.052       79.310        7.346        0.009      344.283       20.993      862.595
09/11/2014  22:12:00      -93.044      -20.273      -10.796       28.525       22.697       14.837      813.669      515.154      220.137        0.537        0.077       95.227        9.339        0.010      344.301       21.024      862.591
09/11/2014  22:13:00      -90.171      -20.261      -16.983       20.853       18.588       13.301      434.851      345.509      176.907        0.489        0.048       92.419        9.558        0.011      344.356       21.116      862.599
09/11/2014  22:14:00      -87.138      -30.517      -15.575       34.215       29.982       20.689     1170.641      898.904      428.037        0.563        0.125       92.327       15.103        0.027      344.205       20.858      862.597
09/11/2014  22:15:00     -113.463      -34.786      -17.154       24.054       25.069       17.365      578.614      628.471      301.539        0.794        0.075      118.676       10.217        0.007      344.218       20.881      862.607
09/11/2014  22:16:00     -132.284      -13.444      -12.278       32.267       28.666       23.481     1041.186      821.747      551.372        1.012        0.121      132.966       20.208        0.023      344.154       20.772      862.601
09/11/2014  22:17:00     -109.776      -18.555      -14.291       39.916       27.885       17.898     1593.295      777.576      320.332        0.764        0.135      111.333       17.603        0.025      344.035       20.568      862.613
09/11/2014  22:18:00     -122.880       -5.939      -17.421       29.953       21.449       17.128      897.204      460.048      293.362        0.854        0.083      123.024       15.015        0.015      344.051       20.596      862.617
09/11/2014  22:19:00     -100.565        2.237      -15.657       29.867       23.321       18.702      892.057      543.853      349.767        0.607        0.089      100.590       12.125        0.015      344.060       20.611      862.619
09/11/2014  22:20:00     -133.812        3.032      -21.563       26.819       23.874       16.161      719.255      569.977      261.185        0.996        0.078      133.847        6.479        0.002      344.062       20.615      862.628
09/11/2014  22:21:00     -119.203      -13.598      -20.349       29.515       24.141       18.484      871.148      582.798      341.653        0.830        0.090      119.976       13.608        0.013      344.070       20.628      862.628
09/11/2014  22:22:00     -114.666      -18.457      -18.462       34.865       32.130       21.008     1215.596     1032.367      441.321        0.826        0.134      116.142       18.745        0.026      344.065       20.619      862.638
09/11/2014  22:23:00     -113.766      -22.495      -17.803       27.526       34.593       19.412      757.658     1196.684      376.809        0.805        0.117      115.969       11.647        0.010      344.028       20.556      862.649
09/11/2014  22:24:00     -132.088      -31.874      -17.092       24.593       26.737       18.851      604.808      714.844      355.352        1.021        0.084      135.880       13.358        0.010      343.911       20.357      862.660
09/11/2014  22:25:00     -124.589      -62.891      -15.632       22.551       23.976       13.795      508.557      574.838      190.305        1.050        0.064      139.563        9.500        0.005      344.001       20.509      862.676
09/11/2014  22:26:00     -128.975      -68.883       -9.466       28.148       19.216       12.599      792.290      369.272      158.745        1.139        0.066      146.217        8.982        0.004      344.119       20.714      862.678
09/11/2014  22:27:00     -127.279      -71.608      -10.597       22.327       16.010       11.602      498.514      256.325      134.618        1.116        0.044      146.040       10.450        0.005      344.244       20.926      862.697
09/11/2014  22:28:00     -130.582      -60.194      -12.292       15.298       13.317       10.826      234.018      177.340      117.195        1.068        0.026      143.788        5.261        0.001      344.262       20.956      862.693
09/11/2014  22:29:00     -118.750      -57.856       -9.304       16.422       10.406        8.952      269.688      108.286       80.138        0.900        0.023      132.094        5.268        0.002      344.257       20.946      862.693
09/11/2014  22:30:00     -117.619      -32.189      -19.650       11.872       16.453       11.421      140.936      270.703      130.450        0.790        0.027      121.944        7.395        0.004      344.196       20.841      862.697
09/11/2014  22:31:00     -109.062      -33.139      -17.882       12.944       12.006       10.261      167.546      144.152      105.285        0.686        0.021      113.986        6.657        0.003      344.168       20.796      862.693
09/11/2014  22:32:00     -117.227       -4.661      -20.716       22.038       12.964       11.543      485.669      168.076      133.239        0.749        0.039      117.320        7.769        0.004      344.296       21.014      862.687
09/11/2014  22:33:00     -123.475      -14.254      -18.975       23.831       19.314       14.419      567.903      373.017      207.918        0.848        0.057      124.295       13.118        0.011      344.210       20.867      862.686
09/11/2014  22:34:00      -93.030      -12.901      -11.474       22.955       21.312       14.702      526.940      454.221      216.162        0.507        0.060       93.921       12.764        0.018      344.142       20.750      862.690
09/11/2014  22:35:00      -86.462        5.612      -11.925       19.735       21.890       14.402      389.451      479.163      207.425        0.436        0.054       86.644       10.610        0.015      344.198       20.845      862.691
09/11/2014  22:36:00      -79.397       -3.187       -9.272       30.921       20.511       14.501      956.093      420.718      210.268        0.399        0.079       79.461       16.109        0.041      344.126       20.725      862.695
09/11/2014  22:37:00      -85.883       -3.885      -16.147       25.080       19.803       17.561      629.011      392.166      308.375        0.449        0.066       85.971       12.842        0.022      344.196       20.845      862.697
09/11/2014  22:38:00      -85.469        4.293      -21.483       25.089       17.907       12.640      629.448      320.649      159.757        0.445        0.055       85.576        7.347        0.007      344.094       20.669      862.704
09/11/2014  22:39:00      -75.255       30.083      -15.403       22.254       26.400       18.698      495.219      696.959      349.624        0.417        0.077       81.045       13.451        0.028      344.170       20.799      862.710
09/11/2014  22:40:00      -87.324        8.793      -17.245       34.293       19.217       19.252     1176.037      369.283      370.623        0.496        0.096       87.766       19.425        0.049      344.177       20.809      862.712
09/11/2014  22:41:00      -91.537        8.596      -18.688       21.145       23.046       13.371      447.128      531.130      178.776        0.498        0.058       91.940        9.099        0.010      344.100       20.681      862.723
09/11/2014  22:42:00      -79.115       -1.956      -12.211       35.950       26.198       17.693     1292.383      686.319      313.058        0.435        0.115       79.139       18.151        0.053      344.092       20.667      862.721
09/11/2014  22:43:00     -114.446        8.250      -20.062       28.944       19.807       13.685      837.731      392.323      187.267        0.749        0.071      114.743       10.153        0.008      344.104       20.685      862.714
09/11/2014  22:44:00      -62.173        7.855      -12.431       35.444       25.502       17.885     1256.278      650.360      319.881        0.315        0.111       62.667       15.113        0.058      344.046       20.587      862.718
09/11/2014  22:45:00      -65.478       14.748       -7.568       36.197       29.263       21.217     1310.226      856.343      450.178        0.359        0.131       67.118       14.499        0.047      344.075       20.636      862.708
09/11/2014  22:46:00      -85.530       13.848      -17.772       33.945       23.800       15.197     1152.258      566.427      230.942        0.489        0.097       86.644       14.414        0.028      344.176       20.807      862.711
09/11/2014  22:47:00      -88.134        4.753      -15.276       41.019       20.961       19.300     1682.589      439.365      372.507        0.526        0.125       88.262       18.293        0.043      344.127       20.726      862.707
09/11/2014  22:48:00      -96.446       -7.318      -12.559       37.887       19.208       20.984     1435.410      368.930      440.320        0.588        0.112       96.723       22.500        0.054      344.000       20.508      862.702
09/11/2014  22:49:00     -112.899      -22.191      -16.853       30.715       33.735       20.447      943.386     1138.065      418.092        0.801        0.125      115.059       17.625        0.023      343.984       20.481      862.701
09/11/2014  22:50:00     -125.000       -1.868      -26.297       31.488       18.602       16.054      991.495      346.030      257.727        0.896        0.080      125.014       14.167        0.013      343.925       20.381      862.689
09/11/2014  22:51:00      -94.128      -30.863      -20.368       18.661       22.743       14.356      348.220      517.264      206.098        0.565        0.054       99.059       11.775        0.014      343.861       20.271      862.675
09/11/2014  22:52:00     -109.971      -29.179      -35.441       26.657       22.772       18.450      710.610      518.577      340.419        0.789        0.078      113.776        7.221        0.004      343.798       20.162      862.673
09/11/2014  22:53:00      -72.186      -36.333      -14.037       44.768       33.470       18.903     2004.200     1120.260      357.315        0.510        0.174       80.814       14.190        0.031      343.730       20.047      862.658
09/11/2014  22:54:00     -101.076      -36.376      -24.279       26.585       29.321       24.650      706.768      859.742      607.623        0.715        0.109      107.422       20.370        0.036      343.702       19.999      862.663
09/11/2014  22:55:00      -89.036      -60.829      -19.376       45.387       27.793       20.105     2059.963      772.426      404.213        0.762        0.162      107.832       13.063        0.015      343.717       20.025      862.659
09/11/2014  22:56:00      -97.361      -55.909      -16.752       37.277       24.563       25.341     1389.597      603.339      642.180        0.776        0.132      112.272        7.592        0.005      343.673       19.949      862.651
09/11/2014  22:57:00     -123.015      -40.618      -20.778       30.843       25.705       17.536      951.303      660.758      307.498        0.957        0.096      129.548       15.662        0.015      343.573       19.780      862.665
09/11/2014  22:58:00     -154.376      -18.240      -23.225       12.449       13.266       12.468      154.979      176.000      155.446        1.260        0.024      155.450        4.087        0.001      343.595       19.816      862.668
09/11/2014  22:59:00     -109.249      -51.894      -10.055       15.196       13.790       11.905      230.904      190.173      141.740        0.765        0.028      120.948        9.098        0.006      343.695       19.988      862.677
09/11/2014  23:00:00     -101.600      -48.702      -13.468       10.835       16.651        9.501      117.397      277.252       90.269        0.668        0.024      112.669        7.265        0.004      343.797       20.162      862.686
09/11/2014  23:01:00     -106.903      -23.492      -16.800       13.841       12.089        9.919      191.573      146.136       98.394        0.635        0.022      109.454        8.861        0.007      343.830       20.219      862.693
09/11/2014  23:02:00      -99.202      -22.754      -16.083        9.371        9.356        6.751       87.819       87.543       45.580        0.542        0.011      101.778        3.622        0.001      343.768       20.113      862.697
09/11/2014  23:03:00     -113.163      -28.180      -23.018       12.856       11.706        8.343      165.276      137.024       69.613        0.725        0.019      116.619        3.622        0.001      343.791       20.151      862.703
09/11/2014  23:04:00     -124.324      -36.229      -16.462       23.044       12.944       14.436      531.027      167.552      208.397        0.897        0.045      129.495       13.541        0.011      343.763       20.104      862.696
09/11/2014  23:05:00     -117.565      -47.939      -14.360       17.686       12.532       11.591      312.796      157.060      134.350        0.846        0.030      126.964        8.998        0.005      343.701       19.997      862.710
09/11/2014  23:06:00     -108.571      -63.733      -20.452       25.239       17.143       14.128      637.003      293.888      199.605        0.870        0.057      125.895        8.480        0.005      343.575       19.781      862.719
09/11/2014  23:07:00     -126.386      -72.218      -12.103       18.034       21.132       14.679      325.217      446.559      215.468        1.116        0.049      145.565       12.851        0.008      343.514       19.680      862.717
09/11/2014  23:08:00     -117.672      -62.832       -9.587       17.094       17.075       12.376      292.220      291.561      153.161        0.931        0.037      133.396        8.494        0.004      343.435       19.542      862.731
09/11/2014  23:09:00      -91.913      -46.855       -8.604       23.260       23.310       14.070      541.041      543.365      197.953        0.600        0.064      103.167       13.991        0.018      343.445       19.561      862.742
09/11/2014  23:10:00      -95.100      -50.877      -13.401       24.007       18.619       11.891      576.329      346.657      141.404        0.644        0.053      107.853       12.617        0.014      343.474       19.611      862.741
09/11/2014  23:11:00     -109.323      -59.314      -13.812       15.087       16.214       11.451      227.617      262.880      131.120        0.814        0.031      124.377        5.915        0.002      343.517       19.685      862.742
09/11/2014  23:12:00     -104.151      -57.334       -6.215       24.532       13.759       13.298      601.842      189.320      176.833        0.757        0.048      118.889       13.626        0.013      343.485       19.632      862.751
09/11/2014  23:13:00     -114.934      -41.767      -17.314       16.514       17.177        9.645      272.717      295.052       93.032        0.796        0.033      122.288        7.230        0.003      343.508       19.668      862.747
09/11/2014  23:14:00     -112.856      -58.350      -11.622       15.003       13.877       11.096      225.093      192.582      123.128        0.841        0.027      127.048        5.229        0.002      343.455       19.578      862.758
09/11/2014  23:15:00     -124.783      -65.660      -17.191       23.307       20.984       13.738      543.225      440.315      188.730        1.067        0.059      141.003       10.700        0.006      343.420       19.517      862.764
09/11/2014  23:16:00     -124.753      -58.593      -18.167       20.512       22.303       14.589      420.722      497.440      212.846        1.023        0.057      137.827       11.036        0.006      343.391       19.469      862.757
09/11/2014  23:17:00     -127.817      -59.400      -14.403       17.829       19.580       14.057      317.880      383.383      197.612        1.049        0.045      140.945        8.410        0.004      343.363       19.422      862.756
09/11/2014  23:18:00     -113.792      -57.198       -8.114       20.904       25.028       13.675      436.975      626.404      187.010        0.877        0.063      127.359        8.486        0.004      343.320       19.348      862.768
09/11/2014  23:19:00     -109.378      -44.655       -9.530       17.308       20.706       12.285      299.568      428.727      150.931        0.746        0.044      118.142        5.382        0.002      343.318       19.344      862.770
09/11/2014  23:20:00     -119.845      -63.558      -12.268       12.687       14.214        9.106      160.970      202.045       82.918        0.950        0.022      135.656        5.172        0.001      343.370       19.435      862.787
09/11/2014  23:21:00     -132.460      -65.922      -19.561       10.953       11.601        9.651      119.959      134.594       93.133        1.131        0.017      147.957        4.288        0.001      343.374       19.438      862.796
09/11/2014  23:22:00     -136.894      -48.323      -12.712       15.588       19.183       12.578      242.999      368.001      158.210        1.100        0.038      145.173       11.668        0.006      343.318       19.346      862.800
09/11/2014  23:23:00     -121.361      -71.502       -8.752       25.236       19.913       11.726      636.837      396.547      137.498        1.054        0.059      140.858        4.794        0.001      343.313       19.335      862.812
09/11/2014  23:24:00     -139.272      -67.078      -21.218       22.769       20.723       17.621      518.408      429.433      310.516        1.280        0.063      154.584       13.711        0.008      343.229       19.194      862.825
09/11/2014  23:25:00     -138.921      -87.014      -10.705       23.540       25.476       15.292      554.121      649.035      233.831        1.421        0.072      163.922        8.274        0.003      343.166       19.086      862.833
09/11/2014  23:26:00     -143.150      -74.809      -10.102       42.069       23.677       18.577     1769.834      560.620      345.107        1.443        0.134      161.519       19.180        0.014      343.183       19.116      862.847
09/11/2014  23:27:00     -139.492      -72.351      -10.637       15.317       19.884       18.545      234.608      395.386      343.916        1.289        0.049      157.139        9.504        0.004      343.207       19.158      862.851
09/11/2014  23:28:00     -142.591      -47.294      -13.304       18.771       22.452       12.632      352.359      504.083      159.560        1.188        0.051      150.229        8.212        0.003      343.154       19.065      862.849
09/11/2014  23:29:00     -140.487      -58.635       -8.143       19.952       18.825       13.280      398.076      354.397      176.361        1.208        0.046      152.233       10.285        0.005      343.191       19.128      862.854
09/11/2014  23:30:00     -142.981      -52.580      -17.626       13.015       16.018       13.367      169.391      256.573      178.666        1.206        0.030      152.343        7.750        0.003      343.113       18.997      862.861
09/11/2014  23:31:00     -151.476      -59.293      -12.804       28.125       23.128       15.801      791.019      534.890      249.659        1.410        0.079      162.667       12.573        0.006      343.129       19.023      862.853
09/11/2014  23:32:00     -140.492      -62.548      -10.015       29.654       21.233       15.941      879.345      450.824      254.108        1.267        0.079      153.786       14.136        0.008      342.977       18.765      862.849
09/11/2014  23:33:00     -113.708      -25.200       -3.971       50.327       30.549       18.330     2532.786      933.243      335.978        0.869        0.190      116.467       22.776        0.038      342.852       18.553      862.859
09/11/2014  23:34:00      -55.808       -8.678       -1.272       43.550       26.551       16.314     1896.591      704.971      266.148        0.303        0.143       56.479       15.254        0.073      342.861       18.566      862.860
09/11/2014  23:35:00      -74.948       -8.425       -7.871       30.124       28.560       20.696      907.454      815.661      428.326        0.395        0.108       75.420       12.668        0.028      343.134       19.034      862.854
09/11/2014  23:36:00      -63.955       -4.387      -14.851       38.132       41.142       26.221     1454.084     1692.643      687.536        0.408        0.192       64.105       28.571        0.199      343.258       19.243      862.864
09/11/2014  23:37:00      -48.998      -19.264       -7.847       29.962       32.120       20.738      897.742     1031.687      430.061        0.260        0.118       52.648       16.050        0.093      343.196       19.138      862.861
09/11/2014  23:38:00      -97.370       -4.752      -19.342       26.740       28.865       18.296      715.025      833.176      334.736        0.588        0.094       97.486        9.529        0.010      343.258       19.243      862.852
09/11/2014  23:39:00     -113.802        3.831      -16.010       45.594       26.482       20.801     2078.823      701.270      432.688        0.822        0.161      113.866       22.200        0.038      343.270       19.262      862.853
09/11/2014  23:40:00     -108.985       -0.855      -16.197       27.913       27.969       17.328      779.140      782.258      300.274        0.700        0.093      108.988       12.332        0.013      343.276       19.274      862.847
09/11/2014  23:41:00     -129.186       -0.948      -19.966       22.848       24.487       16.508      522.013      599.635      272.521        0.924        0.070      129.190        8.542        0.004      343.305       19.323      862.838
09/11/2014  23:42:00      -85.300      -30.180       -7.275       34.252       24.590       21.875     1173.213      604.681      478.529        0.525        0.113       90.482       19.969        0.049      343.228       19.192      862.833
09/11/2014  23:43:00     -102.908      -33.875      -25.536       25.596       26.520       23.278      655.158      703.316      541.877        0.714        0.095      108.340       11.682        0.012      343.203       19.148      862.831
09/11/2014  23:44:00      -81.264      -29.233      -21.386       28.943       29.542       24.480      837.704      872.751      599.292        0.511        0.115       86.362        3.330        0.001      343.143       19.047      862.830
09/11/2014  23:45:00      -87.013      -27.971      -16.407       33.648       34.715       22.290     1132.196     1205.113      496.840        0.573        0.142       91.398       17.847        0.038      343.224       19.185      862.842
09/11/2014  23:46:00      -89.141      -35.804      -13.064       34.746       23.398       15.845     1207.296      547.463      251.073        0.570        0.100       96.063       13.988        0.021      343.268       19.261      862.854
09/11/2014  23:47:00      -98.253      -13.543      -12.198       22.206       35.617       18.721      493.093     1268.546      350.481        0.605        0.106       99.181       15.436        0.024      343.231       19.197      862.854
09/11/2014  23:48:00      -98.529      -25.341      -12.506       22.079       23.437       15.121      487.486      549.283      228.651        0.589        0.063      101.736       12.372        0.015      343.180       19.112      862.859
09/11/2014  23:49:00     -103.411      -43.210      -13.660       20.410       28.103       15.936      416.565      789.752      253.959        0.710        0.073      112.075       14.840        0.018      343.110       18.991      862.873
09/11/2014  23:50:00     -117.009      -38.187      -14.344       17.500       24.565       15.649      306.235      603.430      244.894        0.825        0.058      123.083       10.046        0.007      343.034       18.863      862.873
09/11/2014  23:51:00     -111.579      -40.826      -18.955       24.848       25.804       18.692      617.433      665.825      349.407        0.805        0.082      118.813       15.575        0.017      343.048       18.884      862.875
09/11/2014  23:52:00      -95.734      -34.263      -12.702       22.958       18.136       15.941      527.056      328.929      254.115        0.581        0.056      101.681       12.135        0.014      343.084       18.948      862.891
09/11/2014  23:53:00      -92.260      -56.923       -9.668       23.523       28.391       16.455      553.352      806.033      270.753        0.674        0.082      108.407       10.976        0.010      343.079       18.938      862.900
09/11/2014  23:54:00      -88.734      -74.760       -7.532       39.701       23.198       21.049     1576.156      538.170      443.075        0.804        0.128      116.029       13.802        0.014      343.038       18.867      862.905
09/11/2014  23:55:00     -101.799      -69.151       -2.886       41.290       33.258       25.944     1704.870     1106.088      673.067        0.932        0.174      123.064       21.211        0.030      343.021       18.840      862.915
09/11/2014  23:56:00      -80.348      -55.670       -5.465       38.069       31.368       16.530     1449.283      983.924      273.252        0.615        0.135       97.749       14.248        0.021      343.106       18.984      862.921
09/11/2014  23:57:00      -96.960      -54.836      -10.332       22.930       17.768       15.130      525.795      315.716      228.910        0.679        0.054      111.393        5.426        0.002      343.112       18.994      862.920
09/11/2014  23:58:00     -104.356      -61.596       -7.810       31.989       23.925       19.862     1023.301      572.407      394.502        0.837        0.100      121.178       16.321        0.018      343.056       18.900      862.925
09/11/2014  23:59:00     -122.311      -90.548      -13.873       33.905       33.312       22.578     1149.553     1109.668      509.756        1.306        0.138      152.180       10.362        0.005      342.906       18.643      862.930
